<?xml version="1.0" encoding="UTF-8" standalone="no" ?>
<gpx xmlns="http://www.topografix.com/GPX/1/1" creator="www.cicloide.com" version="1.1" xmlns:xsi="http://www.w3.org/2001/XMLSchema-instance" xsi:schemaLocation="http://www.topografix.com/GPX/1/1 http://www.topografix.com/GPX/1/1/gpx.xsd">
  <trk>
    <name>www.cicloide.com 9470</name>
    <desc>www.cicloide.com 9470</desc>
    <trkseg>
      <trkpt lat="41.607052000" lon="2.533889100">
        <ele>150.60</ele>
        <time>2012-06-23T15:49:32Z</time>
      </trkpt>
      <trkpt lat="41.607052000" lon="2.533889100">
        <ele>150.60</ele>
        <time>2012-06-23T15:49:46Z</time>
      </trkpt>
      <trkpt lat="41.607056000" lon="2.533890100">
        <ele>150.60</ele>
        <time>2012-06-23T15:49:56Z</time>
      </trkpt>
      <trkpt lat="41.606987000" lon="2.533890100">
        <ele>150.60</ele>
        <time>2012-06-23T15:50:10Z</time>
      </trkpt>
      <trkpt lat="41.606876000" lon="2.533913100">
        <ele>150.60</ele>
        <time>2012-06-23T15:50:14Z</time>
      </trkpt>
      <trkpt lat="41.606861000" lon="2.533935100">
        <ele>150.60</ele>
        <time>2012-06-23T15:50:15Z</time>
      </trkpt>
      <trkpt lat="41.606842000" lon="2.533966100">
        <ele>150.60</ele>
        <time>2012-06-23T15:50:17Z</time>
      </trkpt>
      <trkpt lat="41.606812000" lon="2.534056100">
        <ele>150.60</ele>
        <time>2012-06-23T15:50:19Z</time>
      </trkpt>
      <trkpt lat="41.606796000" lon="2.534163100">
        <ele>148.70</ele>
        <time>2012-06-23T15:50:21Z</time>
      </trkpt>
      <trkpt lat="41.606773000" lon="2.534280100">
        <ele>148.70</ele>
        <time>2012-06-23T15:50:22Z</time>
      </trkpt>
      <trkpt lat="41.606651000" lon="2.534570100">
        <ele>148.70</ele>
        <time>2012-06-23T15:50:28Z</time>
      </trkpt>
      <trkpt lat="41.606598000" lon="2.534772100">
        <ele>148.20</ele>
        <time>2012-06-23T15:50:31Z</time>
      </trkpt>
      <trkpt lat="41.606483000" lon="2.535033100">
        <ele>147.70</ele>
        <time>2012-06-23T15:50:35Z</time>
      </trkpt>
      <trkpt lat="41.606373000" lon="2.535331100">
        <ele>146.30</ele>
        <time>2012-06-23T15:50:38Z</time>
      </trkpt>
      <trkpt lat="41.606110000" lon="2.535866100">
        <ele>142.90</ele>
        <time>2012-06-23T15:50:45Z</time>
      </trkpt>
      <trkpt lat="41.605938000" lon="2.536176100">
        <ele>139.10</ele>
        <time>2012-06-23T15:50:50Z</time>
      </trkpt>
      <trkpt lat="41.605671000" lon="2.536808100">
        <ele>136.20</ele>
        <time>2012-06-23T15:50:57Z</time>
      </trkpt>
      <trkpt lat="41.605515000" lon="2.537233100">
        <ele>136.20</ele>
        <time>2012-06-23T15:51:01Z</time>
      </trkpt>
      <trkpt lat="41.605526000" lon="2.537477100">
        <ele>135.70</ele>
        <time>2012-06-23T15:51:06Z</time>
      </trkpt>
      <trkpt lat="41.605591000" lon="2.537564100">
        <ele>135.20</ele>
        <time>2012-06-23T15:51:08Z</time>
      </trkpt>
      <trkpt lat="41.605827000" lon="2.538014100">
        <ele>135.20</ele>
        <time>2012-06-23T15:51:18Z</time>
      </trkpt>
      <trkpt lat="41.605881000" lon="2.538154100">
        <ele>135.20</ele>
        <time>2012-06-23T15:51:20Z</time>
      </trkpt>
      <trkpt lat="41.605934000" lon="2.538251100">
        <ele>135.20</ele>
        <time>2012-06-23T15:51:23Z</time>
      </trkpt>
      <trkpt lat="41.605984000" lon="2.538382100">
        <ele>135.20</ele>
        <time>2012-06-23T15:51:25Z</time>
      </trkpt>
      <trkpt lat="41.606281000" lon="2.538786100">
        <ele>133.80</ele>
        <time>2012-06-23T15:51:30Z</time>
      </trkpt>
      <trkpt lat="41.606537000" lon="2.538883100">
        <ele>130.90</ele>
        <time>2012-06-23T15:51:34Z</time>
      </trkpt>
      <trkpt lat="41.606640000" lon="2.538867100">
        <ele>130.90</ele>
        <time>2012-06-23T15:51:37Z</time>
      </trkpt>
      <trkpt lat="41.606857000" lon="2.538788100">
        <ele>133.30</ele>
        <time>2012-06-23T15:51:42Z</time>
      </trkpt>
      <trkpt lat="41.606945000" lon="2.538742100">
        <ele>136.60</ele>
        <time>2012-06-23T15:51:46Z</time>
      </trkpt>
      <trkpt lat="41.607159000" lon="2.538662100">
        <ele>138.60</ele>
        <time>2012-06-23T15:51:53Z</time>
      </trkpt>
      <trkpt lat="41.607391000" lon="2.538660100">
        <ele>138.60</ele>
        <time>2012-06-23T15:51:58Z</time>
      </trkpt>
      <trkpt lat="41.607471000" lon="2.538682100">
        <ele>137.10</ele>
        <time>2012-06-23T15:52:00Z</time>
      </trkpt>
      <trkpt lat="41.607666000" lon="2.538736100">
        <ele>137.10</ele>
        <time>2012-06-23T15:52:07Z</time>
      </trkpt>
      <trkpt lat="41.607914000" lon="2.538565100">
        <ele>137.10</ele>
        <time>2012-06-23T15:52:16Z</time>
      </trkpt>
      <trkpt lat="41.608021000" lon="2.538539100">
        <ele>137.10</ele>
        <time>2012-06-23T15:52:19Z</time>
      </trkpt>
      <trkpt lat="41.608231000" lon="2.538611100">
        <ele>137.10</ele>
        <time>2012-06-23T15:52:24Z</time>
      </trkpt>
      <trkpt lat="41.608311000" lon="2.538495100">
        <ele>137.10</ele>
        <time>2012-06-23T15:52:28Z</time>
      </trkpt>
      <trkpt lat="41.608337000" lon="2.538408100">
        <ele>137.60</ele>
        <time>2012-06-23T15:52:30Z</time>
      </trkpt>
      <trkpt lat="41.608425000" lon="2.538374100">
        <ele>138.10</ele>
        <time>2012-06-23T15:52:33Z</time>
      </trkpt>
      <trkpt lat="41.608528000" lon="2.538405100">
        <ele>138.10</ele>
        <time>2012-06-23T15:52:36Z</time>
      </trkpt>
      <trkpt lat="41.608612000" lon="2.538417100">
        <ele>138.10</ele>
        <time>2012-06-23T15:52:38Z</time>
      </trkpt>
      <trkpt lat="41.608746000" lon="2.538469100">
        <ele>138.10</ele>
        <time>2012-06-23T15:52:42Z</time>
      </trkpt>
      <trkpt lat="41.608871000" lon="2.538587100">
        <ele>138.10</ele>
        <time>2012-06-23T15:52:47Z</time>
      </trkpt>
      <trkpt lat="41.608997000" lon="2.538921100">
        <ele>138.10</ele>
        <time>2012-06-23T15:52:54Z</time>
      </trkpt>
      <trkpt lat="41.609154000" lon="2.539352100">
        <ele>138.10</ele>
        <time>2012-06-23T15:53:01Z</time>
      </trkpt>
      <trkpt lat="41.609200000" lon="2.539511100">
        <ele>137.10</ele>
        <time>2012-06-23T15:53:04Z</time>
      </trkpt>
      <trkpt lat="41.609287000" lon="2.539778100">
        <ele>136.60</ele>
        <time>2012-06-23T15:53:11Z</time>
      </trkpt>
      <trkpt lat="41.609398000" lon="2.539772100">
        <ele>136.60</ele>
        <time>2012-06-23T15:53:13Z</time>
      </trkpt>
      <trkpt lat="41.609703000" lon="2.539561100">
        <ele>136.60</ele>
        <time>2012-06-23T15:53:24Z</time>
      </trkpt>
      <trkpt lat="41.610050000" lon="2.539359100">
        <ele>137.60</ele>
        <time>2012-06-23T15:53:34Z</time>
      </trkpt>
      <trkpt lat="41.610256000" lon="2.539224100">
        <ele>138.60</ele>
        <time>2012-06-23T15:53:41Z</time>
      </trkpt>
      <trkpt lat="41.610428000" lon="2.539104100">
        <ele>139.10</ele>
        <time>2012-06-23T15:53:48Z</time>
      </trkpt>
      <trkpt lat="41.610634000" lon="2.539019100">
        <ele>140.00</ele>
        <time>2012-06-23T15:53:53Z</time>
      </trkpt>
      <trkpt lat="41.610851000" lon="2.538879100">
        <ele>140.50</ele>
        <time>2012-06-23T15:54:00Z</time>
      </trkpt>
      <trkpt lat="41.611076000" lon="2.538777100">
        <ele>141.40</ele>
        <time>2012-06-23T15:54:07Z</time>
      </trkpt>
      <trkpt lat="41.611263000" lon="2.538721100">
        <ele>142.90</ele>
        <time>2012-06-23T15:54:14Z</time>
      </trkpt>
      <trkpt lat="41.611496000" lon="2.538690100">
        <ele>143.90</ele>
        <time>2012-06-23T15:54:21Z</time>
      </trkpt>
      <trkpt lat="41.611633000" lon="2.538675100">
        <ele>144.30</ele>
        <time>2012-06-23T15:54:26Z</time>
      </trkpt>
      <trkpt lat="41.611698000" lon="2.538666100">
        <ele>144.80</ele>
        <time>2012-06-23T15:54:28Z</time>
      </trkpt>
      <trkpt lat="41.611797000" lon="2.538810100">
        <ele>145.30</ele>
        <time>2012-06-23T15:54:33Z</time>
      </trkpt>
      <trkpt lat="41.611816000" lon="2.538871100">
        <ele>145.30</ele>
        <time>2012-06-23T15:54:33Z</time>
      </trkpt>
      <trkpt lat="41.611874000" lon="2.539001100">
        <ele>145.30</ele>
        <time>2012-06-23T15:54:37Z</time>
      </trkpt>
      <trkpt lat="41.611969000" lon="2.539027100">
        <ele>145.30</ele>
        <time>2012-06-23T15:54:40Z</time>
      </trkpt>
      <trkpt lat="41.612015000" lon="2.538970100">
        <ele>145.30</ele>
        <time>2012-06-23T15:54:44Z</time>
      </trkpt>
      <trkpt lat="41.612091000" lon="2.538894100">
        <ele>145.30</ele>
        <time>2012-06-23T15:54:47Z</time>
      </trkpt>
      <trkpt lat="41.612175000" lon="2.538797100">
        <ele>144.80</ele>
        <time>2012-06-23T15:54:56Z</time>
      </trkpt>
      <trkpt lat="41.612175000" lon="2.538797100">
        <ele>144.80</ele>
        <time>2012-06-23T15:55:08Z</time>
      </trkpt>
      <trkpt lat="41.612175000" lon="2.538804100">
        <ele>145.80</ele>
        <time>2012-06-23T15:55:41Z</time>
      </trkpt>
      <trkpt lat="41.612171000" lon="2.538807100">
        <ele>145.80</ele>
        <time>2012-06-23T15:56:28Z</time>
      </trkpt>
      <trkpt lat="41.612167000" lon="2.538806100">
        <ele>145.80</ele>
        <time>2012-06-23T15:57:06Z</time>
      </trkpt>
      <trkpt lat="41.612164000" lon="2.538800100">
        <ele>145.80</ele>
        <time>2012-06-23T15:57:43Z</time>
      </trkpt>
      <trkpt lat="41.612152000" lon="2.538800100">
        <ele>145.80</ele>
        <time>2012-06-23T15:58:32Z</time>
      </trkpt>
      <trkpt lat="41.612209000" lon="2.538674100">
        <ele>145.30</ele>
        <time>2012-06-23T15:58:46Z</time>
      </trkpt>
      <trkpt lat="41.612236000" lon="2.538617100">
        <ele>145.30</ele>
        <time>2012-06-23T15:58:47Z</time>
      </trkpt>
      <trkpt lat="41.612377000" lon="2.538381100">
        <ele>145.80</ele>
        <time>2012-06-23T15:58:56Z</time>
      </trkpt>
      <trkpt lat="41.612423000" lon="2.538331100">
        <ele>145.80</ele>
        <time>2012-06-23T15:58:58Z</time>
      </trkpt>
      <trkpt lat="41.612610000" lon="2.538113100">
        <ele>146.30</ele>
        <time>2012-06-23T15:59:05Z</time>
      </trkpt>
      <trkpt lat="41.612858000" lon="2.537830100">
        <ele>147.70</ele>
        <time>2012-06-23T15:59:15Z</time>
      </trkpt>
      <trkpt lat="41.613033000" lon="2.537621100">
        <ele>148.20</ele>
        <time>2012-06-23T15:59:22Z</time>
      </trkpt>
      <trkpt lat="41.613209000" lon="2.537413100">
        <ele>149.10</ele>
        <time>2012-06-23T15:59:29Z</time>
      </trkpt>
      <trkpt lat="41.613388000" lon="2.537149100">
        <ele>150.10</ele>
        <time>2012-06-23T15:59:38Z</time>
      </trkpt>
      <trkpt lat="41.613548000" lon="2.536884100">
        <ele>150.60</ele>
        <time>2012-06-23T15:59:45Z</time>
      </trkpt>
      <trkpt lat="41.613567000" lon="2.536851100">
        <ele>150.60</ele>
        <time>2012-06-23T15:59:47Z</time>
      </trkpt>
      <trkpt lat="41.613716000" lon="2.536834100">
        <ele>151.10</ele>
        <time>2012-06-23T15:59:52Z</time>
      </trkpt>
      <trkpt lat="41.613739000" lon="2.536786100">
        <ele>151.50</ele>
        <time>2012-06-23T15:59:54Z</time>
      </trkpt>
      <trkpt lat="41.613728000" lon="2.536752100">
        <ele>151.50</ele>
        <time>2012-06-23T15:59:55Z</time>
      </trkpt>
      <trkpt lat="41.613678000" lon="2.536506100">
        <ele>152.00</ele>
        <time>2012-06-23T16:00:01Z</time>
      </trkpt>
      <trkpt lat="41.613705000" lon="2.536425100">
        <ele>152.00</ele>
        <time>2012-06-23T16:00:04Z</time>
      </trkpt>
      <trkpt lat="41.613834000" lon="2.536127100">
        <ele>153.00</ele>
        <time>2012-06-23T16:00:11Z</time>
      </trkpt>
      <trkpt lat="41.613941000" lon="2.535809100">
        <ele>153.90</ele>
        <time>2012-06-23T16:00:20Z</time>
      </trkpt>
      <trkpt lat="41.614082000" lon="2.535430100">
        <ele>154.90</ele>
        <time>2012-06-23T16:00:29Z</time>
      </trkpt>
      <trkpt lat="41.614216000" lon="2.534979100">
        <ele>156.40</ele>
        <time>2012-06-23T16:00:39Z</time>
      </trkpt>
      <trkpt lat="41.614365000" lon="2.534550100">
        <ele>157.80</ele>
        <time>2012-06-23T16:00:51Z</time>
      </trkpt>
      <trkpt lat="41.614437000" lon="2.534222100">
        <ele>158.80</ele>
        <time>2012-06-23T16:00:58Z</time>
      </trkpt>
      <trkpt lat="41.614555000" lon="2.533918100">
        <ele>160.20</ele>
        <time>2012-06-23T16:01:07Z</time>
      </trkpt>
      <trkpt lat="41.614670000" lon="2.533512100">
        <ele>161.60</ele>
        <time>2012-06-23T16:01:17Z</time>
      </trkpt>
      <trkpt lat="41.614792000" lon="2.533139100">
        <ele>162.60</ele>
        <time>2012-06-23T16:01:26Z</time>
      </trkpt>
      <trkpt lat="41.614918000" lon="2.532720100">
        <ele>163.60</ele>
        <time>2012-06-23T16:01:35Z</time>
      </trkpt>
      <trkpt lat="41.615028000" lon="2.532352100">
        <ele>164.50</ele>
        <time>2012-06-23T16:01:45Z</time>
      </trkpt>
      <trkpt lat="41.615093000" lon="2.531976100">
        <ele>165.50</ele>
        <time>2012-06-23T16:01:54Z</time>
      </trkpt>
      <trkpt lat="41.615147000" lon="2.531459100">
        <ele>166.90</ele>
        <time>2012-06-23T16:02:06Z</time>
      </trkpt>
      <trkpt lat="41.615162000" lon="2.531112100">
        <ele>167.40</ele>
        <time>2012-06-23T16:02:13Z</time>
      </trkpt>
      <trkpt lat="41.615208000" lon="2.530686100">
        <ele>168.40</ele>
        <time>2012-06-23T16:02:24Z</time>
      </trkpt>
      <trkpt lat="41.615211000" lon="2.530219100">
        <ele>169.80</ele>
        <time>2012-06-23T16:02:34Z</time>
      </trkpt>
      <trkpt lat="41.615219000" lon="2.529925100">
        <ele>171.20</ele>
        <time>2012-06-23T16:02:41Z</time>
      </trkpt>
      <trkpt lat="41.615223000" lon="2.529546100">
        <ele>172.20</ele>
        <time>2012-06-23T16:02:50Z</time>
      </trkpt>
      <trkpt lat="41.615242000" lon="2.529132100">
        <ele>173.70</ele>
        <time>2012-06-23T16:03:00Z</time>
      </trkpt>
      <trkpt lat="41.615311000" lon="2.528710100">
        <ele>174.60</ele>
        <time>2012-06-23T16:03:11Z</time>
      </trkpt>
      <trkpt lat="41.615391000" lon="2.528338100">
        <ele>175.60</ele>
        <time>2012-06-23T16:03:19Z</time>
      </trkpt>
      <trkpt lat="41.615463000" lon="2.527995100">
        <ele>176.10</ele>
        <time>2012-06-23T16:03:28Z</time>
      </trkpt>
      <trkpt lat="41.615532000" lon="2.527623100">
        <ele>177.00</ele>
        <time>2012-06-23T16:03:37Z</time>
      </trkpt>
      <trkpt lat="41.615582000" lon="2.527398100">
        <ele>178.00</ele>
        <time>2012-06-23T16:03:42Z</time>
      </trkpt>
      <trkpt lat="41.615635000" lon="2.527113100">
        <ele>178.90</ele>
        <time>2012-06-23T16:03:49Z</time>
      </trkpt>
      <trkpt lat="41.615646000" lon="2.526834100">
        <ele>179.90</ele>
        <time>2012-06-23T16:03:56Z</time>
      </trkpt>
      <trkpt lat="41.615612000" lon="2.526555100">
        <ele>181.40</ele>
        <time>2012-06-23T16:04:03Z</time>
      </trkpt>
      <trkpt lat="41.615574000" lon="2.526141100">
        <ele>182.30</ele>
        <time>2012-06-23T16:04:13Z</time>
      </trkpt>
      <trkpt lat="41.615559000" lon="2.525727100">
        <ele>184.20</ele>
        <time>2012-06-23T16:04:24Z</time>
      </trkpt>
      <trkpt lat="41.615555000" lon="2.525391100">
        <ele>184.70</ele>
        <time>2012-06-23T16:04:31Z</time>
      </trkpt>
      <trkpt lat="41.615578000" lon="2.525051100">
        <ele>185.70</ele>
        <time>2012-06-23T16:04:39Z</time>
      </trkpt>
      <trkpt lat="41.615601000" lon="2.524802100">
        <ele>186.10</ele>
        <time>2012-06-23T16:04:46Z</time>
      </trkpt>
      <trkpt lat="41.615631000" lon="2.524530100">
        <ele>187.10</ele>
        <time>2012-06-23T16:04:53Z</time>
      </trkpt>
      <trkpt lat="41.615643000" lon="2.524333100">
        <ele>187.60</ele>
        <time>2012-06-23T16:04:57Z</time>
      </trkpt>
      <trkpt lat="41.615738000" lon="2.524135100">
        <ele>188.10</ele>
        <time>2012-06-23T16:05:02Z</time>
      </trkpt>
      <trkpt lat="41.615883000" lon="2.523811100">
        <ele>188.10</ele>
        <time>2012-06-23T16:05:11Z</time>
      </trkpt>
      <trkpt lat="41.615997000" lon="2.523569100">
        <ele>189.00</ele>
        <time>2012-06-23T16:05:18Z</time>
      </trkpt>
      <trkpt lat="41.616253000" lon="2.523057100">
        <ele>190.00</ele>
        <time>2012-06-23T16:05:30Z</time>
      </trkpt>
      <trkpt lat="41.616447000" lon="2.522898100">
        <ele>191.00</ele>
        <time>2012-06-23T16:05:37Z</time>
      </trkpt>
      <trkpt lat="41.616753000" lon="2.522717100">
        <ele>192.90</ele>
        <time>2012-06-23T16:05:47Z</time>
      </trkpt>
      <trkpt lat="41.616955000" lon="2.522573100">
        <ele>193.40</ele>
        <time>2012-06-23T16:05:54Z</time>
      </trkpt>
      <trkpt lat="41.617268000" lon="2.522420100">
        <ele>194.80</ele>
        <time>2012-06-23T16:06:05Z</time>
      </trkpt>
      <trkpt lat="41.617527000" lon="2.522328100">
        <ele>196.20</ele>
        <time>2012-06-23T16:06:15Z</time>
      </trkpt>
      <trkpt lat="41.617607000" lon="2.522306100">
        <ele>196.70</ele>
        <time>2012-06-23T16:06:17Z</time>
      </trkpt>
      <trkpt lat="41.617615000" lon="2.522168100">
        <ele>197.70</ele>
        <time>2012-06-23T16:06:24Z</time>
      </trkpt>
      <trkpt lat="41.617550000" lon="2.522032100">
        <ele>198.60</ele>
        <time>2012-06-23T16:06:29Z</time>
      </trkpt>
      <trkpt lat="41.617580000" lon="2.521827100">
        <ele>200.10</ele>
        <time>2012-06-23T16:06:36Z</time>
      </trkpt>
      <trkpt lat="41.617615000" lon="2.521701100">
        <ele>201.50</ele>
        <time>2012-06-23T16:06:43Z</time>
      </trkpt>
      <trkpt lat="41.617626000" lon="2.521610100">
        <ele>204.40</ele>
        <time>2012-06-23T16:06:48Z</time>
      </trkpt>
      <trkpt lat="41.617630000" lon="2.521529100">
        <ele>207.80</ele>
        <time>2012-06-23T16:06:52Z</time>
      </trkpt>
      <trkpt lat="41.617615000" lon="2.521332100">
        <ele>208.30</ele>
        <time>2012-06-23T16:07:00Z</time>
      </trkpt>
      <trkpt lat="41.617535000" lon="2.521138100">
        <ele>208.70</ele>
        <time>2012-06-23T16:07:11Z</time>
      </trkpt>
      <trkpt lat="41.617474000" lon="2.520948100">
        <ele>210.20</ele>
        <time>2012-06-23T16:07:20Z</time>
      </trkpt>
      <trkpt lat="41.617477000" lon="2.520782100">
        <ele>211.60</ele>
        <time>2012-06-23T16:07:28Z</time>
      </trkpt>
      <trkpt lat="41.617573000" lon="2.520671100">
        <ele>212.60</ele>
        <time>2012-06-23T16:07:35Z</time>
      </trkpt>
      <trkpt lat="41.617641000" lon="2.520675100">
        <ele>213.10</ele>
        <time>2012-06-23T16:07:39Z</time>
      </trkpt>
      <trkpt lat="41.617710000" lon="2.520851100">
        <ele>214.50</ele>
        <time>2012-06-23T16:07:49Z</time>
      </trkpt>
      <trkpt lat="41.617767000" lon="2.521022100">
        <ele>215.50</ele>
        <time>2012-06-23T16:07:58Z</time>
      </trkpt>
      <trkpt lat="41.617817000" lon="2.521194100">
        <ele>216.90</ele>
        <time>2012-06-23T16:08:05Z</time>
      </trkpt>
      <trkpt lat="41.617855000" lon="2.521379100">
        <ele>217.40</ele>
        <time>2012-06-23T16:08:14Z</time>
      </trkpt>
      <trkpt lat="41.617897000" lon="2.521540100">
        <ele>218.40</ele>
        <time>2012-06-23T16:08:22Z</time>
      </trkpt>
      <trkpt lat="41.617992000" lon="2.521589100">
        <ele>219.30</ele>
        <time>2012-06-23T16:08:29Z</time>
      </trkpt>
      <trkpt lat="41.618008000" lon="2.521561100">
        <ele>219.80</ele>
        <time>2012-06-23T16:08:31Z</time>
      </trkpt>
      <trkpt lat="41.618061000" lon="2.521430100">
        <ele>221.20</ele>
        <time>2012-06-23T16:08:38Z</time>
      </trkpt>
      <trkpt lat="41.618153000" lon="2.521249100">
        <ele>223.60</ele>
        <time>2012-06-23T16:08:50Z</time>
      </trkpt>
      <trkpt lat="41.618259000" lon="2.521054100">
        <ele>226.50</ele>
        <time>2012-06-23T16:09:01Z</time>
      </trkpt>
      <trkpt lat="41.618328000" lon="2.520830100">
        <ele>228.90</ele>
        <time>2012-06-23T16:09:13Z</time>
      </trkpt>
      <trkpt lat="41.618408000" lon="2.520676100">
        <ele>230.90</ele>
        <time>2012-06-23T16:09:23Z</time>
      </trkpt>
      <trkpt lat="41.618526000" lon="2.520600100">
        <ele>232.30</ele>
        <time>2012-06-23T16:09:32Z</time>
      </trkpt>
      <trkpt lat="41.618526000" lon="2.520600100">
        <ele>232.30</ele>
        <time>2012-06-23T16:10:05Z</time>
      </trkpt>
      <trkpt lat="41.618526000" lon="2.520598100">
        <ele>233.70</ele>
        <time>2012-06-23T16:10:12Z</time>
      </trkpt>
      <trkpt lat="41.618603000" lon="2.520572100">
        <ele>234.20</ele>
        <time>2012-06-23T16:10:19Z</time>
      </trkpt>
      <trkpt lat="41.618725000" lon="2.520540100">
        <ele>235.70</ele>
        <time>2012-06-23T16:10:26Z</time>
      </trkpt>
      <trkpt lat="41.618839000" lon="2.520505100">
        <ele>236.60</ele>
        <time>2012-06-23T16:10:33Z</time>
      </trkpt>
      <trkpt lat="41.618996000" lon="2.520421100">
        <ele>238.10</ele>
        <time>2012-06-23T16:10:45Z</time>
      </trkpt>
      <trkpt lat="41.619141000" lon="2.520359100">
        <ele>240.00</ele>
        <time>2012-06-23T16:10:54Z</time>
      </trkpt>
      <trkpt lat="41.619244000" lon="2.520308100">
        <ele>240.90</ele>
        <time>2012-06-23T16:11:01Z</time>
      </trkpt>
      <trkpt lat="41.619362000" lon="2.520324100">
        <ele>242.90</ele>
        <time>2012-06-23T16:11:10Z</time>
      </trkpt>
      <trkpt lat="41.619465000" lon="2.520353100">
        <ele>245.80</ele>
        <time>2012-06-23T16:11:18Z</time>
      </trkpt>
      <trkpt lat="41.619534000" lon="2.520344100">
        <ele>249.10</ele>
        <time>2012-06-23T16:11:22Z</time>
      </trkpt>
      <trkpt lat="41.619579000" lon="2.520327100">
        <ele>250.10</ele>
        <time>2012-06-23T16:11:27Z</time>
      </trkpt>
      <trkpt lat="41.619617000" lon="2.520321100">
        <ele>250.10</ele>
        <time>2012-06-23T16:11:29Z</time>
      </trkpt>
      <trkpt lat="41.619736000" lon="2.520285100">
        <ele>250.10</ele>
        <time>2012-06-23T16:11:39Z</time>
      </trkpt>
      <trkpt lat="41.619862000" lon="2.520223100">
        <ele>251.50</ele>
        <time>2012-06-23T16:11:48Z</time>
      </trkpt>
      <trkpt lat="41.619999000" lon="2.520152100">
        <ele>253.40</ele>
        <time>2012-06-23T16:11:57Z</time>
      </trkpt>
      <trkpt lat="41.620064000" lon="2.520119100">
        <ele>254.90</ele>
        <time>2012-06-23T16:12:00Z</time>
      </trkpt>
      <trkpt lat="41.620232000" lon="2.520114100">
        <ele>256.30</ele>
        <time>2012-06-23T16:12:12Z</time>
      </trkpt>
      <trkpt lat="41.620323000" lon="2.520133100">
        <ele>257.80</ele>
        <time>2012-06-23T16:12:19Z</time>
      </trkpt>
      <trkpt lat="41.620377000" lon="2.520144100">
        <ele>258.20</ele>
        <time>2012-06-23T16:12:23Z</time>
      </trkpt>
      <trkpt lat="41.620502000" lon="2.520159100">
        <ele>259.70</ele>
        <time>2012-06-23T16:12:31Z</time>
      </trkpt>
      <trkpt lat="41.620548000" lon="2.520154100">
        <ele>260.20</ele>
        <time>2012-06-23T16:12:35Z</time>
      </trkpt>
      <trkpt lat="41.620686000" lon="2.520167100">
        <ele>262.10</ele>
        <time>2012-06-23T16:12:45Z</time>
      </trkpt>
      <trkpt lat="41.620876000" lon="2.520208100">
        <ele>264.50</ele>
        <time>2012-06-23T16:12:56Z</time>
      </trkpt>
      <trkpt lat="41.620972000" lon="2.520228100">
        <ele>265.00</ele>
        <time>2012-06-23T16:13:01Z</time>
      </trkpt>
      <trkpt lat="41.621105000" lon="2.520253100">
        <ele>266.90</ele>
        <time>2012-06-23T16:13:10Z</time>
      </trkpt>
      <trkpt lat="41.621185000" lon="2.520277100">
        <ele>267.40</ele>
        <time>2012-06-23T16:13:15Z</time>
      </trkpt>
      <trkpt lat="41.621243000" lon="2.520269100">
        <ele>267.90</ele>
        <time>2012-06-23T16:13:18Z</time>
      </trkpt>
      <trkpt lat="41.621368000" lon="2.520271100">
        <ele>269.30</ele>
        <time>2012-06-23T16:13:27Z</time>
      </trkpt>
      <trkpt lat="41.621490000" lon="2.520312100">
        <ele>271.20</ele>
        <time>2012-06-23T16:13:34Z</time>
      </trkpt>
      <trkpt lat="41.621601000" lon="2.520371100">
        <ele>272.20</ele>
        <time>2012-06-23T16:13:41Z</time>
      </trkpt>
      <trkpt lat="41.621746000" lon="2.520396100">
        <ele>276.00</ele>
        <time>2012-06-23T16:13:50Z</time>
      </trkpt>
      <trkpt lat="41.621803000" lon="2.520408100">
        <ele>279.40</ele>
        <time>2012-06-23T16:13:55Z</time>
      </trkpt>
      <trkpt lat="41.621838000" lon="2.520413100">
        <ele>280.40</ele>
        <time>2012-06-23T16:13:57Z</time>
      </trkpt>
      <trkpt lat="41.621979000" lon="2.520429100">
        <ele>281.30</ele>
        <time>2012-06-23T16:14:06Z</time>
      </trkpt>
      <trkpt lat="41.621994000" lon="2.520432100">
        <ele>281.30</ele>
        <time>2012-06-23T16:14:07Z</time>
      </trkpt>
      <trkpt lat="41.622032000" lon="2.520421100">
        <ele>281.30</ele>
        <time>2012-06-23T16:14:09Z</time>
      </trkpt>
      <trkpt lat="41.622112000" lon="2.520415100">
        <ele>282.30</ele>
        <time>2012-06-23T16:14:16Z</time>
      </trkpt>
      <trkpt lat="41.622223000" lon="2.520358100">
        <ele>283.20</ele>
        <time>2012-06-23T16:14:25Z</time>
      </trkpt>
      <trkpt lat="41.622360000" lon="2.520343100">
        <ele>285.20</ele>
        <time>2012-06-23T16:14:33Z</time>
      </trkpt>
      <trkpt lat="41.622478000" lon="2.520393100">
        <ele>286.60</ele>
        <time>2012-06-23T16:14:40Z</time>
      </trkpt>
      <trkpt lat="41.622467000" lon="2.520454100">
        <ele>287.10</ele>
        <time>2012-06-23T16:14:44Z</time>
      </trkpt>
      <trkpt lat="41.622433000" lon="2.520477100">
        <ele>288.00</ele>
        <time>2012-06-23T16:14:47Z</time>
      </trkpt>
      <trkpt lat="41.622375000" lon="2.520486100">
        <ele>288.50</ele>
        <time>2012-06-23T16:14:51Z</time>
      </trkpt>
      <trkpt lat="41.622265000" lon="2.520532100">
        <ele>290.00</ele>
        <time>2012-06-23T16:15:01Z</time>
      </trkpt>
      <trkpt lat="41.622250000" lon="2.520552100">
        <ele>290.00</ele>
        <time>2012-06-23T16:15:03Z</time>
      </trkpt>
      <trkpt lat="41.622189000" lon="2.520606100">
        <ele>290.90</ele>
        <time>2012-06-23T16:15:08Z</time>
      </trkpt>
      <trkpt lat="41.622074000" lon="2.520686100">
        <ele>292.90</ele>
        <time>2012-06-23T16:15:17Z</time>
      </trkpt>
      <trkpt lat="41.621975000" lon="2.520781100">
        <ele>294.80</ele>
        <time>2012-06-23T16:15:26Z</time>
      </trkpt>
      <trkpt lat="41.621891000" lon="2.520858100">
        <ele>296.20</ele>
        <time>2012-06-23T16:15:34Z</time>
      </trkpt>
      <trkpt lat="41.621792000" lon="2.520932100">
        <ele>297.20</ele>
        <time>2012-06-23T16:15:43Z</time>
      </trkpt>
      <trkpt lat="41.621655000" lon="2.520950100">
        <ele>297.70</ele>
        <time>2012-06-23T16:15:50Z</time>
      </trkpt>
      <trkpt lat="41.621506000" lon="2.520913100">
        <ele>298.60</ele>
        <time>2012-06-23T16:16:00Z</time>
      </trkpt>
      <trkpt lat="41.621368000" lon="2.520924100">
        <ele>300.10</ele>
        <time>2012-06-23T16:16:09Z</time>
      </trkpt>
      <trkpt lat="41.621227000" lon="2.520959100">
        <ele>300.50</ele>
        <time>2012-06-23T16:16:20Z</time>
      </trkpt>
      <trkpt lat="41.621147000" lon="2.520986100">
        <ele>301.00</ele>
        <time>2012-06-23T16:16:25Z</time>
      </trkpt>
      <trkpt lat="41.621159000" lon="2.521086100">
        <ele>302.00</ele>
        <time>2012-06-23T16:16:32Z</time>
      </trkpt>
      <trkpt lat="41.621185000" lon="2.521087100">
        <ele>302.00</ele>
        <time>2012-06-23T16:16:35Z</time>
      </trkpt>
      <trkpt lat="41.621204000" lon="2.521083100">
        <ele>302.00</ele>
        <time>2012-06-23T16:16:37Z</time>
      </trkpt>
      <trkpt lat="41.621288000" lon="2.521102100">
        <ele>303.90</ele>
        <time>2012-06-23T16:16:44Z</time>
      </trkpt>
      <trkpt lat="41.621304000" lon="2.521117100">
        <ele>303.90</ele>
        <time>2012-06-23T16:16:46Z</time>
      </trkpt>
      <trkpt lat="41.621338000" lon="2.521171100">
        <ele>304.90</ele>
        <time>2012-06-23T16:16:51Z</time>
      </trkpt>
      <trkpt lat="41.621395000" lon="2.521286100">
        <ele>306.80</ele>
        <time>2012-06-23T16:17:00Z</time>
      </trkpt>
      <trkpt lat="41.621471000" lon="2.521395100">
        <ele>308.20</ele>
        <time>2012-06-23T16:17:07Z</time>
      </trkpt>
      <trkpt lat="41.621563000" lon="2.521536100">
        <ele>309.70</ele>
        <time>2012-06-23T16:17:17Z</time>
      </trkpt>
      <trkpt lat="41.621647000" lon="2.521652100">
        <ele>311.10</ele>
        <time>2012-06-23T16:17:24Z</time>
      </trkpt>
      <trkpt lat="41.621727000" lon="2.521777100">
        <ele>312.10</ele>
        <time>2012-06-23T16:17:33Z</time>
      </trkpt>
      <trkpt lat="41.621784000" lon="2.521914100">
        <ele>314.00</ele>
        <time>2012-06-23T16:17:40Z</time>
      </trkpt>
      <trkpt lat="41.621861000" lon="2.522077100">
        <ele>315.50</ele>
        <time>2012-06-23T16:17:48Z</time>
      </trkpt>
      <trkpt lat="41.621880000" lon="2.522153100">
        <ele>316.40</ele>
        <time>2012-06-23T16:17:52Z</time>
      </trkpt>
      <trkpt lat="41.621902000" lon="2.522197100">
        <ele>316.90</ele>
        <time>2012-06-23T16:17:55Z</time>
      </trkpt>
      <trkpt lat="41.621971000" lon="2.522243100">
        <ele>317.90</ele>
        <time>2012-06-23T16:18:02Z</time>
      </trkpt>
      <trkpt lat="41.621983000" lon="2.522198100">
        <ele>318.30</ele>
        <time>2012-06-23T16:18:06Z</time>
      </trkpt>
      <trkpt lat="41.621964000" lon="2.522087100">
        <ele>319.30</ele>
        <time>2012-06-23T16:18:13Z</time>
      </trkpt>
      <trkpt lat="41.621967000" lon="2.521958100">
        <ele>321.20</ele>
        <time>2012-06-23T16:18:22Z</time>
      </trkpt>
      <trkpt lat="41.621990000" lon="2.521814100">
        <ele>322.20</ele>
        <time>2012-06-23T16:18:29Z</time>
      </trkpt>
      <trkpt lat="41.622032000" lon="2.521647100">
        <ele>323.10</ele>
        <time>2012-06-23T16:18:37Z</time>
      </trkpt>
      <trkpt lat="41.622116000" lon="2.521559100">
        <ele>324.10</ele>
        <time>2012-06-23T16:18:46Z</time>
      </trkpt>
      <trkpt lat="41.622219000" lon="2.521538100">
        <ele>326.00</ele>
        <time>2012-06-23T16:18:53Z</time>
      </trkpt>
      <trkpt lat="41.622330000" lon="2.521621100">
        <ele>327.00</ele>
        <time>2012-06-23T16:19:02Z</time>
      </trkpt>
      <trkpt lat="41.622429000" lon="2.521691100">
        <ele>328.00</ele>
        <time>2012-06-23T16:19:10Z</time>
      </trkpt>
      <trkpt lat="41.622543000" lon="2.521780100">
        <ele>329.40</ele>
        <time>2012-06-23T16:19:21Z</time>
      </trkpt>
      <trkpt lat="41.622669000" lon="2.521831100">
        <ele>331.30</ele>
        <time>2012-06-23T16:19:28Z</time>
      </trkpt>
      <trkpt lat="41.622814000" lon="2.521841100">
        <ele>332.30</ele>
        <time>2012-06-23T16:19:38Z</time>
      </trkpt>
      <trkpt lat="41.622917000" lon="2.521833100">
        <ele>333.20</ele>
        <time>2012-06-23T16:19:45Z</time>
      </trkpt>
      <trkpt lat="41.622993000" lon="2.521829100">
        <ele>334.20</ele>
        <time>2012-06-23T16:19:49Z</time>
      </trkpt>
      <trkpt lat="41.623150000" lon="2.521796100">
        <ele>335.60</ele>
        <time>2012-06-23T16:19:59Z</time>
      </trkpt>
      <trkpt lat="41.623249000" lon="2.521878100">
        <ele>336.60</ele>
        <time>2012-06-23T16:20:06Z</time>
      </trkpt>
      <trkpt lat="41.623356000" lon="2.522006100">
        <ele>337.60</ele>
        <time>2012-06-23T16:20:15Z</time>
      </trkpt>
      <trkpt lat="41.623371000" lon="2.522017100">
        <ele>337.60</ele>
        <time>2012-06-23T16:20:17Z</time>
      </trkpt>
      <trkpt lat="41.623409000" lon="2.522079100">
        <ele>338.00</ele>
        <time>2012-06-23T16:20:20Z</time>
      </trkpt>
      <trkpt lat="41.623577000" lon="2.522242100">
        <ele>339.00</ele>
        <time>2012-06-23T16:20:32Z</time>
      </trkpt>
      <trkpt lat="41.623688000" lon="2.522339100">
        <ele>340.00</ele>
        <time>2012-06-23T16:20:39Z</time>
      </trkpt>
      <trkpt lat="41.623814000" lon="2.522453100">
        <ele>340.40</ele>
        <time>2012-06-23T16:20:46Z</time>
      </trkpt>
      <trkpt lat="41.623962000" lon="2.522624100">
        <ele>340.90</ele>
        <time>2012-06-23T16:20:53Z</time>
      </trkpt>
      <trkpt lat="41.624050000" lon="2.522790100">
        <ele>341.90</ele>
        <time>2012-06-23T16:21:02Z</time>
      </trkpt>
      <trkpt lat="41.624046000" lon="2.522788100">
        <ele>341.90</ele>
        <time>2012-06-23T16:21:14Z</time>
      </trkpt>
      <trkpt lat="41.624050000" lon="2.522785100">
        <ele>341.90</ele>
        <time>2012-06-23T16:21:30Z</time>
      </trkpt>
      <trkpt lat="41.624050000" lon="2.522784100">
        <ele>342.40</ele>
        <time>2012-06-23T16:21:51Z</time>
      </trkpt>
      <trkpt lat="41.624084000" lon="2.522880100">
        <ele>342.40</ele>
        <time>2012-06-23T16:21:56Z</time>
      </trkpt>
      <trkpt lat="41.624203000" lon="2.523196100">
        <ele>342.40</ele>
        <time>2012-06-23T16:22:06Z</time>
      </trkpt>
      <trkpt lat="41.624283000" lon="2.523488100">
        <ele>342.90</ele>
        <time>2012-06-23T16:22:15Z</time>
      </trkpt>
      <trkpt lat="41.624393000" lon="2.523751100">
        <ele>344.30</ele>
        <time>2012-06-23T16:22:24Z</time>
      </trkpt>
      <trkpt lat="41.624508000" lon="2.523983100">
        <ele>345.70</ele>
        <time>2012-06-23T16:22:31Z</time>
      </trkpt>
      <trkpt lat="41.624622000" lon="2.524268100">
        <ele>347.60</ele>
        <time>2012-06-23T16:22:41Z</time>
      </trkpt>
      <trkpt lat="41.624706000" lon="2.524480100">
        <ele>348.60</ele>
        <time>2012-06-23T16:22:48Z</time>
      </trkpt>
      <trkpt lat="41.624825000" lon="2.524812100">
        <ele>350.50</ele>
        <time>2012-06-23T16:22:59Z</time>
      </trkpt>
      <trkpt lat="41.624966000" lon="2.525114100">
        <ele>352.00</ele>
        <time>2012-06-23T16:23:09Z</time>
      </trkpt>
      <trkpt lat="41.625153000" lon="2.525342100">
        <ele>352.50</ele>
        <time>2012-06-23T16:23:18Z</time>
      </trkpt>
      <trkpt lat="41.625317000" lon="2.525557100">
        <ele>352.90</ele>
        <time>2012-06-23T16:23:25Z</time>
      </trkpt>
      <trkpt lat="41.625473000" lon="2.525819100">
        <ele>353.90</ele>
        <time>2012-06-23T16:23:35Z</time>
      </trkpt>
      <trkpt lat="41.625671000" lon="2.526080100">
        <ele>353.90</ele>
        <time>2012-06-23T16:23:42Z</time>
      </trkpt>
      <trkpt lat="41.625847000" lon="2.526201100">
        <ele>353.90</ele>
        <time>2012-06-23T16:23:47Z</time>
      </trkpt>
      <trkpt lat="41.626060000" lon="2.526388100">
        <ele>353.90</ele>
        <time>2012-06-23T16:23:54Z</time>
      </trkpt>
      <trkpt lat="41.626213000" lon="2.526628100">
        <ele>354.40</ele>
        <time>2012-06-23T16:24:03Z</time>
      </trkpt>
      <trkpt lat="41.626247000" lon="2.526687100">
        <ele>354.40</ele>
        <time>2012-06-23T16:24:05Z</time>
      </trkpt>
      <trkpt lat="41.626320000" lon="2.526677100">
        <ele>354.90</ele>
        <time>2012-06-23T16:24:10Z</time>
      </trkpt>
      <trkpt lat="41.626312000" lon="2.526626100">
        <ele>355.30</ele>
        <time>2012-06-23T16:24:12Z</time>
      </trkpt>
      <trkpt lat="41.626236000" lon="2.526469100">
        <ele>356.80</ele>
        <time>2012-06-23T16:24:22Z</time>
      </trkpt>
      <trkpt lat="41.626209000" lon="2.526267100">
        <ele>358.70</ele>
        <time>2012-06-23T16:24:31Z</time>
      </trkpt>
      <trkpt lat="41.626102000" lon="2.526104100">
        <ele>360.60</ele>
        <time>2012-06-23T16:24:41Z</time>
      </trkpt>
      <trkpt lat="41.625996000" lon="2.525956100">
        <ele>362.50</ele>
        <time>2012-06-23T16:24:52Z</time>
      </trkpt>
      <trkpt lat="41.625900000" lon="2.525834100">
        <ele>365.90</ele>
        <time>2012-06-23T16:25:00Z</time>
      </trkpt>
      <trkpt lat="41.625866000" lon="2.525797100">
        <ele>369.30</ele>
        <time>2012-06-23T16:25:04Z</time>
      </trkpt>
      <trkpt lat="41.625797000" lon="2.525675100">
        <ele>371.70</ele>
        <time>2012-06-23T16:25:13Z</time>
      </trkpt>
      <trkpt lat="41.625790000" lon="2.525593100">
        <ele>371.70</ele>
        <time>2012-06-23T16:25:21Z</time>
      </trkpt>
      <trkpt lat="41.625786000" lon="2.525578100">
        <ele>371.70</ele>
        <time>2012-06-23T16:25:28Z</time>
      </trkpt>
      <trkpt lat="41.625767000" lon="2.525479100">
        <ele>372.60</ele>
        <time>2012-06-23T16:25:37Z</time>
      </trkpt>
      <trkpt lat="41.625729000" lon="2.525416100">
        <ele>373.10</ele>
        <time>2012-06-23T16:25:44Z</time>
      </trkpt>
      <trkpt lat="41.625626000" lon="2.525227100">
        <ele>374.10</ele>
        <time>2012-06-23T16:25:54Z</time>
      </trkpt>
      <trkpt lat="41.625561000" lon="2.525018100">
        <ele>375.50</ele>
        <time>2012-06-23T16:26:05Z</time>
      </trkpt>
      <trkpt lat="41.625504000" lon="2.524798100">
        <ele>377.90</ele>
        <time>2012-06-23T16:26:17Z</time>
      </trkpt>
      <trkpt lat="41.625427000" lon="2.524622100">
        <ele>379.40</ele>
        <time>2012-06-23T16:26:28Z</time>
      </trkpt>
      <trkpt lat="41.625355000" lon="2.524476100">
        <ele>380.30</ele>
        <time>2012-06-23T16:26:36Z</time>
      </trkpt>
      <trkpt lat="41.625275000" lon="2.524248100">
        <ele>381.30</ele>
        <time>2012-06-23T16:26:45Z</time>
      </trkpt>
      <trkpt lat="41.625195000" lon="2.523985100">
        <ele>381.80</ele>
        <time>2012-06-23T16:26:52Z</time>
      </trkpt>
      <trkpt lat="41.625130000" lon="2.523612100">
        <ele>381.80</ele>
        <time>2012-06-23T16:27:02Z</time>
      </trkpt>
      <trkpt lat="41.624958000" lon="2.523316100">
        <ele>382.30</ele>
        <time>2012-06-23T16:27:11Z</time>
      </trkpt>
      <trkpt lat="41.624886000" lon="2.523189100">
        <ele>382.30</ele>
        <time>2012-06-23T16:27:16Z</time>
      </trkpt>
      <trkpt lat="41.624828000" lon="2.523044100">
        <ele>382.30</ele>
        <time>2012-06-23T16:27:23Z</time>
      </trkpt>
      <trkpt lat="41.624672000" lon="2.522807100">
        <ele>381.80</ele>
        <time>2012-06-23T16:27:27Z</time>
      </trkpt>
      <trkpt lat="41.624496000" lon="2.522547100">
        <ele>379.40</ele>
        <time>2012-06-23T16:27:32Z</time>
      </trkpt>
      <trkpt lat="41.624416000" lon="2.522235100">
        <ele>375.00</ele>
        <time>2012-06-23T16:27:37Z</time>
      </trkpt>
      <trkpt lat="41.624416000" lon="2.522170100">
        <ele>374.10</ele>
        <time>2012-06-23T16:27:39Z</time>
      </trkpt>
      <trkpt lat="41.624439000" lon="2.521877100">
        <ele>371.20</ele>
        <time>2012-06-23T16:27:42Z</time>
      </trkpt>
      <trkpt lat="41.624596000" lon="2.521608100">
        <ele>370.20</ele>
        <time>2012-06-23T16:27:46Z</time>
      </trkpt>
      <trkpt lat="41.624783000" lon="2.521513100">
        <ele>369.80</ele>
        <time>2012-06-23T16:27:49Z</time>
      </trkpt>
      <trkpt lat="41.624966000" lon="2.521466100">
        <ele>369.80</ele>
        <time>2012-06-23T16:27:53Z</time>
      </trkpt>
      <trkpt lat="41.625172000" lon="2.521314100">
        <ele>369.80</ele>
        <time>2012-06-23T16:27:58Z</time>
      </trkpt>
      <trkpt lat="41.625267000" lon="2.521247100">
        <ele>369.80</ele>
        <time>2012-06-23T16:28:03Z</time>
      </trkpt>
      <trkpt lat="41.625370000" lon="2.521151100">
        <ele>369.80</ele>
        <time>2012-06-23T16:28:10Z</time>
      </trkpt>
      <trkpt lat="41.625473000" lon="2.521097100">
        <ele>371.20</ele>
        <time>2012-06-23T16:28:17Z</time>
      </trkpt>
      <trkpt lat="41.625568000" lon="2.520926100">
        <ele>372.20</ele>
        <time>2012-06-23T16:28:26Z</time>
      </trkpt>
      <trkpt lat="41.625515000" lon="2.520774100">
        <ele>373.10</ele>
        <time>2012-06-23T16:28:31Z</time>
      </trkpt>
      <trkpt lat="41.625458000" lon="2.520593100">
        <ele>374.10</ele>
        <time>2012-06-23T16:28:40Z</time>
      </trkpt>
      <trkpt lat="41.625443000" lon="2.520435100">
        <ele>375.50</ele>
        <time>2012-06-23T16:28:47Z</time>
      </trkpt>
      <trkpt lat="41.625427000" lon="2.520239100">
        <ele>376.50</ele>
        <time>2012-06-23T16:28:54Z</time>
      </trkpt>
      <trkpt lat="41.625393000" lon="2.520052100">
        <ele>377.50</ele>
        <time>2012-06-23T16:29:03Z</time>
      </trkpt>
      <trkpt lat="41.625446000" lon="2.519873100">
        <ele>377.90</ele>
        <time>2012-06-23T16:29:10Z</time>
      </trkpt>
      <trkpt lat="41.625656000" lon="2.519701100">
        <ele>378.40</ele>
        <time>2012-06-23T16:29:18Z</time>
      </trkpt>
      <trkpt lat="41.625816000" lon="2.519526100">
        <ele>378.40</ele>
        <time>2012-06-23T16:29:24Z</time>
      </trkpt>
      <trkpt lat="41.625877000" lon="2.519301100">
        <ele>378.40</ele>
        <time>2012-06-23T16:29:29Z</time>
      </trkpt>
      <trkpt lat="41.625862000" lon="2.519202100">
        <ele>378.40</ele>
        <time>2012-06-23T16:29:30Z</time>
      </trkpt>
      <trkpt lat="41.625679000" lon="2.518797100">
        <ele>378.40</ele>
        <time>2012-06-23T16:29:37Z</time>
      </trkpt>
      <trkpt lat="41.625637000" lon="2.518487100">
        <ele>377.00</ele>
        <time>2012-06-23T16:29:41Z</time>
      </trkpt>
      <trkpt lat="41.625633000" lon="2.518414100">
        <ele>377.00</ele>
        <time>2012-06-23T16:29:43Z</time>
      </trkpt>
      <trkpt lat="41.625542000" lon="2.518214100">
        <ele>372.60</ele>
        <time>2012-06-23T16:29:46Z</time>
      </trkpt>
      <trkpt lat="41.625496000" lon="2.518124100">
        <ele>370.20</ele>
        <time>2012-06-23T16:29:48Z</time>
      </trkpt>
      <trkpt lat="41.625481000" lon="2.517941100">
        <ele>365.90</ele>
        <time>2012-06-23T16:29:53Z</time>
      </trkpt>
      <trkpt lat="41.625404000" lon="2.517690100">
        <ele>365.90</ele>
        <time>2012-06-23T16:30:00Z</time>
      </trkpt>
      <trkpt lat="41.625233000" lon="2.517526100">
        <ele>365.90</ele>
        <time>2012-06-23T16:30:05Z</time>
      </trkpt>
      <trkpt lat="41.625038000" lon="2.517406100">
        <ele>365.00</ele>
        <time>2012-06-23T16:30:12Z</time>
      </trkpt>
      <trkpt lat="41.624813000" lon="2.517262100">
        <ele>364.50</ele>
        <time>2012-06-23T16:30:19Z</time>
      </trkpt>
      <trkpt lat="41.624603000" lon="2.517248100">
        <ele>364.00</ele>
        <time>2012-06-23T16:30:26Z</time>
      </trkpt>
      <trkpt lat="41.624409000" lon="2.517230100">
        <ele>364.00</ele>
        <time>2012-06-23T16:30:33Z</time>
      </trkpt>
      <trkpt lat="41.624203000" lon="2.517253100">
        <ele>365.40</ele>
        <time>2012-06-23T16:30:42Z</time>
      </trkpt>
      <trkpt lat="41.624187000" lon="2.517193100">
        <ele>365.40</ele>
        <time>2012-06-23T16:30:45Z</time>
      </trkpt>
      <trkpt lat="41.624294000" lon="2.517127100">
        <ele>367.40</ele>
        <time>2012-06-23T16:30:54Z</time>
      </trkpt>
      <trkpt lat="41.624401000" lon="2.517082100">
        <ele>369.30</ele>
        <time>2012-06-23T16:31:03Z</time>
      </trkpt>
      <trkpt lat="41.624504000" lon="2.517061100">
        <ele>372.20</ele>
        <time>2012-06-23T16:31:12Z</time>
      </trkpt>
      <trkpt lat="41.624550000" lon="2.517041100">
        <ele>374.60</ele>
        <time>2012-06-23T16:31:15Z</time>
      </trkpt>
      <trkpt lat="41.624607000" lon="2.517005100">
        <ele>376.00</ele>
        <time>2012-06-23T16:31:20Z</time>
      </trkpt>
      <trkpt lat="41.624687000" lon="2.516989100">
        <ele>375.50</ele>
        <time>2012-06-23T16:31:25Z</time>
      </trkpt>
      <trkpt lat="41.624817000" lon="2.517003100">
        <ele>375.50</ele>
        <time>2012-06-23T16:31:34Z</time>
      </trkpt>
      <trkpt lat="41.624920000" lon="2.517022100">
        <ele>376.50</ele>
        <time>2012-06-23T16:31:43Z</time>
      </trkpt>
      <trkpt lat="41.625046000" lon="2.517062100">
        <ele>377.90</ele>
        <time>2012-06-23T16:31:50Z</time>
      </trkpt>
      <trkpt lat="41.625217000" lon="2.517142100">
        <ele>379.90</ele>
        <time>2012-06-23T16:32:02Z</time>
      </trkpt>
      <trkpt lat="41.625355000" lon="2.517224100">
        <ele>381.30</ele>
        <time>2012-06-23T16:32:12Z</time>
      </trkpt>
      <trkpt lat="41.625484000" lon="2.517280100">
        <ele>382.30</ele>
        <time>2012-06-23T16:32:21Z</time>
      </trkpt>
      <trkpt lat="41.625576000" lon="2.517359100">
        <ele>384.20</ele>
        <time>2012-06-23T16:32:28Z</time>
      </trkpt>
      <trkpt lat="41.625668000" lon="2.517470100">
        <ele>386.60</ele>
        <time>2012-06-23T16:32:37Z</time>
      </trkpt>
      <trkpt lat="41.625740000" lon="2.517615100">
        <ele>389.50</ele>
        <time>2012-06-23T16:32:47Z</time>
      </trkpt>
      <trkpt lat="41.625782000" lon="2.517672100">
        <ele>392.40</ele>
        <time>2012-06-23T16:32:51Z</time>
      </trkpt>
      <trkpt lat="41.625843000" lon="2.517805100">
        <ele>394.30</ele>
        <time>2012-06-23T16:32:59Z</time>
      </trkpt>
      <trkpt lat="41.625870000" lon="2.517962100">
        <ele>394.30</ele>
        <time>2012-06-23T16:33:08Z</time>
      </trkpt>
      <trkpt lat="41.625919000" lon="2.518116100">
        <ele>395.20</ele>
        <time>2012-06-23T16:33:17Z</time>
      </trkpt>
      <trkpt lat="41.625977000" lon="2.518274100">
        <ele>396.70</ele>
        <time>2012-06-23T16:33:26Z</time>
      </trkpt>
      <trkpt lat="41.626026000" lon="2.518415100">
        <ele>398.10</ele>
        <time>2012-06-23T16:33:34Z</time>
      </trkpt>
      <trkpt lat="41.626087000" lon="2.518551100">
        <ele>400.00</ele>
        <time>2012-06-23T16:33:43Z</time>
      </trkpt>
      <trkpt lat="41.626091000" lon="2.518565100">
        <ele>400.50</ele>
        <time>2012-06-23T16:33:45Z</time>
      </trkpt>
      <trkpt lat="41.626175000" lon="2.518720100">
        <ele>402.90</ele>
        <time>2012-06-23T16:33:55Z</time>
      </trkpt>
      <trkpt lat="41.626232000" lon="2.518823100">
        <ele>405.80</ele>
        <time>2012-06-23T16:34:02Z</time>
      </trkpt>
      <trkpt lat="41.626266000" lon="2.518882100">
        <ele>409.20</ele>
        <time>2012-06-23T16:34:06Z</time>
      </trkpt>
      <trkpt lat="41.626335000" lon="2.518990100">
        <ele>409.70</ele>
        <time>2012-06-23T16:34:16Z</time>
      </trkpt>
      <trkpt lat="41.626404000" lon="2.519088100">
        <ele>410.10</ele>
        <time>2012-06-23T16:34:23Z</time>
      </trkpt>
      <trkpt lat="41.626419000" lon="2.519121100">
        <ele>410.60</ele>
        <time>2012-06-23T16:34:27Z</time>
      </trkpt>
      <trkpt lat="41.626492000" lon="2.519273100">
        <ele>412.10</ele>
        <time>2012-06-23T16:34:37Z</time>
      </trkpt>
      <trkpt lat="41.626545000" lon="2.519409100">
        <ele>414.00</ele>
        <time>2012-06-23T16:34:46Z</time>
      </trkpt>
      <trkpt lat="41.626598000" lon="2.519524100">
        <ele>415.40</ele>
        <time>2012-06-23T16:34:53Z</time>
      </trkpt>
      <trkpt lat="41.626652000" lon="2.519704100">
        <ele>417.80</ele>
        <time>2012-06-23T16:35:03Z</time>
      </trkpt>
      <trkpt lat="41.626663000" lon="2.519859100">
        <ele>419.80</ele>
        <time>2012-06-23T16:35:12Z</time>
      </trkpt>
      <trkpt lat="41.626633000" lon="2.519984100">
        <ele>421.70</ele>
        <time>2012-06-23T16:35:19Z</time>
      </trkpt>
      <trkpt lat="41.626629000" lon="2.520000100">
        <ele>421.70</ele>
        <time>2012-06-23T16:35:21Z</time>
      </trkpt>
      <trkpt lat="41.626610000" lon="2.520040100">
        <ele>422.20</ele>
        <time>2012-06-23T16:35:24Z</time>
      </trkpt>
      <trkpt lat="41.626583000" lon="2.520092100">
        <ele>423.60</ele>
        <time>2012-06-23T16:35:28Z</time>
      </trkpt>
      <trkpt lat="41.626591000" lon="2.520140100">
        <ele>424.10</ele>
        <time>2012-06-23T16:35:31Z</time>
      </trkpt>
      <trkpt lat="41.626656000" lon="2.520113100">
        <ele>425.00</ele>
        <time>2012-06-23T16:35:38Z</time>
      </trkpt>
      <trkpt lat="41.626667000" lon="2.520097100">
        <ele>425.00</ele>
        <time>2012-06-23T16:35:38Z</time>
      </trkpt>
      <trkpt lat="41.626751000" lon="2.519876100">
        <ele>425.00</ele>
        <time>2012-06-23T16:35:47Z</time>
      </trkpt>
      <trkpt lat="41.626778000" lon="2.519695100">
        <ele>425.50</ele>
        <time>2012-06-23T16:35:54Z</time>
      </trkpt>
      <trkpt lat="41.626762000" lon="2.519287100">
        <ele>426.50</ele>
        <time>2012-06-23T16:36:11Z</time>
      </trkpt>
      <trkpt lat="41.626747000" lon="2.519192100">
        <ele>427.00</ele>
        <time>2012-06-23T16:36:15Z</time>
      </trkpt>
      <trkpt lat="41.626736000" lon="2.518994100">
        <ele>427.90</ele>
        <time>2012-06-23T16:36:23Z</time>
      </trkpt>
      <trkpt lat="41.626652000" lon="2.518775100">
        <ele>428.90</ele>
        <time>2012-06-23T16:36:32Z</time>
      </trkpt>
      <trkpt lat="41.626598000" lon="2.518653100">
        <ele>428.90</ele>
        <time>2012-06-23T16:36:36Z</time>
      </trkpt>
      <trkpt lat="41.626595000" lon="2.518320100">
        <ele>428.90</ele>
        <time>2012-06-23T16:36:41Z</time>
      </trkpt>
      <trkpt lat="41.626602000" lon="2.517928100">
        <ele>428.90</ele>
        <time>2012-06-23T16:36:48Z</time>
      </trkpt>
      <trkpt lat="41.626602000" lon="2.517595100">
        <ele>428.90</ele>
        <time>2012-06-23T16:36:55Z</time>
      </trkpt>
      <trkpt lat="41.626621000" lon="2.517354100">
        <ele>428.90</ele>
        <time>2012-06-23T16:37:02Z</time>
      </trkpt>
      <trkpt lat="41.626663000" lon="2.517042100">
        <ele>430.30</ele>
        <time>2012-06-23T16:37:12Z</time>
      </trkpt>
      <trkpt lat="41.626698000" lon="2.516753100">
        <ele>431.80</ele>
        <time>2012-06-23T16:37:21Z</time>
      </trkpt>
      <trkpt lat="41.626724000" lon="2.516488100">
        <ele>433.20</ele>
        <time>2012-06-23T16:37:28Z</time>
      </trkpt>
      <trkpt lat="41.626755000" lon="2.516286100">
        <ele>434.20</ele>
        <time>2012-06-23T16:37:35Z</time>
      </trkpt>
      <trkpt lat="41.626797000" lon="2.516039100">
        <ele>435.10</ele>
        <time>2012-06-23T16:37:45Z</time>
      </trkpt>
      <trkpt lat="41.626850000" lon="2.515795100">
        <ele>437.10</ele>
        <time>2012-06-23T16:37:52Z</time>
      </trkpt>
      <trkpt lat="41.626965000" lon="2.515615100">
        <ele>438.00</ele>
        <time>2012-06-23T16:38:01Z</time>
      </trkpt>
      <trkpt lat="41.627090000" lon="2.515484100">
        <ele>439.00</ele>
        <time>2012-06-23T16:38:08Z</time>
      </trkpt>
      <trkpt lat="41.627232000" lon="2.515278100">
        <ele>440.90</ele>
        <time>2012-06-23T16:38:18Z</time>
      </trkpt>
      <trkpt lat="41.627327000" lon="2.515130100">
        <ele>442.30</ele>
        <time>2012-06-23T16:38:25Z</time>
      </trkpt>
      <trkpt lat="41.627396000" lon="2.515018100">
        <ele>443.80</ele>
        <time>2012-06-23T16:38:32Z</time>
      </trkpt>
      <trkpt lat="41.627464000" lon="2.514815100">
        <ele>445.70</ele>
        <time>2012-06-23T16:38:41Z</time>
      </trkpt>
      <trkpt lat="41.627514000" lon="2.514605100">
        <ele>447.60</ele>
        <time>2012-06-23T16:38:48Z</time>
      </trkpt>
      <trkpt lat="41.627525000" lon="2.514360100">
        <ele>448.60</ele>
        <time>2012-06-23T16:38:58Z</time>
      </trkpt>
      <trkpt lat="41.627499000" lon="2.514103100">
        <ele>450.00</ele>
        <time>2012-06-23T16:39:07Z</time>
      </trkpt>
      <trkpt lat="41.627472000" lon="2.513914100">
        <ele>451.00</ele>
        <time>2012-06-23T16:39:14Z</time>
      </trkpt>
      <trkpt lat="41.627419000" lon="2.513724100">
        <ele>452.00</ele>
        <time>2012-06-23T16:39:21Z</time>
      </trkpt>
      <trkpt lat="41.627304000" lon="2.513550100">
        <ele>453.40</ele>
        <time>2012-06-23T16:39:28Z</time>
      </trkpt>
      <trkpt lat="41.627209000" lon="2.513340100">
        <ele>454.40</ele>
        <time>2012-06-23T16:39:35Z</time>
      </trkpt>
      <trkpt lat="41.627102000" lon="2.513130100">
        <ele>454.40</ele>
        <time>2012-06-23T16:39:40Z</time>
      </trkpt>
      <trkpt lat="41.626873000" lon="2.512942100">
        <ele>454.40</ele>
        <time>2012-06-23T16:39:45Z</time>
      </trkpt>
      <trkpt lat="41.626537000" lon="2.512907100">
        <ele>454.40</ele>
        <time>2012-06-23T16:39:51Z</time>
      </trkpt>
      <trkpt lat="41.626411000" lon="2.512836100">
        <ele>452.90</ele>
        <time>2012-06-23T16:39:54Z</time>
      </trkpt>
      <trkpt lat="41.626381000" lon="2.512543100">
        <ele>452.00</ele>
        <time>2012-06-23T16:39:58Z</time>
      </trkpt>
      <trkpt lat="41.626369000" lon="2.512460100">
        <ele>451.00</ele>
        <time>2012-06-23T16:39:59Z</time>
      </trkpt>
      <trkpt lat="41.626343000" lon="2.512280100">
        <ele>449.10</ele>
        <time>2012-06-23T16:40:01Z</time>
      </trkpt>
      <trkpt lat="41.626278000" lon="2.511997100">
        <ele>446.70</ele>
        <time>2012-06-23T16:40:03Z</time>
      </trkpt>
      <trkpt lat="41.626122000" lon="2.511740100">
        <ele>442.80</ele>
        <time>2012-06-23T16:40:08Z</time>
      </trkpt>
      <trkpt lat="41.625874000" lon="2.511616100">
        <ele>439.90</ele>
        <time>2012-06-23T16:40:12Z</time>
      </trkpt>
      <trkpt lat="41.625843000" lon="2.511397100">
        <ele>437.50</ele>
        <time>2012-06-23T16:40:15Z</time>
      </trkpt>
      <trkpt lat="41.625889000" lon="2.511230100">
        <ele>436.60</ele>
        <time>2012-06-23T16:40:17Z</time>
      </trkpt>
      <trkpt lat="41.625961000" lon="2.511031100">
        <ele>436.10</ele>
        <time>2012-06-23T16:40:18Z</time>
      </trkpt>
      <trkpt lat="41.626221000" lon="2.510245100">
        <ele>431.80</ele>
        <time>2012-06-23T16:40:25Z</time>
      </trkpt>
      <trkpt lat="41.626305000" lon="2.510009100">
        <ele>430.80</ele>
        <time>2012-06-23T16:40:27Z</time>
      </trkpt>
      <trkpt lat="41.626457000" lon="2.509692100">
        <ele>428.90</ele>
        <time>2012-06-23T16:40:31Z</time>
      </trkpt>
      <trkpt lat="41.626492000" lon="2.509274100">
        <ele>426.50</ele>
        <time>2012-06-23T16:40:34Z</time>
      </trkpt>
      <trkpt lat="41.626499000" lon="2.508865100">
        <ele>426.00</ele>
        <time>2012-06-23T16:40:38Z</time>
      </trkpt>
      <trkpt lat="41.626579000" lon="2.508704100">
        <ele>426.00</ele>
        <time>2012-06-23T16:40:41Z</time>
      </trkpt>
      <trkpt lat="41.626751000" lon="2.508258100">
        <ele>425.00</ele>
        <time>2012-06-23T16:40:46Z</time>
      </trkpt>
      <trkpt lat="41.626858000" lon="2.507954100">
        <ele>420.70</ele>
        <time>2012-06-23T16:40:50Z</time>
      </trkpt>
      <trkpt lat="41.626770000" lon="2.507844100">
        <ele>417.80</ele>
        <time>2012-06-23T16:40:53Z</time>
      </trkpt>
      <trkpt lat="41.626656000" lon="2.507818100">
        <ele>416.40</ele>
        <time>2012-06-23T16:40:55Z</time>
      </trkpt>
      <trkpt lat="41.626236000" lon="2.507861100">
        <ele>416.40</ele>
        <time>2012-06-23T16:41:02Z</time>
      </trkpt>
      <trkpt lat="41.625843000" lon="2.507920100">
        <ele>415.40</ele>
        <time>2012-06-23T16:41:07Z</time>
      </trkpt>
      <trkpt lat="41.625698000" lon="2.507904100">
        <ele>415.90</ele>
        <time>2012-06-23T16:41:09Z</time>
      </trkpt>
      <trkpt lat="41.625504000" lon="2.507856100">
        <ele>413.00</ele>
        <time>2012-06-23T16:41:14Z</time>
      </trkpt>
      <trkpt lat="41.625496000" lon="2.507823100">
        <ele>409.20</ele>
        <time>2012-06-23T16:41:18Z</time>
      </trkpt>
      <trkpt lat="41.625496000" lon="2.507823100">
        <ele>409.20</ele>
        <time>2012-06-23T16:42:05Z</time>
      </trkpt>
      <trkpt lat="41.625614000" lon="2.507634100">
        <ele>411.10</ele>
        <time>2012-06-23T16:42:48Z</time>
      </trkpt>
      <trkpt lat="41.625637000" lon="2.507582100">
        <ele>411.10</ele>
        <time>2012-06-23T16:42:48Z</time>
      </trkpt>
      <trkpt lat="41.625668000" lon="2.507486100">
        <ele>409.20</ele>
        <time>2012-06-23T16:42:50Z</time>
      </trkpt>
      <trkpt lat="41.625694000" lon="2.507378100">
        <ele>406.80</ele>
        <time>2012-06-23T16:42:55Z</time>
      </trkpt>
      <trkpt lat="41.625698000" lon="2.507349100">
        <ele>403.90</ele>
        <time>2012-06-23T16:43:04Z</time>
      </trkpt>
      <trkpt lat="41.625725000" lon="2.507258100">
        <ele>404.90</ele>
        <time>2012-06-23T16:43:09Z</time>
      </trkpt>
      <trkpt lat="41.625816000" lon="2.507114100">
        <ele>404.90</ele>
        <time>2012-06-23T16:43:11Z</time>
      </trkpt>
      <trkpt lat="41.625877000" lon="2.507013100">
        <ele>404.90</ele>
        <time>2012-06-23T16:43:13Z</time>
      </trkpt>
      <trkpt lat="41.625923000" lon="2.506746100">
        <ele>404.90</ele>
        <time>2012-06-23T16:43:18Z</time>
      </trkpt>
      <trkpt lat="41.626034000" lon="2.506268100">
        <ele>399.60</ele>
        <time>2012-06-23T16:43:23Z</time>
      </trkpt>
      <trkpt lat="41.626102000" lon="2.505978100">
        <ele>396.20</ele>
        <time>2012-06-23T16:43:28Z</time>
      </trkpt>
      <trkpt lat="41.626045000" lon="2.505770100">
        <ele>393.80</ele>
        <time>2012-06-23T16:43:30Z</time>
      </trkpt>
      <trkpt lat="41.626019000" lon="2.505486100">
        <ele>390.40</ele>
        <time>2012-06-23T16:43:35Z</time>
      </trkpt>
      <trkpt lat="41.626194000" lon="2.505392100">
        <ele>390.00</ele>
        <time>2012-06-23T16:43:39Z</time>
      </trkpt>
      <trkpt lat="41.626324000" lon="2.505269100">
        <ele>388.50</ele>
        <time>2012-06-23T16:43:44Z</time>
      </trkpt>
      <trkpt lat="41.626434000" lon="2.505250100">
        <ele>385.10</ele>
        <time>2012-06-23T16:43:49Z</time>
      </trkpt>
      <trkpt lat="41.626373000" lon="2.505412100">
        <ele>383.20</ele>
        <time>2012-06-23T16:43:53Z</time>
      </trkpt>
      <trkpt lat="41.626328000" lon="2.505692100">
        <ele>382.30</ele>
        <time>2012-06-23T16:43:58Z</time>
      </trkpt>
      <trkpt lat="41.626465000" lon="2.505865100">
        <ele>382.30</ele>
        <time>2012-06-23T16:44:00Z</time>
      </trkpt>
      <trkpt lat="41.626572000" lon="2.505966100">
        <ele>382.30</ele>
        <time>2012-06-23T16:44:03Z</time>
      </trkpt>
      <trkpt lat="41.626652000" lon="2.506226100">
        <ele>381.80</ele>
        <time>2012-06-23T16:44:07Z</time>
      </trkpt>
      <trkpt lat="41.626675000" lon="2.506398100">
        <ele>380.30</ele>
        <time>2012-06-23T16:44:10Z</time>
      </trkpt>
      <trkpt lat="41.626831000" lon="2.506459100">
        <ele>376.50</ele>
        <time>2012-06-23T16:44:14Z</time>
      </trkpt>
      <trkpt lat="41.626873000" lon="2.506419100">
        <ele>375.50</ele>
        <time>2012-06-23T16:44:14Z</time>
      </trkpt>
      <trkpt lat="41.626980000" lon="2.506276100">
        <ele>372.60</ele>
        <time>2012-06-23T16:44:17Z</time>
      </trkpt>
      <trkpt lat="41.627258000" lon="2.506172100">
        <ele>368.80</ele>
        <time>2012-06-23T16:44:22Z</time>
      </trkpt>
      <trkpt lat="41.627544000" lon="2.506186100">
        <ele>365.90</ele>
        <time>2012-06-23T16:44:26Z</time>
      </trkpt>
      <trkpt lat="41.627769000" lon="2.506247100">
        <ele>363.50</ele>
        <time>2012-06-23T16:44:31Z</time>
      </trkpt>
      <trkpt lat="41.628048000" lon="2.506459100">
        <ele>361.10</ele>
        <time>2012-06-23T16:44:36Z</time>
      </trkpt>
      <trkpt lat="41.628109000" lon="2.506488100">
        <ele>360.10</ele>
        <time>2012-06-23T16:44:36Z</time>
      </trkpt>
      <trkpt lat="41.628220000" lon="2.506564100">
        <ele>357.80</ele>
        <time>2012-06-23T16:44:38Z</time>
      </trkpt>
      <trkpt lat="41.628395000" lon="2.506660100">
        <ele>352.90</ele>
        <time>2012-06-23T16:44:43Z</time>
      </trkpt>
      <trkpt lat="41.628426000" lon="2.506698100">
        <ele>351.50</ele>
        <time>2012-06-23T16:44:43Z</time>
      </trkpt>
      <trkpt lat="41.628574000" lon="2.506983100">
        <ele>347.20</ele>
        <time>2012-06-23T16:44:48Z</time>
      </trkpt>
      <trkpt lat="41.628666000" lon="2.507158100">
        <ele>345.20</ele>
        <time>2012-06-23T16:44:52Z</time>
      </trkpt>
      <trkpt lat="41.628796000" lon="2.507253100">
        <ele>343.30</ele>
        <time>2012-06-23T16:44:54Z</time>
      </trkpt>
      <trkpt lat="41.629013000" lon="2.507414100">
        <ele>338.50</ele>
        <time>2012-06-23T16:44:59Z</time>
      </trkpt>
      <trkpt lat="41.629089000" lon="2.507313100">
        <ele>333.70</ele>
        <time>2012-06-23T16:45:04Z</time>
      </trkpt>
      <trkpt lat="41.628872000" lon="2.506959100">
        <ele>332.30</ele>
        <time>2012-06-23T16:45:11Z</time>
      </trkpt>
      <trkpt lat="41.628841000" lon="2.506750100">
        <ele>332.30</ele>
        <time>2012-06-23T16:45:15Z</time>
      </trkpt>
      <trkpt lat="41.628963000" lon="2.506731100">
        <ele>331.30</ele>
        <time>2012-06-23T16:45:18Z</time>
      </trkpt>
      <trkpt lat="41.628990000" lon="2.506754100">
        <ele>331.30</ele>
        <time>2012-06-23T16:45:20Z</time>
      </trkpt>
      <trkpt lat="41.629162000" lon="2.506967100">
        <ele>329.90</ele>
        <time>2012-06-23T16:45:23Z</time>
      </trkpt>
      <trkpt lat="41.629379000" lon="2.507151100">
        <ele>326.00</ele>
        <time>2012-06-23T16:45:27Z</time>
      </trkpt>
      <trkpt lat="41.629536000" lon="2.507315100">
        <ele>323.60</ele>
        <time>2012-06-23T16:45:30Z</time>
      </trkpt>
      <trkpt lat="41.629627000" lon="2.507398100">
        <ele>322.20</ele>
        <time>2012-06-23T16:45:32Z</time>
      </trkpt>
      <trkpt lat="41.629799000" lon="2.507515100">
        <ele>320.30</ele>
        <time>2012-06-23T16:45:35Z</time>
      </trkpt>
      <trkpt lat="41.630054000" lon="2.507742100">
        <ele>316.40</ele>
        <time>2012-06-23T16:45:41Z</time>
      </trkpt>
      <trkpt lat="41.630260000" lon="2.507968100">
        <ele>311.10</ele>
        <time>2012-06-23T16:45:46Z</time>
      </trkpt>
      <trkpt lat="41.630333000" lon="2.508136100">
        <ele>307.80</ele>
        <time>2012-06-23T16:45:48Z</time>
      </trkpt>
      <trkpt lat="41.630455000" lon="2.508402100">
        <ele>304.90</ele>
        <time>2012-06-23T16:45:53Z</time>
      </trkpt>
      <trkpt lat="41.630486000" lon="2.508486100">
        <ele>304.40</ele>
        <time>2012-06-23T16:45:53Z</time>
      </trkpt>
      <trkpt lat="41.630539000" lon="2.508660100">
        <ele>303.90</ele>
        <time>2012-06-23T16:45:55Z</time>
      </trkpt>
      <trkpt lat="41.630760000" lon="2.508920100">
        <ele>303.00</ele>
        <time>2012-06-23T16:46:00Z</time>
      </trkpt>
      <trkpt lat="41.630852000" lon="2.509003100">
        <ele>303.00</ele>
        <time>2012-06-23T16:46:02Z</time>
      </trkpt>
      <trkpt lat="41.630989000" lon="2.509161100">
        <ele>300.50</ele>
        <time>2012-06-23T16:46:05Z</time>
      </trkpt>
      <trkpt lat="41.631100000" lon="2.509246100">
        <ele>298.60</ele>
        <time>2012-06-23T16:46:07Z</time>
      </trkpt>
      <trkpt lat="41.631454000" lon="2.509356100">
        <ele>294.30</ele>
        <time>2012-06-23T16:46:12Z</time>
      </trkpt>
      <trkpt lat="41.631847000" lon="2.509519100">
        <ele>290.90</ele>
        <time>2012-06-23T16:46:17Z</time>
      </trkpt>
      <trkpt lat="41.632282000" lon="2.509503100">
        <ele>288.00</ele>
        <time>2012-06-23T16:46:23Z</time>
      </trkpt>
      <trkpt lat="41.632435000" lon="2.509484100">
        <ele>287.10</ele>
        <time>2012-06-23T16:46:24Z</time>
      </trkpt>
      <trkpt lat="41.632710000" lon="2.509541100">
        <ele>285.60</ele>
        <time>2012-06-23T16:46:28Z</time>
      </trkpt>
      <trkpt lat="41.632828000" lon="2.509562100">
        <ele>286.10</ele>
        <time>2012-06-23T16:46:31Z</time>
      </trkpt>
      <trkpt lat="41.633102000" lon="2.509566100">
        <ele>285.20</ele>
        <time>2012-06-23T16:46:35Z</time>
      </trkpt>
      <trkpt lat="41.633362000" lon="2.509499100">
        <ele>281.80</ele>
        <time>2012-06-23T16:46:38Z</time>
      </trkpt>
      <trkpt lat="41.633610000" lon="2.509432100">
        <ele>276.00</ele>
        <time>2012-06-23T16:46:42Z</time>
      </trkpt>
      <trkpt lat="41.633678000" lon="2.509429100">
        <ele>274.60</ele>
        <time>2012-06-23T16:46:43Z</time>
      </trkpt>
      <trkpt lat="41.633995000" lon="2.509413100">
        <ele>270.80</ele>
        <time>2012-06-23T16:46:49Z</time>
      </trkpt>
      <trkpt lat="41.634132000" lon="2.509442100">
        <ele>270.30</ele>
        <time>2012-06-23T16:46:50Z</time>
      </trkpt>
      <trkpt lat="41.634499000" lon="2.509476100">
        <ele>271.20</ele>
        <time>2012-06-23T16:46:57Z</time>
      </trkpt>
      <trkpt lat="41.634602000" lon="2.509409100">
        <ele>271.20</ele>
        <time>2012-06-23T16:46:59Z</time>
      </trkpt>
      <trkpt lat="41.634762000" lon="2.509262100">
        <ele>271.20</ele>
        <time>2012-06-23T16:47:01Z</time>
      </trkpt>
      <trkpt lat="41.635094000" lon="2.508996100">
        <ele>271.20</ele>
        <time>2012-06-23T16:47:10Z</time>
      </trkpt>
      <trkpt lat="41.635307000" lon="2.508750100">
        <ele>271.20</ele>
        <time>2012-06-23T16:47:15Z</time>
      </trkpt>
      <trkpt lat="41.635544000" lon="2.508624100">
        <ele>271.20</ele>
        <time>2012-06-23T16:47:20Z</time>
      </trkpt>
      <trkpt lat="41.635651000" lon="2.508631100">
        <ele>271.20</ele>
        <time>2012-06-23T16:47:22Z</time>
      </trkpt>
      <trkpt lat="41.635876000" lon="2.508654100">
        <ele>270.30</ele>
        <time>2012-06-23T16:47:27Z</time>
      </trkpt>
      <trkpt lat="41.636051000" lon="2.508695100">
        <ele>269.80</ele>
        <time>2012-06-23T16:47:30Z</time>
      </trkpt>
      <trkpt lat="41.636253000" lon="2.508740100">
        <ele>268.80</ele>
        <time>2012-06-23T16:47:34Z</time>
      </trkpt>
      <trkpt lat="41.636570000" lon="2.508581100">
        <ele>264.00</ele>
        <time>2012-06-23T16:47:39Z</time>
      </trkpt>
      <trkpt lat="41.636711000" lon="2.508532100">
        <ele>262.60</ele>
        <time>2012-06-23T16:47:41Z</time>
      </trkpt>
      <trkpt lat="41.636944000" lon="2.508433100">
        <ele>260.60</ele>
        <time>2012-06-23T16:47:44Z</time>
      </trkpt>
      <trkpt lat="41.637199000" lon="2.508390100">
        <ele>260.20</ele>
        <time>2012-06-23T16:47:48Z</time>
      </trkpt>
      <trkpt lat="41.637424000" lon="2.508261100">
        <ele>259.70</ele>
        <time>2012-06-23T16:47:53Z</time>
      </trkpt>
      <trkpt lat="41.637589000" lon="2.508051100">
        <ele>258.70</ele>
        <time>2012-06-23T16:47:55Z</time>
      </trkpt>
      <trkpt lat="41.637787000" lon="2.507903100">
        <ele>256.80</ele>
        <time>2012-06-23T16:48:00Z</time>
      </trkpt>
      <trkpt lat="41.637844000" lon="2.507712100">
        <ele>252.50</ele>
        <time>2012-06-23T16:48:04Z</time>
      </trkpt>
      <trkpt lat="41.637920000" lon="2.507566100">
        <ele>247.20</ele>
        <time>2012-06-23T16:48:11Z</time>
      </trkpt>
      <trkpt lat="41.637955000" lon="2.507569100">
        <ele>247.70</ele>
        <time>2012-06-23T16:48:12Z</time>
      </trkpt>
      <trkpt lat="41.638042000" lon="2.507612100">
        <ele>251.50</ele>
        <time>2012-06-23T16:48:16Z</time>
      </trkpt>
      <trkpt lat="41.638260000" lon="2.507667100">
        <ele>253.00</ele>
        <time>2012-06-23T16:48:23Z</time>
      </trkpt>
      <trkpt lat="41.638515000" lon="2.507695100">
        <ele>251.50</ele>
        <time>2012-06-23T16:48:30Z</time>
      </trkpt>
      <trkpt lat="41.638802000" lon="2.507674100">
        <ele>251.50</ele>
        <time>2012-06-23T16:48:37Z</time>
      </trkpt>
      <trkpt lat="41.639183000" lon="2.507679100">
        <ele>250.60</ele>
        <time>2012-06-23T16:48:47Z</time>
      </trkpt>
      <trkpt lat="41.639305000" lon="2.507660100">
        <ele>250.60</ele>
        <time>2012-06-23T16:48:52Z</time>
      </trkpt>
      <trkpt lat="41.639523000" lon="2.507607100">
        <ele>249.10</ele>
        <time>2012-06-23T16:48:58Z</time>
      </trkpt>
      <trkpt lat="41.639889000" lon="2.507541100">
        <ele>248.60</ele>
        <time>2012-06-23T16:49:06Z</time>
      </trkpt>
      <trkpt lat="41.640175000" lon="2.507466100">
        <ele>248.20</ele>
        <time>2012-06-23T16:49:12Z</time>
      </trkpt>
      <trkpt lat="41.640507000" lon="2.507389100">
        <ele>247.70</ele>
        <time>2012-06-23T16:49:17Z</time>
      </trkpt>
      <trkpt lat="41.640785000" lon="2.507391100">
        <ele>247.20</ele>
        <time>2012-06-23T16:49:22Z</time>
      </trkpt>
      <trkpt lat="41.641006000" lon="2.507338100">
        <ele>246.70</ele>
        <time>2012-06-23T16:49:27Z</time>
      </trkpt>
      <trkpt lat="41.641308000" lon="2.507209100">
        <ele>246.20</ele>
        <time>2012-06-23T16:49:34Z</time>
      </trkpt>
      <trkpt lat="41.641647000" lon="2.507188100">
        <ele>245.80</ele>
        <time>2012-06-23T16:49:41Z</time>
      </trkpt>
      <trkpt lat="41.641800000" lon="2.507226100">
        <ele>245.80</ele>
        <time>2012-06-23T16:49:46Z</time>
      </trkpt>
      <trkpt lat="41.641972000" lon="2.507301100">
        <ele>245.80</ele>
        <time>2012-06-23T16:49:52Z</time>
      </trkpt>
      <trkpt lat="41.642181000" lon="2.507337100">
        <ele>244.80</ele>
        <time>2012-06-23T16:49:57Z</time>
      </trkpt>
      <trkpt lat="41.642281000" lon="2.507332100">
        <ele>244.80</ele>
        <time>2012-06-23T16:49:59Z</time>
      </trkpt>
      <trkpt lat="41.642551000" lon="2.507349100">
        <ele>244.30</ele>
        <time>2012-06-23T16:50:04Z</time>
      </trkpt>
      <trkpt lat="41.643085000" lon="2.507334100">
        <ele>243.40</ele>
        <time>2012-06-23T16:50:11Z</time>
      </trkpt>
      <trkpt lat="41.643276000" lon="2.507308100">
        <ele>242.90</ele>
        <time>2012-06-23T16:50:14Z</time>
      </trkpt>
      <trkpt lat="41.643597000" lon="2.507239100">
        <ele>241.90</ele>
        <time>2012-06-23T16:50:21Z</time>
      </trkpt>
      <trkpt lat="41.643707000" lon="2.507215100">
        <ele>240.90</ele>
        <time>2012-06-23T16:50:23Z</time>
      </trkpt>
      <trkpt lat="41.644009000" lon="2.507333100">
        <ele>237.60</ele>
        <time>2012-06-23T16:50:28Z</time>
      </trkpt>
      <trkpt lat="41.644135000" lon="2.507453100">
        <ele>234.70</ele>
        <time>2012-06-23T16:50:30Z</time>
      </trkpt>
      <trkpt lat="41.644390000" lon="2.507631100">
        <ele>230.40</ele>
        <time>2012-06-23T16:50:33Z</time>
      </trkpt>
      <trkpt lat="41.644520000" lon="2.507721100">
        <ele>229.90</ele>
        <time>2012-06-23T16:50:35Z</time>
      </trkpt>
      <trkpt lat="41.644585000" lon="2.507757100">
        <ele>230.40</ele>
        <time>2012-06-23T16:50:37Z</time>
      </trkpt>
      <trkpt lat="41.645050000" lon="2.508000100">
        <ele>233.70</ele>
        <time>2012-06-23T16:50:44Z</time>
      </trkpt>
      <trkpt lat="41.645164000" lon="2.508050100">
        <ele>233.70</ele>
        <time>2012-06-23T16:50:49Z</time>
      </trkpt>
      <trkpt lat="41.645153000" lon="2.508083100">
        <ele>233.70</ele>
        <time>2012-06-23T16:51:03Z</time>
      </trkpt>
      <trkpt lat="41.645153000" lon="2.508083100">
        <ele>233.70</ele>
        <time>2012-06-23T16:51:12Z</time>
      </trkpt>
      <trkpt lat="41.645153000" lon="2.508081100">
        <ele>232.30</ele>
        <time>2012-06-23T16:51:54Z</time>
      </trkpt>
      <trkpt lat="41.645184000" lon="2.508054100">
        <ele>232.30</ele>
        <time>2012-06-23T16:52:23Z</time>
      </trkpt>
      <trkpt lat="41.645218000" lon="2.507974100">
        <ele>232.30</ele>
        <time>2012-06-23T16:52:32Z</time>
      </trkpt>
      <trkpt lat="41.645218000" lon="2.507974100">
        <ele>232.30</ele>
        <time>2012-06-23T16:53:31Z</time>
      </trkpt>
      <trkpt lat="41.645222000" lon="2.507967100">
        <ele>231.80</ele>
        <time>2012-06-23T16:53:54Z</time>
      </trkpt>
      <trkpt lat="41.645222000" lon="2.507974100">
        <ele>231.80</ele>
        <time>2012-06-23T16:54:53Z</time>
      </trkpt>
      <trkpt lat="41.645222000" lon="2.507970100">
        <ele>231.80</ele>
        <time>2012-06-23T16:55:10Z</time>
      </trkpt>
      <trkpt lat="41.645248000" lon="2.507974100">
        <ele>231.80</ele>
        <time>2012-06-23T16:55:17Z</time>
      </trkpt>
      <trkpt lat="41.645298000" lon="2.508024100">
        <ele>231.80</ele>
        <time>2012-06-23T16:55:47Z</time>
      </trkpt>
      <trkpt lat="41.645309000" lon="2.508033100">
        <ele>231.80</ele>
        <time>2012-06-23T16:56:43Z</time>
      </trkpt>
      <trkpt lat="41.645317000" lon="2.508054100">
        <ele>231.80</ele>
        <time>2012-06-23T16:57:11Z</time>
      </trkpt>
      <trkpt lat="41.645252000" lon="2.508012100">
        <ele>231.80</ele>
        <time>2012-06-23T16:57:35Z</time>
      </trkpt>
      <trkpt lat="41.645252000" lon="2.507973100">
        <ele>231.30</ele>
        <time>2012-06-23T16:57:37Z</time>
      </trkpt>
      <trkpt lat="41.645283000" lon="2.507759100">
        <ele>231.30</ele>
        <time>2012-06-23T16:57:45Z</time>
      </trkpt>
      <trkpt lat="41.645287000" lon="2.507619100">
        <ele>231.30</ele>
        <time>2012-06-23T16:57:51Z</time>
      </trkpt>
      <trkpt lat="41.645283000" lon="2.507568100">
        <ele>231.30</ele>
        <time>2012-06-23T16:57:52Z</time>
      </trkpt>
      <trkpt lat="41.645149000" lon="2.507466100">
        <ele>232.80</ele>
        <time>2012-06-23T16:57:59Z</time>
      </trkpt>
      <trkpt lat="41.644989000" lon="2.507400100">
        <ele>232.80</ele>
        <time>2012-06-23T16:58:06Z</time>
      </trkpt>
      <trkpt lat="41.644848000" lon="2.507321100">
        <ele>233.70</ele>
        <time>2012-06-23T16:58:13Z</time>
      </trkpt>
      <trkpt lat="41.644680000" lon="2.507248100">
        <ele>234.70</ele>
        <time>2012-06-23T16:58:22Z</time>
      </trkpt>
      <trkpt lat="41.644588000" lon="2.507180100">
        <ele>235.20</ele>
        <time>2012-06-23T16:58:27Z</time>
      </trkpt>
      <trkpt lat="41.644493000" lon="2.507064100">
        <ele>236.10</ele>
        <time>2012-06-23T16:58:34Z</time>
      </trkpt>
      <trkpt lat="41.644451000" lon="2.507020100">
        <ele>236.60</ele>
        <time>2012-06-23T16:58:41Z</time>
      </trkpt>
      <trkpt lat="41.644451000" lon="2.507019100">
        <ele>237.60</ele>
        <time>2012-06-23T16:58:57Z</time>
      </trkpt>
      <trkpt lat="41.644444000" lon="2.507017100">
        <ele>237.60</ele>
        <time>2012-06-23T16:59:19Z</time>
      </trkpt>
      <trkpt lat="41.644440000" lon="2.507004100">
        <ele>237.60</ele>
        <time>2012-06-23T16:59:21Z</time>
      </trkpt>
      <trkpt lat="41.644386000" lon="2.506876100">
        <ele>237.60</ele>
        <time>2012-06-23T16:59:30Z</time>
      </trkpt>
      <trkpt lat="41.644382000" lon="2.506867100">
        <ele>238.10</ele>
        <time>2012-06-23T16:59:39Z</time>
      </trkpt>
      <trkpt lat="41.644379000" lon="2.506867100">
        <ele>238.10</ele>
        <time>2012-06-23T17:00:17Z</time>
      </trkpt>
      <trkpt lat="41.644367000" lon="2.506824100">
        <ele>238.10</ele>
        <time>2012-06-23T17:01:16Z</time>
      </trkpt>
      <trkpt lat="41.644302000" lon="2.506651100">
        <ele>238.10</ele>
        <time>2012-06-23T17:01:25Z</time>
      </trkpt>
      <trkpt lat="41.644230000" lon="2.506466100">
        <ele>239.00</ele>
        <time>2012-06-23T17:01:32Z</time>
      </trkpt>
      <trkpt lat="41.644169000" lon="2.506316100">
        <ele>240.00</ele>
        <time>2012-06-23T17:01:39Z</time>
      </trkpt>
      <trkpt lat="41.644093000" lon="2.506104100">
        <ele>241.40</ele>
        <time>2012-06-23T17:01:49Z</time>
      </trkpt>
      <trkpt lat="41.643986000" lon="2.505834100">
        <ele>242.40</ele>
        <time>2012-06-23T17:02:00Z</time>
      </trkpt>
      <trkpt lat="41.643913000" lon="2.505567100">
        <ele>242.90</ele>
        <time>2012-06-23T17:02:08Z</time>
      </trkpt>
      <trkpt lat="41.643803000" lon="2.505356100">
        <ele>243.80</ele>
        <time>2012-06-23T17:02:17Z</time>
      </trkpt>
      <trkpt lat="41.643711000" lon="2.505199100">
        <ele>244.80</ele>
        <time>2012-06-23T17:02:24Z</time>
      </trkpt>
      <trkpt lat="41.643669000" lon="2.504957100">
        <ele>245.80</ele>
        <time>2012-06-23T17:02:33Z</time>
      </trkpt>
      <trkpt lat="41.643654000" lon="2.504725100">
        <ele>246.70</ele>
        <time>2012-06-23T17:02:40Z</time>
      </trkpt>
      <trkpt lat="41.643646000" lon="2.504538100">
        <ele>247.20</ele>
        <time>2012-06-23T17:02:47Z</time>
      </trkpt>
      <trkpt lat="41.643623000" lon="2.504329100">
        <ele>248.20</ele>
        <time>2012-06-23T17:02:55Z</time>
      </trkpt>
      <trkpt lat="41.643608000" lon="2.504087100">
        <ele>249.60</ele>
        <time>2012-06-23T17:03:06Z</time>
      </trkpt>
      <trkpt lat="41.643585000" lon="2.503885100">
        <ele>251.00</ele>
        <time>2012-06-23T17:03:13Z</time>
      </trkpt>
      <trkpt lat="41.643547000" lon="2.503679100">
        <ele>251.50</ele>
        <time>2012-06-23T17:03:20Z</time>
      </trkpt>
      <trkpt lat="41.643497000" lon="2.503448100">
        <ele>252.50</ele>
        <time>2012-06-23T17:03:29Z</time>
      </trkpt>
      <trkpt lat="41.643402000" lon="2.503277100">
        <ele>253.00</ele>
        <time>2012-06-23T17:03:37Z</time>
      </trkpt>
      <trkpt lat="41.643326000" lon="2.503087100">
        <ele>253.40</ele>
        <time>2012-06-23T17:03:44Z</time>
      </trkpt>
      <trkpt lat="41.643265000" lon="2.502896100">
        <ele>254.40</ele>
        <time>2012-06-23T17:03:53Z</time>
      </trkpt>
      <trkpt lat="41.643234000" lon="2.502689100">
        <ele>254.90</ele>
        <time>2012-06-23T17:04:00Z</time>
      </trkpt>
      <trkpt lat="41.643211000" lon="2.502506100">
        <ele>255.90</ele>
        <time>2012-06-23T17:04:09Z</time>
      </trkpt>
      <trkpt lat="41.643135000" lon="2.502335100">
        <ele>257.30</ele>
        <time>2012-06-23T17:04:16Z</time>
      </trkpt>
      <trkpt lat="41.643055000" lon="2.502268100">
        <ele>257.80</ele>
        <time>2012-06-23T17:04:23Z</time>
      </trkpt>
      <trkpt lat="41.642918000" lon="2.502224100">
        <ele>258.70</ele>
        <time>2012-06-23T17:04:31Z</time>
      </trkpt>
      <trkpt lat="41.642796000" lon="2.502054100">
        <ele>260.20</ele>
        <time>2012-06-23T17:04:38Z</time>
      </trkpt>
      <trkpt lat="41.642693000" lon="2.501878100">
        <ele>261.10</ele>
        <time>2012-06-23T17:04:47Z</time>
      </trkpt>
      <trkpt lat="41.642605000" lon="2.501713100">
        <ele>262.60</ele>
        <time>2012-06-23T17:04:54Z</time>
      </trkpt>
      <trkpt lat="41.642506000" lon="2.501534100">
        <ele>264.00</ele>
        <time>2012-06-23T17:05:04Z</time>
      </trkpt>
      <trkpt lat="41.642429000" lon="2.501468100">
        <ele>267.40</ele>
        <time>2012-06-23T17:05:11Z</time>
      </trkpt>
      <trkpt lat="41.642361000" lon="2.501392100">
        <ele>270.80</ele>
        <time>2012-06-23T17:05:17Z</time>
      </trkpt>
      <trkpt lat="41.642288000" lon="2.501252100">
        <ele>270.30</ele>
        <time>2012-06-23T17:05:25Z</time>
      </trkpt>
      <trkpt lat="41.642200000" lon="2.501115100">
        <ele>270.80</ele>
        <time>2012-06-23T17:05:32Z</time>
      </trkpt>
      <trkpt lat="41.642128000" lon="2.500999100">
        <ele>271.20</ele>
        <time>2012-06-23T17:05:39Z</time>
      </trkpt>
      <trkpt lat="41.642117000" lon="2.500973100">
        <ele>271.20</ele>
        <time>2012-06-23T17:05:46Z</time>
      </trkpt>
      <trkpt lat="41.642117000" lon="2.500973100">
        <ele>271.20</ele>
        <time>2012-06-23T17:06:05Z</time>
      </trkpt>
      <trkpt lat="41.642094000" lon="2.500938100">
        <ele>272.20</ele>
        <time>2012-06-23T17:06:30Z</time>
      </trkpt>
      <trkpt lat="41.641998000" lon="2.500767100">
        <ele>272.20</ele>
        <time>2012-06-23T17:06:38Z</time>
      </trkpt>
      <trkpt lat="41.641956000" lon="2.500603100">
        <ele>273.10</ele>
        <time>2012-06-23T17:06:45Z</time>
      </trkpt>
      <trkpt lat="41.641899000" lon="2.500386100">
        <ele>273.60</ele>
        <time>2012-06-23T17:06:51Z</time>
      </trkpt>
      <trkpt lat="41.641834000" lon="2.500254100">
        <ele>274.10</ele>
        <time>2012-06-23T17:06:56Z</time>
      </trkpt>
      <trkpt lat="41.641823000" lon="2.500225100">
        <ele>274.10</ele>
        <time>2012-06-23T17:07:03Z</time>
      </trkpt>
      <trkpt lat="41.641823000" lon="2.500225100">
        <ele>274.10</ele>
        <time>2012-06-23T17:07:24Z</time>
      </trkpt>
      <trkpt lat="41.641823000" lon="2.500214100">
        <ele>275.10</ele>
        <time>2012-06-23T17:07:41Z</time>
      </trkpt>
      <trkpt lat="41.641800000" lon="2.500162100">
        <ele>275.10</ele>
        <time>2012-06-23T17:07:52Z</time>
      </trkpt>
      <trkpt lat="41.641735000" lon="2.500040100">
        <ele>275.10</ele>
        <time>2012-06-23T17:07:57Z</time>
      </trkpt>
      <trkpt lat="41.641663000" lon="2.499924100">
        <ele>276.50</ele>
        <time>2012-06-23T17:08:05Z</time>
      </trkpt>
      <trkpt lat="41.641621000" lon="2.499821100">
        <ele>277.50</ele>
        <time>2012-06-23T17:08:12Z</time>
      </trkpt>
      <trkpt lat="41.641552000" lon="2.499701100">
        <ele>279.40</ele>
        <time>2012-06-23T17:08:21Z</time>
      </trkpt>
      <trkpt lat="41.641491000" lon="2.499576100">
        <ele>281.80</ele>
        <time>2012-06-23T17:08:30Z</time>
      </trkpt>
      <trkpt lat="41.641464000" lon="2.499454100">
        <ele>283.20</ele>
        <time>2012-06-23T17:08:37Z</time>
      </trkpt>
      <trkpt lat="41.641479000" lon="2.499358100">
        <ele>284.20</ele>
        <time>2012-06-23T17:08:44Z</time>
      </trkpt>
      <trkpt lat="41.641499000" lon="2.499231100">
        <ele>286.10</ele>
        <time>2012-06-23T17:08:53Z</time>
      </trkpt>
      <trkpt lat="41.641502000" lon="2.499157100">
        <ele>286.60</ele>
        <time>2012-06-23T17:09:01Z</time>
      </trkpt>
      <trkpt lat="41.641502000" lon="2.499157100">
        <ele>286.60</ele>
        <time>2012-06-23T17:09:06Z</time>
      </trkpt>
      <trkpt lat="41.641479000" lon="2.499134100">
        <ele>287.10</ele>
        <time>2012-06-23T17:09:15Z</time>
      </trkpt>
      <trkpt lat="41.641479000" lon="2.499134100">
        <ele>287.10</ele>
        <time>2012-06-23T17:09:33Z</time>
      </trkpt>
      <trkpt lat="41.641479000" lon="2.499132100">
        <ele>287.60</ele>
        <time>2012-06-23T17:09:52Z</time>
      </trkpt>
      <trkpt lat="41.641495000" lon="2.499123100">
        <ele>287.60</ele>
        <time>2012-06-23T17:10:37Z</time>
      </trkpt>
      <trkpt lat="41.641518000" lon="2.499094100">
        <ele>287.60</ele>
        <time>2012-06-23T17:10:42Z</time>
      </trkpt>
      <trkpt lat="41.641510000" lon="2.499069100">
        <ele>287.60</ele>
        <time>2012-06-23T17:10:51Z</time>
      </trkpt>
      <trkpt lat="41.641502000" lon="2.499035100">
        <ele>288.00</ele>
        <time>2012-06-23T17:10:53Z</time>
      </trkpt>
      <trkpt lat="41.641460000" lon="2.498919100">
        <ele>288.50</ele>
        <time>2012-06-23T17:11:01Z</time>
      </trkpt>
      <trkpt lat="41.641441000" lon="2.498857100">
        <ele>289.00</ele>
        <time>2012-06-23T17:11:05Z</time>
      </trkpt>
      <trkpt lat="41.641418000" lon="2.498777100">
        <ele>289.50</ele>
        <time>2012-06-23T17:11:10Z</time>
      </trkpt>
      <trkpt lat="41.641380000" lon="2.498686100">
        <ele>290.00</ele>
        <time>2012-06-23T17:11:14Z</time>
      </trkpt>
      <trkpt lat="41.641338000" lon="2.498529100">
        <ele>290.50</ele>
        <time>2012-06-23T17:11:22Z</time>
      </trkpt>
      <trkpt lat="41.641315000" lon="2.498404100">
        <ele>292.40</ele>
        <time>2012-06-23T17:11:31Z</time>
      </trkpt>
      <trkpt lat="41.641304000" lon="2.498379100">
        <ele>292.40</ele>
        <time>2012-06-23T17:11:33Z</time>
      </trkpt>
      <trkpt lat="41.641285000" lon="2.498345100">
        <ele>292.90</ele>
        <time>2012-06-23T17:11:35Z</time>
      </trkpt>
      <trkpt lat="41.641193000" lon="2.498276100">
        <ele>293.80</ele>
        <time>2012-06-23T17:11:43Z</time>
      </trkpt>
      <trkpt lat="41.641075000" lon="2.498276100">
        <ele>295.30</ele>
        <time>2012-06-23T17:11:52Z</time>
      </trkpt>
      <trkpt lat="41.640949000" lon="2.498199100">
        <ele>296.20</ele>
        <time>2012-06-23T17:12:01Z</time>
      </trkpt>
      <trkpt lat="41.640846000" lon="2.498104100">
        <ele>296.70</ele>
        <time>2012-06-23T17:12:08Z</time>
      </trkpt>
      <trkpt lat="41.640820000" lon="2.498066100">
        <ele>296.70</ele>
        <time>2012-06-23T17:12:09Z</time>
      </trkpt>
      <trkpt lat="41.640747000" lon="2.497921100">
        <ele>298.10</ele>
        <time>2012-06-23T17:12:18Z</time>
      </trkpt>
      <trkpt lat="41.640705000" lon="2.497790100">
        <ele>298.60</ele>
        <time>2012-06-23T17:12:25Z</time>
      </trkpt>
      <trkpt lat="41.640644000" lon="2.497676100">
        <ele>299.10</ele>
        <time>2012-06-23T17:12:30Z</time>
      </trkpt>
      <trkpt lat="41.640606000" lon="2.497612100">
        <ele>299.60</ele>
        <time>2012-06-23T17:12:34Z</time>
      </trkpt>
      <trkpt lat="41.640522000" lon="2.497419100">
        <ele>301.50</ele>
        <time>2012-06-23T17:12:44Z</time>
      </trkpt>
      <trkpt lat="41.640438000" lon="2.497285100">
        <ele>303.00</ele>
        <time>2012-06-23T17:12:53Z</time>
      </trkpt>
      <trkpt lat="41.640388000" lon="2.497127100">
        <ele>304.40</ele>
        <time>2012-06-23T17:13:02Z</time>
      </trkpt>
      <trkpt lat="41.640381000" lon="2.497104100">
        <ele>304.90</ele>
        <time>2012-06-23T17:13:02Z</time>
      </trkpt>
      <trkpt lat="41.640350000" lon="2.496976100">
        <ele>305.80</ele>
        <time>2012-06-23T17:13:10Z</time>
      </trkpt>
      <trkpt lat="41.640327000" lon="2.496816100">
        <ele>307.30</ele>
        <time>2012-06-23T17:13:17Z</time>
      </trkpt>
      <trkpt lat="41.640331000" lon="2.496783100">
        <ele>308.20</ele>
        <time>2012-06-23T17:13:24Z</time>
      </trkpt>
      <trkpt lat="41.640331000" lon="2.496783100">
        <ele>308.20</ele>
        <time>2012-06-23T17:13:47Z</time>
      </trkpt>
      <trkpt lat="41.640266000" lon="2.496510100">
        <ele>311.60</ele>
        <time>2012-06-23T17:13:54Z</time>
      </trkpt>
      <trkpt lat="41.640205000" lon="2.496363100">
        <ele>313.00</ele>
        <time>2012-06-23T17:14:01Z</time>
      </trkpt>
      <trkpt lat="41.640198000" lon="2.496350100">
        <ele>314.50</ele>
        <time>2012-06-23T17:14:08Z</time>
      </trkpt>
      <trkpt lat="41.640110000" lon="2.496205100">
        <ele>315.50</ele>
        <time>2012-06-23T17:14:15Z</time>
      </trkpt>
      <trkpt lat="41.639996000" lon="2.496049100">
        <ele>317.40</ele>
        <time>2012-06-23T17:14:25Z</time>
      </trkpt>
      <trkpt lat="41.639915000" lon="2.495963100">
        <ele>318.30</ele>
        <time>2012-06-23T17:14:32Z</time>
      </trkpt>
      <trkpt lat="41.639904000" lon="2.495950100">
        <ele>318.80</ele>
        <time>2012-06-23T17:14:34Z</time>
      </trkpt>
      <trkpt lat="41.639885000" lon="2.495832100">
        <ele>321.20</ele>
        <time>2012-06-23T17:14:41Z</time>
      </trkpt>
      <trkpt lat="41.639893000" lon="2.495821100">
        <ele>321.70</ele>
        <time>2012-06-23T17:14:43Z</time>
      </trkpt>
      <trkpt lat="41.639912000" lon="2.495797100">
        <ele>323.60</ele>
        <time>2012-06-23T17:14:44Z</time>
      </trkpt>
      <trkpt lat="41.640015000" lon="2.495838100">
        <ele>325.50</ele>
        <time>2012-06-23T17:14:51Z</time>
      </trkpt>
      <trkpt lat="41.640144000" lon="2.495898100">
        <ele>324.60</ele>
        <time>2012-06-23T17:15:00Z</time>
      </trkpt>
      <trkpt lat="41.640217000" lon="2.495932100">
        <ele>324.60</ele>
        <time>2012-06-23T17:15:05Z</time>
      </trkpt>
      <trkpt lat="41.640312000" lon="2.495966100">
        <ele>324.60</ele>
        <time>2012-06-23T17:15:12Z</time>
      </trkpt>
      <trkpt lat="41.640354000" lon="2.495971100">
        <ele>324.60</ele>
        <time>2012-06-23T17:15:16Z</time>
      </trkpt>
      <trkpt lat="41.640411000" lon="2.495937100">
        <ele>326.00</ele>
        <time>2012-06-23T17:15:21Z</time>
      </trkpt>
      <trkpt lat="41.640450000" lon="2.495911100">
        <ele>326.00</ele>
        <time>2012-06-23T17:15:23Z</time>
      </trkpt>
      <trkpt lat="41.640541000" lon="2.495817100">
        <ele>327.50</ele>
        <time>2012-06-23T17:15:33Z</time>
      </trkpt>
      <trkpt lat="41.640644000" lon="2.495671100">
        <ele>330.80</ele>
        <time>2012-06-23T17:15:44Z</time>
      </trkpt>
      <trkpt lat="41.640717000" lon="2.495639100">
        <ele>333.70</ele>
        <time>2012-06-23T17:15:49Z</time>
      </trkpt>
      <trkpt lat="41.640793000" lon="2.495733100">
        <ele>334.20</ele>
        <time>2012-06-23T17:15:58Z</time>
      </trkpt>
      <trkpt lat="41.640827000" lon="2.495913100">
        <ele>334.20</ele>
        <time>2012-06-23T17:16:05Z</time>
      </trkpt>
      <trkpt lat="41.640850000" lon="2.495959100">
        <ele>334.20</ele>
        <time>2012-06-23T17:16:06Z</time>
      </trkpt>
      <trkpt lat="41.640934000" lon="2.495937100">
        <ele>334.20</ele>
        <time>2012-06-23T17:16:13Z</time>
      </trkpt>
      <trkpt lat="41.641041000" lon="2.495821100">
        <ele>334.20</ele>
        <time>2012-06-23T17:16:22Z</time>
      </trkpt>
      <trkpt lat="41.641113000" lon="2.495650100">
        <ele>334.20</ele>
        <time>2012-06-23T17:16:31Z</time>
      </trkpt>
      <trkpt lat="41.641125000" lon="2.495570100">
        <ele>334.20</ele>
        <time>2012-06-23T17:16:36Z</time>
      </trkpt>
      <trkpt lat="41.641190000" lon="2.495467100">
        <ele>334.70</ele>
        <time>2012-06-23T17:16:41Z</time>
      </trkpt>
      <trkpt lat="41.641323000" lon="2.495426100">
        <ele>335.60</ele>
        <time>2012-06-23T17:16:48Z</time>
      </trkpt>
      <trkpt lat="41.641445000" lon="2.495378100">
        <ele>337.10</ele>
        <time>2012-06-23T17:16:55Z</time>
      </trkpt>
      <trkpt lat="41.641567000" lon="2.495338100">
        <ele>338.00</ele>
        <time>2012-06-23T17:17:04Z</time>
      </trkpt>
      <trkpt lat="41.641720000" lon="2.495408100">
        <ele>340.00</ele>
        <time>2012-06-23T17:17:14Z</time>
      </trkpt>
      <trkpt lat="41.641834000" lon="2.495437100">
        <ele>341.40</ele>
        <time>2012-06-23T17:17:21Z</time>
      </trkpt>
      <trkpt lat="41.641968000" lon="2.495478100">
        <ele>342.40</ele>
        <time>2012-06-23T17:17:28Z</time>
      </trkpt>
      <trkpt lat="41.642117000" lon="2.495577100">
        <ele>342.90</ele>
        <time>2012-06-23T17:17:37Z</time>
      </trkpt>
      <trkpt lat="41.642216000" lon="2.495659100">
        <ele>344.80</ele>
        <time>2012-06-23T17:17:46Z</time>
      </trkpt>
      <trkpt lat="41.642303000" lon="2.495713100">
        <ele>345.70</ele>
        <time>2012-06-23T17:17:53Z</time>
      </trkpt>
      <trkpt lat="41.642349000" lon="2.495633100">
        <ele>349.60</ele>
        <time>2012-06-23T17:17:59Z</time>
      </trkpt>
      <trkpt lat="41.642342000" lon="2.495575100">
        <ele>352.00</ele>
        <time>2012-06-23T17:18:03Z</time>
      </trkpt>
      <trkpt lat="41.642342000" lon="2.495535100">
        <ele>353.40</ele>
        <time>2012-06-23T17:18:05Z</time>
      </trkpt>
      <trkpt lat="41.642380000" lon="2.495263100">
        <ele>353.40</ele>
        <time>2012-06-23T17:18:15Z</time>
      </trkpt>
      <trkpt lat="41.642464000" lon="2.494909100">
        <ele>352.00</ele>
        <time>2012-06-23T17:18:24Z</time>
      </trkpt>
      <trkpt lat="41.642479000" lon="2.494859100">
        <ele>352.00</ele>
        <time>2012-06-23T17:18:24Z</time>
      </trkpt>
      <trkpt lat="41.642651000" lon="2.494504100">
        <ele>351.00</ele>
        <time>2012-06-23T17:18:31Z</time>
      </trkpt>
      <trkpt lat="41.642818000" lon="2.494039100">
        <ele>349.60</ele>
        <time>2012-06-23T17:18:38Z</time>
      </trkpt>
      <trkpt lat="41.642952000" lon="2.493885100">
        <ele>349.60</ele>
        <time>2012-06-23T17:18:43Z</time>
      </trkpt>
      <trkpt lat="41.643124000" lon="2.493613100">
        <ele>349.60</ele>
        <time>2012-06-23T17:18:50Z</time>
      </trkpt>
      <trkpt lat="41.643135000" lon="2.493582100">
        <ele>349.60</ele>
        <time>2012-06-23T17:18:52Z</time>
      </trkpt>
      <trkpt lat="41.643066000" lon="2.493421100">
        <ele>349.60</ele>
        <time>2012-06-23T17:18:57Z</time>
      </trkpt>
      <trkpt lat="41.642868000" lon="2.493259100">
        <ele>349.60</ele>
        <time>2012-06-23T17:19:02Z</time>
      </trkpt>
      <trkpt lat="41.642670000" lon="2.492943100">
        <ele>349.60</ele>
        <time>2012-06-23T17:19:06Z</time>
      </trkpt>
      <trkpt lat="41.642651000" lon="2.492849100">
        <ele>349.10</ele>
        <time>2012-06-23T17:19:09Z</time>
      </trkpt>
      <trkpt lat="41.642651000" lon="2.492849100">
        <ele>349.10</ele>
        <time>2012-06-23T17:19:16Z</time>
      </trkpt>
      <trkpt lat="41.642647000" lon="2.492827100">
        <ele>344.80</ele>
        <time>2012-06-23T17:19:28Z</time>
      </trkpt>
      <trkpt lat="41.642662000" lon="2.492599100">
        <ele>344.80</ele>
        <time>2012-06-23T17:19:32Z</time>
      </trkpt>
      <trkpt lat="41.642677000" lon="2.492482100">
        <ele>344.80</ele>
        <time>2012-06-23T17:19:35Z</time>
      </trkpt>
      <trkpt lat="41.642666000" lon="2.492206100">
        <ele>344.80</ele>
        <time>2012-06-23T17:19:39Z</time>
      </trkpt>
      <trkpt lat="41.642502000" lon="2.491774100">
        <ele>344.30</ele>
        <time>2012-06-23T17:19:46Z</time>
      </trkpt>
      <trkpt lat="41.642345000" lon="2.491552100">
        <ele>344.30</ele>
        <time>2012-06-23T17:19:51Z</time>
      </trkpt>
      <trkpt lat="41.642300000" lon="2.491315100">
        <ele>344.30</ele>
        <time>2012-06-23T17:19:58Z</time>
      </trkpt>
      <trkpt lat="41.642273000" lon="2.491201100">
        <ele>345.70</ele>
        <time>2012-06-23T17:20:03Z</time>
      </trkpt>
      <trkpt lat="41.642265000" lon="2.491177100">
        <ele>345.70</ele>
        <time>2012-06-23T17:20:03Z</time>
      </trkpt>
      <trkpt lat="41.642181000" lon="2.490963100">
        <ele>348.60</ele>
        <time>2012-06-23T17:20:10Z</time>
      </trkpt>
      <trkpt lat="41.642090000" lon="2.490799100">
        <ele>352.50</ele>
        <time>2012-06-23T17:20:15Z</time>
      </trkpt>
      <trkpt lat="41.642128000" lon="2.490635100">
        <ele>353.40</ele>
        <time>2012-06-23T17:20:21Z</time>
      </trkpt>
      <trkpt lat="41.642216000" lon="2.490577100">
        <ele>353.40</ele>
        <time>2012-06-23T17:20:24Z</time>
      </trkpt>
      <trkpt lat="41.642441000" lon="2.490530100">
        <ele>352.00</ele>
        <time>2012-06-23T17:20:29Z</time>
      </trkpt>
      <trkpt lat="41.642643000" lon="2.490494100">
        <ele>352.00</ele>
        <time>2012-06-23T17:20:36Z</time>
      </trkpt>
      <trkpt lat="41.642830000" lon="2.490409100">
        <ele>352.00</ele>
        <time>2012-06-23T17:20:43Z</time>
      </trkpt>
      <trkpt lat="41.642906000" lon="2.490191100">
        <ele>352.00</ele>
        <time>2012-06-23T17:20:48Z</time>
      </trkpt>
      <trkpt lat="41.643009000" lon="2.489884100">
        <ele>352.90</ele>
        <time>2012-06-23T17:20:57Z</time>
      </trkpt>
      <trkpt lat="41.643131000" lon="2.489795100">
        <ele>352.90</ele>
        <time>2012-06-23T17:21:01Z</time>
      </trkpt>
      <trkpt lat="41.643311000" lon="2.489880100">
        <ele>352.90</ele>
        <time>2012-06-23T17:21:06Z</time>
      </trkpt>
      <trkpt lat="41.643574000" lon="2.490028100">
        <ele>352.90</ele>
        <time>2012-06-23T17:21:15Z</time>
      </trkpt>
      <trkpt lat="41.643764000" lon="2.490120100">
        <ele>352.90</ele>
        <time>2012-06-23T17:21:18Z</time>
      </trkpt>
      <trkpt lat="41.643822000" lon="2.490143100">
        <ele>352.00</ele>
        <time>2012-06-23T17:21:20Z</time>
      </trkpt>
      <trkpt lat="41.644154000" lon="2.490221100">
        <ele>349.10</ele>
        <time>2012-06-23T17:21:25Z</time>
      </trkpt>
      <trkpt lat="41.644215000" lon="2.490197100">
        <ele>345.70</ele>
        <time>2012-06-23T17:21:29Z</time>
      </trkpt>
      <trkpt lat="41.644283000" lon="2.490148100">
        <ele>342.90</ele>
        <time>2012-06-23T17:21:32Z</time>
      </trkpt>
      <trkpt lat="41.644291000" lon="2.490138100">
        <ele>342.40</ele>
        <time>2012-06-23T17:21:34Z</time>
      </trkpt>
      <trkpt lat="41.644196000" lon="2.490062100">
        <ele>342.40</ele>
        <time>2012-06-23T17:21:39Z</time>
      </trkpt>
      <trkpt lat="41.644020000" lon="2.489849100">
        <ele>342.40</ele>
        <time>2012-06-23T17:21:46Z</time>
      </trkpt>
      <trkpt lat="41.643864000" lon="2.489646100">
        <ele>342.40</ele>
        <time>2012-06-23T17:21:58Z</time>
      </trkpt>
      <trkpt lat="41.643864000" lon="2.489646100">
        <ele>342.40</ele>
        <time>2012-06-23T17:22:07Z</time>
      </trkpt>
      <trkpt lat="41.643864000" lon="2.489643100">
        <ele>341.90</ele>
        <time>2012-06-23T17:23:24Z</time>
      </trkpt>
      <trkpt lat="41.643772000" lon="2.489514100">
        <ele>341.90</ele>
        <time>2012-06-23T17:23:32Z</time>
      </trkpt>
      <trkpt lat="41.643597000" lon="2.489231100">
        <ele>341.90</ele>
        <time>2012-06-23T17:23:36Z</time>
      </trkpt>
      <trkpt lat="41.643459000" lon="2.488842100">
        <ele>340.40</ele>
        <time>2012-06-23T17:23:41Z</time>
      </trkpt>
      <trkpt lat="41.643559000" lon="2.488713100">
        <ele>340.90</ele>
        <time>2012-06-23T17:23:44Z</time>
      </trkpt>
      <trkpt lat="41.643635000" lon="2.488699100">
        <ele>340.00</ele>
        <time>2012-06-23T17:23:46Z</time>
      </trkpt>
      <trkpt lat="41.643848000" lon="2.488637100">
        <ele>340.00</ele>
        <time>2012-06-23T17:23:55Z</time>
      </trkpt>
      <trkpt lat="41.643974000" lon="2.488500100">
        <ele>341.40</ele>
        <time>2012-06-23T17:24:02Z</time>
      </trkpt>
      <trkpt lat="41.643986000" lon="2.488482100">
        <ele>341.40</ele>
        <time>2012-06-23T17:24:04Z</time>
      </trkpt>
      <trkpt lat="41.644112000" lon="2.488308100">
        <ele>343.30</ele>
        <time>2012-06-23T17:24:12Z</time>
      </trkpt>
      <trkpt lat="41.644077000" lon="2.488145100">
        <ele>344.30</ele>
        <time>2012-06-23T17:24:19Z</time>
      </trkpt>
      <trkpt lat="41.643967000" lon="2.487998100">
        <ele>345.70</ele>
        <time>2012-06-23T17:24:28Z</time>
      </trkpt>
      <trkpt lat="41.643875000" lon="2.487862100">
        <ele>347.60</ele>
        <time>2012-06-23T17:24:35Z</time>
      </trkpt>
      <trkpt lat="41.643810000" lon="2.487738100">
        <ele>349.60</ele>
        <time>2012-06-23T17:24:42Z</time>
      </trkpt>
      <trkpt lat="41.643784000" lon="2.487683100">
        <ele>351.50</ele>
        <time>2012-06-23T17:24:45Z</time>
      </trkpt>
      <trkpt lat="41.643764000" lon="2.487576100">
        <ele>355.30</ele>
        <time>2012-06-23T17:24:51Z</time>
      </trkpt>
      <trkpt lat="41.643745000" lon="2.487396100">
        <ele>355.30</ele>
        <time>2012-06-23T17:24:56Z</time>
      </trkpt>
      <trkpt lat="41.643921000" lon="2.487245100">
        <ele>353.90</ele>
        <time>2012-06-23T17:25:03Z</time>
      </trkpt>
      <trkpt lat="41.644112000" lon="2.487174100">
        <ele>353.90</ele>
        <time>2012-06-23T17:25:12Z</time>
      </trkpt>
      <trkpt lat="41.644165000" lon="2.487191100">
        <ele>353.90</ele>
        <time>2012-06-23T17:25:13Z</time>
      </trkpt>
      <trkpt lat="41.644348000" lon="2.487126100">
        <ele>352.90</ele>
        <time>2012-06-23T17:25:20Z</time>
      </trkpt>
      <trkpt lat="41.644386000" lon="2.487124100">
        <ele>353.40</ele>
        <time>2012-06-23T17:25:20Z</time>
      </trkpt>
      <trkpt lat="41.644485000" lon="2.487205100">
        <ele>352.50</ele>
        <time>2012-06-23T17:25:24Z</time>
      </trkpt>
      <trkpt lat="41.644577000" lon="2.487290100">
        <ele>350.50</ele>
        <time>2012-06-23T17:25:25Z</time>
      </trkpt>
      <trkpt lat="41.644672000" lon="2.487469100">
        <ele>345.70</ele>
        <time>2012-06-23T17:25:29Z</time>
      </trkpt>
      <trkpt lat="41.644783000" lon="2.487551100">
        <ele>342.40</ele>
        <time>2012-06-23T17:25:32Z</time>
      </trkpt>
      <trkpt lat="41.645000000" lon="2.487561100">
        <ele>341.90</ele>
        <time>2012-06-23T17:25:36Z</time>
      </trkpt>
      <trkpt lat="41.645145000" lon="2.487479100">
        <ele>340.90</ele>
        <time>2012-06-23T17:25:41Z</time>
      </trkpt>
      <trkpt lat="41.645145000" lon="2.487386100">
        <ele>340.90</ele>
        <time>2012-06-23T17:25:43Z</time>
      </trkpt>
      <trkpt lat="41.645103000" lon="2.487108100">
        <ele>340.40</ele>
        <time>2012-06-23T17:25:48Z</time>
      </trkpt>
      <trkpt lat="41.645164000" lon="2.486974100">
        <ele>337.60</ele>
        <time>2012-06-23T17:25:53Z</time>
      </trkpt>
      <trkpt lat="41.645271000" lon="2.486839100">
        <ele>333.70</ele>
        <time>2012-06-23T17:25:57Z</time>
      </trkpt>
      <trkpt lat="41.645298000" lon="2.486790100">
        <ele>331.80</ele>
        <time>2012-06-23T17:25:59Z</time>
      </trkpt>
      <trkpt lat="41.645256000" lon="2.486653100">
        <ele>330.80</ele>
        <time>2012-06-23T17:26:04Z</time>
      </trkpt>
      <trkpt lat="41.645084000" lon="2.486417100">
        <ele>330.80</ele>
        <time>2012-06-23T17:26:11Z</time>
      </trkpt>
      <trkpt lat="41.645031000" lon="2.486217100">
        <ele>331.80</ele>
        <time>2012-06-23T17:26:16Z</time>
      </trkpt>
      <trkpt lat="41.645035000" lon="2.486145100">
        <ele>332.80</ele>
        <time>2012-06-23T17:26:18Z</time>
      </trkpt>
      <trkpt lat="41.644962000" lon="2.486027100">
        <ele>333.20</ele>
        <time>2012-06-23T17:26:23Z</time>
      </trkpt>
      <trkpt lat="41.644878000" lon="2.485944100">
        <ele>332.80</ele>
        <time>2012-06-23T17:26:25Z</time>
      </trkpt>
      <trkpt lat="41.644890000" lon="2.485638100">
        <ele>332.80</ele>
        <time>2012-06-23T17:26:30Z</time>
      </trkpt>
      <trkpt lat="41.644909000" lon="2.485476100">
        <ele>332.80</ele>
        <time>2012-06-23T17:26:33Z</time>
      </trkpt>
      <trkpt lat="41.644855000" lon="2.485193100">
        <ele>332.80</ele>
        <time>2012-06-23T17:26:37Z</time>
      </trkpt>
      <trkpt lat="41.644703000" lon="2.484960100">
        <ele>331.80</ele>
        <time>2012-06-23T17:26:42Z</time>
      </trkpt>
      <trkpt lat="41.644508000" lon="2.484771100">
        <ele>331.80</ele>
        <time>2012-06-23T17:26:49Z</time>
      </trkpt>
      <trkpt lat="41.644306000" lon="2.484618100">
        <ele>331.30</ele>
        <time>2012-06-23T17:26:54Z</time>
      </trkpt>
      <trkpt lat="41.644245000" lon="2.484574100">
        <ele>331.30</ele>
        <time>2012-06-23T17:26:56Z</time>
      </trkpt>
      <trkpt lat="41.644249000" lon="2.484453100">
        <ele>331.30</ele>
        <time>2012-06-23T17:27:01Z</time>
      </trkpt>
      <trkpt lat="41.644455000" lon="2.484380100">
        <ele>331.30</ele>
        <time>2012-06-23T17:27:08Z</time>
      </trkpt>
      <trkpt lat="41.644646000" lon="2.484203100">
        <ele>331.30</ele>
        <time>2012-06-23T17:27:17Z</time>
      </trkpt>
      <trkpt lat="41.644722000" lon="2.484127100">
        <ele>331.30</ele>
        <time>2012-06-23T17:27:19Z</time>
      </trkpt>
      <trkpt lat="41.644897000" lon="2.484044100">
        <ele>331.30</ele>
        <time>2012-06-23T17:27:24Z</time>
      </trkpt>
      <trkpt lat="41.645031000" lon="2.484026100">
        <ele>329.90</ele>
        <time>2012-06-23T17:27:26Z</time>
      </trkpt>
      <trkpt lat="41.645119000" lon="2.483917100">
        <ele>326.00</ele>
        <time>2012-06-23T17:27:31Z</time>
      </trkpt>
      <trkpt lat="41.645130000" lon="2.483816100">
        <ele>323.10</ele>
        <time>2012-06-23T17:27:33Z</time>
      </trkpt>
      <trkpt lat="41.645130000" lon="2.483699100">
        <ele>320.70</ele>
        <time>2012-06-23T17:27:34Z</time>
      </trkpt>
      <trkpt lat="41.645157000" lon="2.483444100">
        <ele>315.90</ele>
        <time>2012-06-23T17:27:40Z</time>
      </trkpt>
      <trkpt lat="41.645222000" lon="2.483402100">
        <ele>316.90</ele>
        <time>2012-06-23T17:27:43Z</time>
      </trkpt>
      <trkpt lat="41.645313000" lon="2.483376100">
        <ele>320.30</ele>
        <time>2012-06-23T17:27:47Z</time>
      </trkpt>
      <trkpt lat="41.645374000" lon="2.483382100">
        <ele>323.60</ele>
        <time>2012-06-23T17:27:50Z</time>
      </trkpt>
      <trkpt lat="41.645519000" lon="2.483380100">
        <ele>324.10</ele>
        <time>2012-06-23T17:27:57Z</time>
      </trkpt>
      <trkpt lat="41.645664000" lon="2.483339100">
        <ele>324.60</ele>
        <time>2012-06-23T17:28:06Z</time>
      </trkpt>
      <trkpt lat="41.645771000" lon="2.483268100">
        <ele>325.50</ele>
        <time>2012-06-23T17:28:13Z</time>
      </trkpt>
      <trkpt lat="41.645870000" lon="2.483201100">
        <ele>328.90</ele>
        <time>2012-06-23T17:28:21Z</time>
      </trkpt>
      <trkpt lat="41.645882000" lon="2.483190100">
        <ele>329.40</ele>
        <time>2012-06-23T17:28:23Z</time>
      </trkpt>
      <trkpt lat="41.645866000" lon="2.483078100">
        <ele>332.80</ele>
        <time>2012-06-23T17:28:28Z</time>
      </trkpt>
      <trkpt lat="41.645817000" lon="2.483006100">
        <ele>332.80</ele>
        <time>2012-06-23T17:28:34Z</time>
      </trkpt>
      <trkpt lat="41.645836000" lon="2.482868100">
        <ele>332.80</ele>
        <time>2012-06-23T17:28:39Z</time>
      </trkpt>
      <trkpt lat="41.645889000" lon="2.482651100">
        <ele>327.50</ele>
        <time>2012-06-23T17:28:44Z</time>
      </trkpt>
      <trkpt lat="41.645908000" lon="2.482503100">
        <ele>324.10</ele>
        <time>2012-06-23T17:28:46Z</time>
      </trkpt>
      <trkpt lat="41.645954000" lon="2.482423100">
        <ele>321.20</ele>
        <time>2012-06-23T17:28:49Z</time>
      </trkpt>
      <trkpt lat="41.645996000" lon="2.482351100">
        <ele>319.30</ele>
        <time>2012-06-23T17:28:54Z</time>
      </trkpt>
      <trkpt lat="41.645996000" lon="2.482351100">
        <ele>319.30</ele>
        <time>2012-06-23T17:29:24Z</time>
      </trkpt>
      <trkpt lat="41.645992000" lon="2.482344100">
        <ele>321.70</ele>
        <time>2012-06-23T17:29:41Z</time>
      </trkpt>
      <trkpt lat="41.646107000" lon="2.482169100">
        <ele>321.70</ele>
        <time>2012-06-23T17:29:59Z</time>
      </trkpt>
      <trkpt lat="41.646324000" lon="2.482088100">
        <ele>321.70</ele>
        <time>2012-06-23T17:30:06Z</time>
      </trkpt>
      <trkpt lat="41.646481000" lon="2.482072100">
        <ele>320.30</ele>
        <time>2012-06-23T17:30:09Z</time>
      </trkpt>
      <trkpt lat="41.646660000" lon="2.481961100">
        <ele>315.90</ele>
        <time>2012-06-23T17:30:15Z</time>
      </trkpt>
      <trkpt lat="41.646736000" lon="2.481911100">
        <ele>312.60</ele>
        <time>2012-06-23T17:30:16Z</time>
      </trkpt>
      <trkpt lat="41.646809000" lon="2.481852100">
        <ele>309.20</ele>
        <time>2012-06-23T17:30:18Z</time>
      </trkpt>
      <trkpt lat="41.646904000" lon="2.481797100">
        <ele>306.30</ele>
        <time>2012-06-23T17:30:20Z</time>
      </trkpt>
      <trkpt lat="41.647110000" lon="2.481734100">
        <ele>302.00</ele>
        <time>2012-06-23T17:30:25Z</time>
      </trkpt>
      <trkpt lat="41.647316000" lon="2.481627100">
        <ele>300.50</ele>
        <time>2012-06-23T17:30:30Z</time>
      </trkpt>
      <trkpt lat="41.647343000" lon="2.481589100">
        <ele>300.50</ele>
        <time>2012-06-23T17:30:30Z</time>
      </trkpt>
      <trkpt lat="41.647438000" lon="2.481422100">
        <ele>299.60</ele>
        <time>2012-06-23T17:30:34Z</time>
      </trkpt>
      <trkpt lat="41.647488000" lon="2.481237100">
        <ele>295.30</ele>
        <time>2012-06-23T17:30:39Z</time>
      </trkpt>
      <trkpt lat="41.647499000" lon="2.481138100">
        <ele>291.90</ele>
        <time>2012-06-23T17:30:41Z</time>
      </trkpt>
      <trkpt lat="41.647469000" lon="2.481079100">
        <ele>288.50</ele>
        <time>2012-06-23T17:30:42Z</time>
      </trkpt>
      <trkpt lat="41.647411000" lon="2.481013100">
        <ele>286.10</ele>
        <time>2012-06-23T17:30:44Z</time>
      </trkpt>
      <trkpt lat="41.647305000" lon="2.480775100">
        <ele>284.70</ele>
        <time>2012-06-23T17:30:49Z</time>
      </trkpt>
      <trkpt lat="41.647255000" lon="2.480550100">
        <ele>284.70</ele>
        <time>2012-06-23T17:30:56Z</time>
      </trkpt>
      <trkpt lat="41.647259000" lon="2.480504100">
        <ele>284.70</ele>
        <time>2012-06-23T17:30:58Z</time>
      </trkpt>
      <trkpt lat="41.647293000" lon="2.480453100">
        <ele>284.70</ele>
        <time>2012-06-23T17:31:02Z</time>
      </trkpt>
      <trkpt lat="41.647366000" lon="2.480489100">
        <ele>284.70</ele>
        <time>2012-06-23T17:31:05Z</time>
      </trkpt>
      <trkpt lat="41.647522000" lon="2.480529100">
        <ele>284.70</ele>
        <time>2012-06-23T17:31:09Z</time>
      </trkpt>
      <trkpt lat="41.647682000" lon="2.480583100">
        <ele>280.40</ele>
        <time>2012-06-23T17:31:14Z</time>
      </trkpt>
      <trkpt lat="41.647755000" lon="2.480616100">
        <ele>276.00</ele>
        <time>2012-06-23T17:31:17Z</time>
      </trkpt>
      <trkpt lat="41.647774000" lon="2.480625100">
        <ele>276.00</ele>
        <time>2012-06-23T17:31:19Z</time>
      </trkpt>
      <trkpt lat="41.647785000" lon="2.480627100">
        <ele>274.60</ele>
        <time>2012-06-23T17:31:24Z</time>
      </trkpt>
      <trkpt lat="41.647785000" lon="2.480627100">
        <ele>274.60</ele>
        <time>2012-06-23T17:31:56Z</time>
      </trkpt>
      <trkpt lat="41.647800000" lon="2.480636100">
        <ele>277.00</ele>
        <time>2012-06-23T17:32:06Z</time>
      </trkpt>
      <trkpt lat="41.647942000" lon="2.480761100">
        <ele>277.00</ele>
        <time>2012-06-23T17:32:11Z</time>
      </trkpt>
      <trkpt lat="41.648071000" lon="2.480917100">
        <ele>275.60</ele>
        <time>2012-06-23T17:32:18Z</time>
      </trkpt>
      <trkpt lat="41.648102000" lon="2.480981100">
        <ele>272.70</ele>
        <time>2012-06-23T17:32:20Z</time>
      </trkpt>
      <trkpt lat="41.648167000" lon="2.481087100">
        <ele>268.40</ele>
        <time>2012-06-23T17:32:22Z</time>
      </trkpt>
      <trkpt lat="41.648220000" lon="2.481186100">
        <ele>265.00</ele>
        <time>2012-06-23T17:32:25Z</time>
      </trkpt>
      <trkpt lat="41.648251000" lon="2.481239100">
        <ele>265.00</ele>
        <time>2012-06-23T17:32:30Z</time>
      </trkpt>
      <trkpt lat="41.648251000" lon="2.481239100">
        <ele>265.00</ele>
        <time>2012-06-23T17:32:36Z</time>
      </trkpt>
      <trkpt lat="41.648247000" lon="2.481228100">
        <ele>265.90</ele>
        <time>2012-06-23T17:32:43Z</time>
      </trkpt>
      <trkpt lat="41.648247000" lon="2.481225100">
        <ele>266.90</ele>
        <time>2012-06-23T17:32:50Z</time>
      </trkpt>
      <trkpt lat="41.648247000" lon="2.481225100">
        <ele>266.90</ele>
        <time>2012-06-23T17:33:00Z</time>
      </trkpt>
      <trkpt lat="41.648247000" lon="2.481221100">
        <ele>267.40</ele>
        <time>2012-06-23T17:33:21Z</time>
      </trkpt>
      <trkpt lat="41.648289000" lon="2.481229100">
        <ele>267.40</ele>
        <time>2012-06-23T17:33:54Z</time>
      </trkpt>
      <trkpt lat="41.648506000" lon="2.481203100">
        <ele>267.40</ele>
        <time>2012-06-23T17:34:03Z</time>
      </trkpt>
      <trkpt lat="41.648659000" lon="2.481236100">
        <ele>266.90</ele>
        <time>2012-06-23T17:34:06Z</time>
      </trkpt>
      <trkpt lat="41.648865000" lon="2.481270100">
        <ele>266.90</ele>
        <time>2012-06-23T17:34:10Z</time>
      </trkpt>
      <trkpt lat="41.648968000" lon="2.481286100">
        <ele>264.50</ele>
        <time>2012-06-23T17:34:13Z</time>
      </trkpt>
      <trkpt lat="41.649185000" lon="2.481269100">
        <ele>260.20</ele>
        <time>2012-06-23T17:34:17Z</time>
      </trkpt>
      <trkpt lat="41.649277000" lon="2.481246100">
        <ele>257.80</ele>
        <time>2012-06-23T17:34:18Z</time>
      </trkpt>
      <trkpt lat="41.649406000" lon="2.481173100">
        <ele>254.90</ele>
        <time>2012-06-23T17:34:22Z</time>
      </trkpt>
      <trkpt lat="41.649567000" lon="2.480912100">
        <ele>253.90</ele>
        <time>2012-06-23T17:34:27Z</time>
      </trkpt>
      <trkpt lat="41.649647000" lon="2.480757100">
        <ele>253.90</ele>
        <time>2012-06-23T17:34:31Z</time>
      </trkpt>
      <trkpt lat="41.649681000" lon="2.480747100">
        <ele>253.90</ele>
        <time>2012-06-23T17:34:32Z</time>
      </trkpt>
      <trkpt lat="41.649921000" lon="2.480774100">
        <ele>253.90</ele>
        <time>2012-06-23T17:34:38Z</time>
      </trkpt>
      <trkpt lat="41.650093000" lon="2.480792100">
        <ele>253.40</ele>
        <time>2012-06-23T17:34:43Z</time>
      </trkpt>
      <trkpt lat="41.650154000" lon="2.480763100">
        <ele>253.00</ele>
        <time>2012-06-23T17:34:46Z</time>
      </trkpt>
      <trkpt lat="41.650173000" lon="2.480766100">
        <ele>253.00</ele>
        <time>2012-06-23T17:34:48Z</time>
      </trkpt>
      <trkpt lat="41.650173000" lon="2.480828100">
        <ele>253.00</ele>
        <time>2012-06-23T17:34:57Z</time>
      </trkpt>
      <trkpt lat="41.650196000" lon="2.480989100">
        <ele>253.90</ele>
        <time>2012-06-23T17:35:06Z</time>
      </trkpt>
      <trkpt lat="41.650196000" lon="2.481039100">
        <ele>254.40</ele>
        <time>2012-06-23T17:35:09Z</time>
      </trkpt>
      <trkpt lat="41.650253000" lon="2.481193100">
        <ele>257.80</ele>
        <time>2012-06-23T17:35:18Z</time>
      </trkpt>
      <trkpt lat="41.650253000" lon="2.481203100">
        <ele>259.70</ele>
        <time>2012-06-23T17:35:21Z</time>
      </trkpt>
      <trkpt lat="41.650261000" lon="2.481209100">
        <ele>260.60</ele>
        <time>2012-06-23T17:35:28Z</time>
      </trkpt>
      <trkpt lat="41.650261000" lon="2.481209100">
        <ele>260.60</ele>
        <time>2012-06-23T17:35:47Z</time>
      </trkpt>
      <trkpt lat="41.650265000" lon="2.481244100">
        <ele>259.70</ele>
        <time>2012-06-23T17:36:19Z</time>
      </trkpt>
      <trkpt lat="41.650257000" lon="2.481336100">
        <ele>259.70</ele>
        <time>2012-06-23T17:36:26Z</time>
      </trkpt>
      <trkpt lat="41.650150000" lon="2.481365100">
        <ele>259.70</ele>
        <time>2012-06-23T17:36:31Z</time>
      </trkpt>
      <trkpt lat="41.650059000" lon="2.481356100">
        <ele>260.20</ele>
        <time>2012-06-23T17:36:38Z</time>
      </trkpt>
      <trkpt lat="41.649994000" lon="2.481380100">
        <ele>260.60</ele>
        <time>2012-06-23T17:36:45Z</time>
      </trkpt>
      <trkpt lat="41.649872000" lon="2.481445100">
        <ele>261.60</ele>
        <time>2012-06-23T17:36:52Z</time>
      </trkpt>
      <trkpt lat="41.649750000" lon="2.481560100">
        <ele>262.10</ele>
        <time>2012-06-23T17:37:02Z</time>
      </trkpt>
      <trkpt lat="41.649616000" lon="2.481632100">
        <ele>263.50</ele>
        <time>2012-06-23T17:37:09Z</time>
      </trkpt>
      <trkpt lat="41.649544000" lon="2.481669100">
        <ele>263.10</ele>
        <time>2012-06-23T17:37:14Z</time>
      </trkpt>
      <trkpt lat="41.649479000" lon="2.481753100">
        <ele>264.50</ele>
        <time>2012-06-23T17:37:20Z</time>
      </trkpt>
      <trkpt lat="41.649429000" lon="2.481862100">
        <ele>265.00</ele>
        <time>2012-06-23T17:37:25Z</time>
      </trkpt>
      <trkpt lat="41.649288000" lon="2.481888100">
        <ele>265.50</ele>
        <time>2012-06-23T17:37:32Z</time>
      </trkpt>
      <trkpt lat="41.649189000" lon="2.481897100">
        <ele>265.90</ele>
        <time>2012-06-23T17:37:39Z</time>
      </trkpt>
      <trkpt lat="41.649078000" lon="2.481956100">
        <ele>266.40</ele>
        <time>2012-06-23T17:37:46Z</time>
      </trkpt>
      <trkpt lat="41.648933000" lon="2.482053100">
        <ele>267.40</ele>
        <time>2012-06-23T17:37:54Z</time>
      </trkpt>
      <trkpt lat="41.648823000" lon="2.482220100">
        <ele>269.30</ele>
        <time>2012-06-23T17:38:05Z</time>
      </trkpt>
      <trkpt lat="41.648796000" lon="2.482270100">
        <ele>269.80</ele>
        <time>2012-06-23T17:38:07Z</time>
      </trkpt>
      <trkpt lat="41.648792000" lon="2.482342100">
        <ele>270.80</ele>
        <time>2012-06-23T17:38:15Z</time>
      </trkpt>
      <trkpt lat="41.648838000" lon="2.482300100">
        <ele>272.20</ele>
        <time>2012-06-23T17:38:22Z</time>
      </trkpt>
      <trkpt lat="41.648979000" lon="2.482284100">
        <ele>273.10</ele>
        <time>2012-06-23T17:38:31Z</time>
      </trkpt>
      <trkpt lat="41.649063000" lon="2.482275100">
        <ele>274.10</ele>
        <time>2012-06-23T17:38:36Z</time>
      </trkpt>
      <trkpt lat="41.649124000" lon="2.482286100">
        <ele>275.10</ele>
        <time>2012-06-23T17:38:40Z</time>
      </trkpt>
      <trkpt lat="41.649315000" lon="2.482305100">
        <ele>276.00</ele>
        <time>2012-06-23T17:38:50Z</time>
      </trkpt>
      <trkpt lat="41.649487000" lon="2.482292100">
        <ele>276.00</ele>
        <time>2012-06-23T17:38:57Z</time>
      </trkpt>
      <trkpt lat="41.649586000" lon="2.482276100">
        <ele>276.50</ele>
        <time>2012-06-23T17:39:01Z</time>
      </trkpt>
      <trkpt lat="41.649719000" lon="2.482243100">
        <ele>277.50</ele>
        <time>2012-06-23T17:39:09Z</time>
      </trkpt>
      <trkpt lat="41.649864000" lon="2.482242100">
        <ele>278.90</ele>
        <time>2012-06-23T17:39:16Z</time>
      </trkpt>
      <trkpt lat="41.650005000" lon="2.482319100">
        <ele>279.90</ele>
        <time>2012-06-23T17:39:25Z</time>
      </trkpt>
      <trkpt lat="41.650116000" lon="2.482441100">
        <ele>281.30</ele>
        <time>2012-06-23T17:39:32Z</time>
      </trkpt>
      <trkpt lat="41.650200000" lon="2.482685100">
        <ele>281.80</ele>
        <time>2012-06-23T17:39:39Z</time>
      </trkpt>
      <trkpt lat="41.650295000" lon="2.482866100">
        <ele>282.80</ele>
        <time>2012-06-23T17:39:46Z</time>
      </trkpt>
      <trkpt lat="41.650425000" lon="2.482915100">
        <ele>284.20</ele>
        <time>2012-06-23T17:39:53Z</time>
      </trkpt>
      <trkpt lat="41.650574000" lon="2.482931100">
        <ele>284.70</ele>
        <time>2012-06-23T17:40:00Z</time>
      </trkpt>
      <trkpt lat="41.650707000" lon="2.482928100">
        <ele>285.60</ele>
        <time>2012-06-23T17:40:09Z</time>
      </trkpt>
      <trkpt lat="41.650845000" lon="2.482949100">
        <ele>288.00</ele>
        <time>2012-06-23T17:40:17Z</time>
      </trkpt>
      <trkpt lat="41.650978000" lon="2.482989100">
        <ele>289.50</ele>
        <time>2012-06-23T17:40:26Z</time>
      </trkpt>
      <trkpt lat="41.651054000" lon="2.483046100">
        <ele>290.00</ele>
        <time>2012-06-23T17:40:31Z</time>
      </trkpt>
      <trkpt lat="41.651070000" lon="2.483114100">
        <ele>291.40</ele>
        <time>2012-06-23T17:40:35Z</time>
      </trkpt>
      <trkpt lat="41.651085000" lon="2.483288100">
        <ele>292.40</ele>
        <time>2012-06-23T17:40:42Z</time>
      </trkpt>
      <trkpt lat="41.651089000" lon="2.483330100">
        <ele>292.90</ele>
        <time>2012-06-23T17:40:45Z</time>
      </trkpt>
      <trkpt lat="41.651115000" lon="2.483402100">
        <ele>293.30</ele>
        <time>2012-06-23T17:40:47Z</time>
      </trkpt>
      <trkpt lat="41.651222000" lon="2.483429100">
        <ele>293.30</ele>
        <time>2012-06-23T17:40:52Z</time>
      </trkpt>
      <trkpt lat="41.651245000" lon="2.483411100">
        <ele>293.30</ele>
        <time>2012-06-23T17:40:52Z</time>
      </trkpt>
      <trkpt lat="41.651318000" lon="2.483366100">
        <ele>293.30</ele>
        <time>2012-06-23T17:40:56Z</time>
      </trkpt>
      <trkpt lat="41.651344000" lon="2.483447100">
        <ele>293.30</ele>
        <time>2012-06-23T17:41:01Z</time>
      </trkpt>
      <trkpt lat="41.651237000" lon="2.483600100">
        <ele>293.30</ele>
        <time>2012-06-23T17:41:06Z</time>
      </trkpt>
      <trkpt lat="41.651218000" lon="2.483837100">
        <ele>293.30</ele>
        <time>2012-06-23T17:41:11Z</time>
      </trkpt>
      <trkpt lat="41.651119000" lon="2.483973100">
        <ele>291.90</ele>
        <time>2012-06-23T17:41:15Z</time>
      </trkpt>
      <trkpt lat="41.651093000" lon="2.484001100">
        <ele>291.40</ele>
        <time>2012-06-23T17:41:17Z</time>
      </trkpt>
      <trkpt lat="41.651020000" lon="2.484085100">
        <ele>291.90</ele>
        <time>2012-06-23T17:41:18Z</time>
      </trkpt>
      <trkpt lat="41.650913000" lon="2.484345100">
        <ele>290.90</ele>
        <time>2012-06-23T17:41:23Z</time>
      </trkpt>
      <trkpt lat="41.650906000" lon="2.484542100">
        <ele>289.50</ele>
        <time>2012-06-23T17:41:27Z</time>
      </trkpt>
      <trkpt lat="41.651039000" lon="2.484622100">
        <ele>289.00</ele>
        <time>2012-06-23T17:41:32Z</time>
      </trkpt>
      <trkpt lat="41.651363000" lon="2.484619100">
        <ele>284.70</ele>
        <time>2012-06-23T17:41:39Z</time>
      </trkpt>
      <trkpt lat="41.651478000" lon="2.484702100">
        <ele>281.30</ele>
        <time>2012-06-23T17:41:43Z</time>
      </trkpt>
      <trkpt lat="41.651505000" lon="2.484918100">
        <ele>277.50</ele>
        <time>2012-06-23T17:41:46Z</time>
      </trkpt>
      <trkpt lat="41.651630000" lon="2.484997100">
        <ele>276.50</ele>
        <time>2012-06-23T17:41:50Z</time>
      </trkpt>
      <trkpt lat="41.651733000" lon="2.485007100">
        <ele>277.00</ele>
        <time>2012-06-23T17:41:53Z</time>
      </trkpt>
      <trkpt lat="41.652058000" lon="2.484805100">
        <ele>277.00</ele>
        <time>2012-06-23T17:42:00Z</time>
      </trkpt>
      <trkpt lat="41.652107000" lon="2.484762100">
        <ele>277.00</ele>
        <time>2012-06-23T17:42:02Z</time>
      </trkpt>
      <trkpt lat="41.652512000" lon="2.484392100">
        <ele>272.70</ele>
        <time>2012-06-23T17:42:09Z</time>
      </trkpt>
      <trkpt lat="41.652817000" lon="2.484353100">
        <ele>271.20</ele>
        <time>2012-06-23T17:42:16Z</time>
      </trkpt>
      <trkpt lat="41.652996000" lon="2.484288100">
        <ele>271.20</ele>
        <time>2012-06-23T17:42:21Z</time>
      </trkpt>
      <trkpt lat="41.653187000" lon="2.483958100">
        <ele>270.30</ele>
        <time>2012-06-23T17:42:28Z</time>
      </trkpt>
      <trkpt lat="41.653301000" lon="2.483859100">
        <ele>269.80</ele>
        <time>2012-06-23T17:42:33Z</time>
      </trkpt>
      <trkpt lat="41.653412000" lon="2.483818100">
        <ele>269.80</ele>
        <time>2012-06-23T17:42:37Z</time>
      </trkpt>
      <trkpt lat="41.653584000" lon="2.483704100">
        <ele>269.80</ele>
        <time>2012-06-23T17:42:45Z</time>
      </trkpt>
      <trkpt lat="41.653759000" lon="2.483573100">
        <ele>271.20</ele>
        <time>2012-06-23T17:42:52Z</time>
      </trkpt>
      <trkpt lat="41.653885000" lon="2.483465100">
        <ele>272.20</ele>
        <time>2012-06-23T17:42:59Z</time>
      </trkpt>
      <trkpt lat="41.653988000" lon="2.483371100">
        <ele>272.20</ele>
        <time>2012-06-23T17:43:03Z</time>
      </trkpt>
      <trkpt lat="41.654037000" lon="2.483409100">
        <ele>272.70</ele>
        <time>2012-06-23T17:43:08Z</time>
      </trkpt>
      <trkpt lat="41.654034000" lon="2.483451100">
        <ele>273.60</ele>
        <time>2012-06-23T17:43:10Z</time>
      </trkpt>
      <trkpt lat="41.653992000" lon="2.483524100">
        <ele>274.10</ele>
        <time>2012-06-23T17:43:13Z</time>
      </trkpt>
      <trkpt lat="41.653965000" lon="2.483624100">
        <ele>274.60</ele>
        <time>2012-06-23T17:43:17Z</time>
      </trkpt>
      <trkpt lat="41.653931000" lon="2.483712100">
        <ele>275.10</ele>
        <time>2012-06-23T17:43:22Z</time>
      </trkpt>
      <trkpt lat="41.653866000" lon="2.483899100">
        <ele>276.00</ele>
        <time>2012-06-23T17:43:31Z</time>
      </trkpt>
      <trkpt lat="41.653759000" lon="2.484030100">
        <ele>277.00</ele>
        <time>2012-06-23T17:43:38Z</time>
      </trkpt>
      <trkpt lat="41.653679000" lon="2.484185100">
        <ele>277.50</ele>
        <time>2012-06-23T17:43:43Z</time>
      </trkpt>
      <trkpt lat="41.653599000" lon="2.484351100">
        <ele>278.90</ele>
        <time>2012-06-23T17:43:53Z</time>
      </trkpt>
      <trkpt lat="41.653469000" lon="2.484507100">
        <ele>280.40</ele>
        <time>2012-06-23T17:44:02Z</time>
      </trkpt>
      <trkpt lat="41.653431000" lon="2.484567100">
        <ele>280.80</ele>
        <time>2012-06-23T17:44:04Z</time>
      </trkpt>
      <trkpt lat="41.653393000" lon="2.484648100">
        <ele>282.30</ele>
        <time>2012-06-23T17:44:09Z</time>
      </trkpt>
      <trkpt lat="41.653355000" lon="2.484916100">
        <ele>283.70</ele>
        <time>2012-06-23T17:44:18Z</time>
      </trkpt>
      <trkpt lat="41.653286000" lon="2.485111100">
        <ele>285.20</ele>
        <time>2012-06-23T17:44:25Z</time>
      </trkpt>
      <trkpt lat="41.653164000" lon="2.485317100">
        <ele>286.10</ele>
        <time>2012-06-23T17:44:35Z</time>
      </trkpt>
      <trkpt lat="41.653038000" lon="2.485464100">
        <ele>288.00</ele>
        <time>2012-06-23T17:44:42Z</time>
      </trkpt>
      <trkpt lat="41.652870000" lon="2.485422100">
        <ele>289.50</ele>
        <time>2012-06-23T17:44:51Z</time>
      </trkpt>
      <trkpt lat="41.652710000" lon="2.485345100">
        <ele>290.50</ele>
        <time>2012-06-23T17:44:58Z</time>
      </trkpt>
      <trkpt lat="41.652584000" lon="2.485373100">
        <ele>291.40</ele>
        <time>2012-06-23T17:45:05Z</time>
      </trkpt>
      <trkpt lat="41.652393000" lon="2.485456100">
        <ele>292.40</ele>
        <time>2012-06-23T17:45:12Z</time>
      </trkpt>
      <trkpt lat="41.652214000" lon="2.485490100">
        <ele>292.90</ele>
        <time>2012-06-23T17:45:19Z</time>
      </trkpt>
      <trkpt lat="41.652069000" lon="2.485630100">
        <ele>292.90</ele>
        <time>2012-06-23T17:45:26Z</time>
      </trkpt>
      <trkpt lat="41.652016000" lon="2.485713100">
        <ele>292.90</ele>
        <time>2012-06-23T17:45:29Z</time>
      </trkpt>
      <trkpt lat="41.652020000" lon="2.485756100">
        <ele>292.90</ele>
        <time>2012-06-23T17:45:36Z</time>
      </trkpt>
      <trkpt lat="41.652027000" lon="2.485752100">
        <ele>292.90</ele>
        <time>2012-06-23T17:45:43Z</time>
      </trkpt>
      <trkpt lat="41.652050000" lon="2.485765100">
        <ele>292.90</ele>
        <time>2012-06-23T17:45:50Z</time>
      </trkpt>
      <trkpt lat="41.652157000" lon="2.485675100">
        <ele>293.80</ele>
        <time>2012-06-23T17:45:59Z</time>
      </trkpt>
      <trkpt lat="41.652271000" lon="2.485678100">
        <ele>294.80</ele>
        <time>2012-06-23T17:46:07Z</time>
      </trkpt>
      <trkpt lat="41.652348000" lon="2.485756100">
        <ele>295.70</ele>
        <time>2012-06-23T17:46:14Z</time>
      </trkpt>
      <trkpt lat="41.652393000" lon="2.485824100">
        <ele>297.20</ele>
        <time>2012-06-23T17:46:20Z</time>
      </trkpt>
      <trkpt lat="41.652512000" lon="2.485910100">
        <ele>300.50</ele>
        <time>2012-06-23T17:46:30Z</time>
      </trkpt>
      <trkpt lat="41.652523000" lon="2.485916100">
        <ele>301.00</ele>
        <time>2012-06-23T17:46:30Z</time>
      </trkpt>
      <trkpt lat="41.652569000" lon="2.485945100">
        <ele>304.40</ele>
        <time>2012-06-23T17:46:35Z</time>
      </trkpt>
      <trkpt lat="41.652683000" lon="2.486088100">
        <ele>306.30</ele>
        <time>2012-06-23T17:46:44Z</time>
      </trkpt>
      <trkpt lat="41.652752000" lon="2.486202100">
        <ele>306.30</ele>
        <time>2012-06-23T17:46:53Z</time>
      </trkpt>
      <trkpt lat="41.652779000" lon="2.486255100">
        <ele>306.30</ele>
        <time>2012-06-23T17:46:56Z</time>
      </trkpt>
      <trkpt lat="41.652798000" lon="2.486416100">
        <ele>307.30</ele>
        <time>2012-06-23T17:47:05Z</time>
      </trkpt>
      <trkpt lat="41.652782000" lon="2.486567100">
        <ele>308.20</ele>
        <time>2012-06-23T17:47:12Z</time>
      </trkpt>
      <trkpt lat="41.652756000" lon="2.486701100">
        <ele>308.20</ele>
        <time>2012-06-23T17:47:19Z</time>
      </trkpt>
      <trkpt lat="41.652725000" lon="2.486842100">
        <ele>309.20</ele>
        <time>2012-06-23T17:47:28Z</time>
      </trkpt>
      <trkpt lat="41.652687000" lon="2.486977100">
        <ele>311.10</ele>
        <time>2012-06-23T17:47:36Z</time>
      </trkpt>
      <trkpt lat="41.652660000" lon="2.487080100">
        <ele>312.10</ele>
        <time>2012-06-23T17:47:43Z</time>
      </trkpt>
      <trkpt lat="41.652657000" lon="2.487104100">
        <ele>313.00</ele>
        <time>2012-06-23T17:47:45Z</time>
      </trkpt>
      <trkpt lat="41.652645000" lon="2.487189100">
        <ele>316.90</ele>
        <time>2012-06-23T17:47:50Z</time>
      </trkpt>
      <trkpt lat="41.652622000" lon="2.487262100">
        <ele>320.30</ele>
        <time>2012-06-23T17:47:55Z</time>
      </trkpt>
      <trkpt lat="41.652596000" lon="2.487348100">
        <ele>319.80</ele>
        <time>2012-06-23T17:48:02Z</time>
      </trkpt>
      <trkpt lat="41.652554000" lon="2.487452100">
        <ele>319.80</ele>
        <time>2012-06-23T17:48:09Z</time>
      </trkpt>
      <trkpt lat="41.652550000" lon="2.487466100">
        <ele>319.80</ele>
        <time>2012-06-23T17:48:11Z</time>
      </trkpt>
      <trkpt lat="41.652481000" lon="2.487557100">
        <ele>320.30</ele>
        <time>2012-06-23T17:48:18Z</time>
      </trkpt>
      <trkpt lat="41.652447000" lon="2.487571100">
        <ele>320.30</ele>
        <time>2012-06-23T17:48:20Z</time>
      </trkpt>
      <trkpt lat="41.652351000" lon="2.487661100">
        <ele>320.30</ele>
        <time>2012-06-23T17:48:27Z</time>
      </trkpt>
      <trkpt lat="41.652153000" lon="2.487567100">
        <ele>320.30</ele>
        <time>2012-06-23T17:48:36Z</time>
      </trkpt>
      <trkpt lat="41.652084000" lon="2.487497100">
        <ele>320.30</ele>
        <time>2012-06-23T17:48:41Z</time>
      </trkpt>
      <trkpt lat="41.652058000" lon="2.487453100">
        <ele>320.70</ele>
        <time>2012-06-23T17:48:48Z</time>
      </trkpt>
      <trkpt lat="41.652058000" lon="2.487453100">
        <ele>320.70</ele>
        <time>2012-06-23T17:48:56Z</time>
      </trkpt>
      <trkpt lat="41.652058000" lon="2.487453100">
        <ele>320.70</ele>
        <time>2012-06-23T17:49:03Z</time>
      </trkpt>
      <trkpt lat="41.652058000" lon="2.487453100">
        <ele>320.70</ele>
        <time>2012-06-23T17:49:10Z</time>
      </trkpt>
      <trkpt lat="41.652058000" lon="2.487458100">
        <ele>322.20</ele>
        <time>2012-06-23T17:49:33Z</time>
      </trkpt>
      <trkpt lat="41.652054000" lon="2.487466100">
        <ele>322.20</ele>
        <time>2012-06-23T17:50:13Z</time>
      </trkpt>
      <trkpt lat="41.652050000" lon="2.487480100">
        <ele>322.20</ele>
        <time>2012-06-23T17:50:58Z</time>
      </trkpt>
      <trkpt lat="41.652050000" lon="2.487480100">
        <ele>322.20</ele>
        <time>2012-06-23T17:51:24Z</time>
      </trkpt>
      <trkpt lat="41.652042000" lon="2.487494100">
        <ele>322.70</ele>
        <time>2012-06-23T17:52:15Z</time>
      </trkpt>
      <trkpt lat="41.652042000" lon="2.487498100">
        <ele>322.70</ele>
        <time>2012-06-23T17:52:57Z</time>
      </trkpt>
      <trkpt lat="41.652042000" lon="2.487498100">
        <ele>322.70</ele>
        <time>2012-06-23T17:53:18Z</time>
      </trkpt>
      <trkpt lat="41.652042000" lon="2.487499100">
        <ele>323.10</ele>
        <time>2012-06-23T17:53:39Z</time>
      </trkpt>
      <trkpt lat="41.652039000" lon="2.487503100">
        <ele>323.10</ele>
        <time>2012-06-23T17:54:26Z</time>
      </trkpt>
      <trkpt lat="41.652039000" lon="2.487509100">
        <ele>323.10</ele>
        <time>2012-06-23T17:54:50Z</time>
      </trkpt>
      <trkpt lat="41.652035000" lon="2.487507100">
        <ele>323.10</ele>
        <time>2012-06-23T17:55:30Z</time>
      </trkpt>
      <trkpt lat="41.652035000" lon="2.487507100">
        <ele>323.10</ele>
        <time>2012-06-23T17:55:48Z</time>
      </trkpt>
      <trkpt lat="41.652035000" lon="2.487498100">
        <ele>321.70</ele>
        <time>2012-06-23T17:56:14Z</time>
      </trkpt>
      <trkpt lat="41.652027000" lon="2.487467100">
        <ele>321.70</ele>
        <time>2012-06-23T17:56:22Z</time>
      </trkpt>
      <trkpt lat="41.652012000" lon="2.487395100">
        <ele>321.20</ele>
        <time>2012-06-23T17:56:26Z</time>
      </trkpt>
      <trkpt lat="41.651993000" lon="2.487258100">
        <ele>320.30</ele>
        <time>2012-06-23T17:56:33Z</time>
      </trkpt>
      <trkpt lat="41.651989000" lon="2.487235100">
        <ele>320.30</ele>
        <time>2012-06-23T17:56:35Z</time>
      </trkpt>
      <trkpt lat="41.651947000" lon="2.487068100">
        <ele>319.30</ele>
        <time>2012-06-23T17:56:40Z</time>
      </trkpt>
      <trkpt lat="41.651909000" lon="2.486973100">
        <ele>318.30</ele>
        <time>2012-06-23T17:56:47Z</time>
      </trkpt>
      <trkpt lat="41.651886000" lon="2.486903100">
        <ele>317.90</ele>
        <time>2012-06-23T17:56:52Z</time>
      </trkpt>
      <trkpt lat="41.651890000" lon="2.486902100">
        <ele>317.90</ele>
        <time>2012-06-23T17:56:59Z</time>
      </trkpt>
      <trkpt lat="41.651890000" lon="2.486900100">
        <ele>317.90</ele>
        <time>2012-06-23T17:57:11Z</time>
      </trkpt>
      <trkpt lat="41.651886000" lon="2.486897100">
        <ele>317.90</ele>
        <time>2012-06-23T17:57:39Z</time>
      </trkpt>
      <trkpt lat="41.651886000" lon="2.486893100">
        <ele>317.90</ele>
        <time>2012-06-23T17:58:23Z</time>
      </trkpt>
      <trkpt lat="41.651882000" lon="2.486889100">
        <ele>317.90</ele>
        <time>2012-06-23T17:58:57Z</time>
      </trkpt>
      <trkpt lat="41.651878000" lon="2.486875100">
        <ele>317.90</ele>
        <time>2012-06-23T18:00:14Z</time>
      </trkpt>
      <trkpt lat="41.651875000" lon="2.486872100">
        <ele>317.90</ele>
        <time>2012-06-23T18:01:48Z</time>
      </trkpt>
      <trkpt lat="41.651871000" lon="2.486875100">
        <ele>317.90</ele>
        <time>2012-06-23T18:02:30Z</time>
      </trkpt>
      <trkpt lat="41.651871000" lon="2.486877100">
        <ele>317.90</ele>
        <time>2012-06-23T18:03:08Z</time>
      </trkpt>
      <trkpt lat="41.651875000" lon="2.486882100">
        <ele>317.90</ele>
        <time>2012-06-23T18:04:18Z</time>
      </trkpt>
      <trkpt lat="41.651878000" lon="2.486879100">
        <ele>317.90</ele>
        <time>2012-06-23T18:05:19Z</time>
      </trkpt>
      <trkpt lat="41.651878000" lon="2.486875100">
        <ele>317.90</ele>
        <time>2012-06-23T18:05:50Z</time>
      </trkpt>
      <trkpt lat="41.651882000" lon="2.486871100">
        <ele>317.90</ele>
        <time>2012-06-23T18:06:58Z</time>
      </trkpt>
      <trkpt lat="41.651878000" lon="2.486866100">
        <ele>317.90</ele>
        <time>2012-06-23T18:07:38Z</time>
      </trkpt>
      <trkpt lat="41.651875000" lon="2.486870100">
        <ele>317.90</ele>
        <time>2012-06-23T18:09:56Z</time>
      </trkpt>
      <trkpt lat="41.651878000" lon="2.486868100">
        <ele>317.90</ele>
        <time>2012-06-23T18:11:06Z</time>
      </trkpt>
      <trkpt lat="41.651878000" lon="2.486868100">
        <ele>317.90</ele>
        <time>2012-06-23T18:11:23Z</time>
      </trkpt>
      <trkpt lat="41.651890000" lon="2.486870100">
        <ele>318.80</ele>
        <time>2012-06-23T18:13:42Z</time>
      </trkpt>
      <trkpt lat="41.651882000" lon="2.486883100">
        <ele>318.80</ele>
        <time>2012-06-23T18:14:07Z</time>
      </trkpt>
      <trkpt lat="41.651882000" lon="2.486898100">
        <ele>318.80</ele>
        <time>2012-06-23T18:14:21Z</time>
      </trkpt>
      <trkpt lat="41.651897000" lon="2.486919100">
        <ele>318.80</ele>
        <time>2012-06-23T18:14:22Z</time>
      </trkpt>
      <trkpt lat="41.651901000" lon="2.486971100">
        <ele>318.80</ele>
        <time>2012-06-23T18:14:29Z</time>
      </trkpt>
      <trkpt lat="41.651882000" lon="2.486975100">
        <ele>318.80</ele>
        <time>2012-06-23T18:14:36Z</time>
      </trkpt>
      <trkpt lat="41.651817000" lon="2.486827100">
        <ele>317.40</ele>
        <time>2012-06-23T18:14:48Z</time>
      </trkpt>
      <trkpt lat="41.651791000" lon="2.486680100">
        <ele>315.90</ele>
        <time>2012-06-23T18:14:55Z</time>
      </trkpt>
      <trkpt lat="41.651756000" lon="2.486575100">
        <ele>312.10</ele>
        <time>2012-06-23T18:15:01Z</time>
      </trkpt>
      <trkpt lat="41.651749000" lon="2.486559100">
        <ele>311.60</ele>
        <time>2012-06-23T18:15:01Z</time>
      </trkpt>
      <trkpt lat="41.651726000" lon="2.486531100">
        <ele>310.60</ele>
        <time>2012-06-23T18:15:04Z</time>
      </trkpt>
      <trkpt lat="41.651699000" lon="2.486520100">
        <ele>310.20</ele>
        <time>2012-06-23T18:15:06Z</time>
      </trkpt>
      <trkpt lat="41.651684000" lon="2.486511100">
        <ele>309.20</ele>
        <time>2012-06-23T18:15:13Z</time>
      </trkpt>
      <trkpt lat="41.651676000" lon="2.486479100">
        <ele>309.20</ele>
        <time>2012-06-23T18:15:27Z</time>
      </trkpt>
      <trkpt lat="41.651676000" lon="2.486483100">
        <ele>309.20</ele>
        <time>2012-06-23T18:15:34Z</time>
      </trkpt>
      <trkpt lat="41.651676000" lon="2.486483100">
        <ele>309.20</ele>
        <time>2012-06-23T18:15:42Z</time>
      </trkpt>
      <trkpt lat="41.651611000" lon="2.486321100">
        <ele>307.80</ele>
        <time>2012-06-23T18:15:51Z</time>
      </trkpt>
      <trkpt lat="41.651608000" lon="2.486311100">
        <ele>305.80</ele>
        <time>2012-06-23T18:16:00Z</time>
      </trkpt>
      <trkpt lat="41.651608000" lon="2.486311100">
        <ele>305.80</ele>
        <time>2012-06-23T18:16:26Z</time>
      </trkpt>
      <trkpt lat="41.651558000" lon="2.486285100">
        <ele>301.00</ele>
        <time>2012-06-23T18:16:33Z</time>
      </trkpt>
      <trkpt lat="41.651516000" lon="2.486269100">
        <ele>300.50</ele>
        <time>2012-06-23T18:16:42Z</time>
      </trkpt>
      <trkpt lat="41.651505000" lon="2.486265100">
        <ele>300.10</ele>
        <time>2012-06-23T18:16:47Z</time>
      </trkpt>
      <trkpt lat="41.651409000" lon="2.486290100">
        <ele>299.60</ele>
        <time>2012-06-23T18:16:52Z</time>
      </trkpt>
      <trkpt lat="41.651321000" lon="2.486304100">
        <ele>298.10</ele>
        <time>2012-06-23T18:16:59Z</time>
      </trkpt>
      <trkpt lat="41.651321000" lon="2.486304100">
        <ele>298.10</ele>
        <time>2012-06-23T18:17:06Z</time>
      </trkpt>
      <trkpt lat="41.651249000" lon="2.486245100">
        <ele>296.70</ele>
        <time>2012-06-23T18:17:11Z</time>
      </trkpt>
      <trkpt lat="41.651146000" lon="2.486155100">
        <ele>296.70</ele>
        <time>2012-06-23T18:17:18Z</time>
      </trkpt>
      <trkpt lat="41.650993000" lon="2.486058100">
        <ele>296.70</ele>
        <time>2012-06-23T18:17:25Z</time>
      </trkpt>
      <trkpt lat="41.650833000" lon="2.485994100">
        <ele>296.20</ele>
        <time>2012-06-23T18:17:34Z</time>
      </trkpt>
      <trkpt lat="41.650791000" lon="2.486011100">
        <ele>296.20</ele>
        <time>2012-06-23T18:17:36Z</time>
      </trkpt>
      <trkpt lat="41.650703000" lon="2.486080100">
        <ele>296.20</ele>
        <time>2012-06-23T18:17:39Z</time>
      </trkpt>
      <trkpt lat="41.650639000" lon="2.486157100">
        <ele>296.20</ele>
        <time>2012-06-23T18:17:43Z</time>
      </trkpt>
      <trkpt lat="41.650452000" lon="2.486453100">
        <ele>297.20</ele>
        <time>2012-06-23T18:17:53Z</time>
      </trkpt>
      <trkpt lat="41.650410000" lon="2.486542100">
        <ele>297.70</ele>
        <time>2012-06-23T18:17:58Z</time>
      </trkpt>
      <trkpt lat="41.650341000" lon="2.486760100">
        <ele>300.10</ele>
        <time>2012-06-23T18:18:07Z</time>
      </trkpt>
      <trkpt lat="41.650333000" lon="2.486925100">
        <ele>301.00</ele>
        <time>2012-06-23T18:18:12Z</time>
      </trkpt>
      <trkpt lat="41.650333000" lon="2.486953100">
        <ele>302.50</ele>
        <time>2012-06-23T18:18:19Z</time>
      </trkpt>
      <trkpt lat="41.650333000" lon="2.487001100">
        <ele>303.40</ele>
        <time>2012-06-23T18:18:26Z</time>
      </trkpt>
      <trkpt lat="41.650341000" lon="2.487102100">
        <ele>304.40</ele>
        <time>2012-06-23T18:18:35Z</time>
      </trkpt>
      <trkpt lat="41.650333000" lon="2.487165100">
        <ele>305.40</ele>
        <time>2012-06-23T18:18:42Z</time>
      </trkpt>
      <trkpt lat="41.650333000" lon="2.487165100">
        <ele>305.40</ele>
        <time>2012-06-23T18:18:49Z</time>
      </trkpt>
      <trkpt lat="41.650223000" lon="2.487281100">
        <ele>307.80</ele>
        <time>2012-06-23T18:18:59Z</time>
      </trkpt>
      <trkpt lat="41.650139000" lon="2.487392100">
        <ele>308.70</ele>
        <time>2012-06-23T18:19:08Z</time>
      </trkpt>
      <trkpt lat="41.650055000" lon="2.487487100">
        <ele>309.70</ele>
        <time>2012-06-23T18:19:15Z</time>
      </trkpt>
      <trkpt lat="41.650005000" lon="2.487620100">
        <ele>311.60</ele>
        <time>2012-06-23T18:19:24Z</time>
      </trkpt>
      <trkpt lat="41.649998000" lon="2.487717100">
        <ele>312.60</ele>
        <time>2012-06-23T18:19:29Z</time>
      </trkpt>
      <trkpt lat="41.649891000" lon="2.487823100">
        <ele>313.00</ele>
        <time>2012-06-23T18:19:34Z</time>
      </trkpt>
      <trkpt lat="41.649776000" lon="2.487753100">
        <ele>313.00</ele>
        <time>2012-06-23T18:19:38Z</time>
      </trkpt>
      <trkpt lat="41.649700000" lon="2.487677100">
        <ele>313.00</ele>
        <time>2012-06-23T18:19:39Z</time>
      </trkpt>
      <trkpt lat="41.649632000" lon="2.487581100">
        <ele>313.00</ele>
        <time>2012-06-23T18:19:41Z</time>
      </trkpt>
      <trkpt lat="41.649467000" lon="2.487536100">
        <ele>313.00</ele>
        <time>2012-06-23T18:19:46Z</time>
      </trkpt>
      <trkpt lat="41.649433000" lon="2.487593100">
        <ele>313.00</ele>
        <time>2012-06-23T18:19:46Z</time>
      </trkpt>
      <trkpt lat="41.649361000" lon="2.487800100">
        <ele>311.60</ele>
        <time>2012-06-23T18:19:50Z</time>
      </trkpt>
      <trkpt lat="41.649338000" lon="2.487872100">
        <ele>312.10</ele>
        <time>2012-06-23T18:19:50Z</time>
      </trkpt>
      <trkpt lat="41.649117000" lon="2.488117100">
        <ele>308.20</ele>
        <time>2012-06-23T18:19:55Z</time>
      </trkpt>
      <trkpt lat="41.649063000" lon="2.488161100">
        <ele>307.30</ele>
        <time>2012-06-23T18:19:57Z</time>
      </trkpt>
      <trkpt lat="41.648853000" lon="2.488504100">
        <ele>302.00</ele>
        <time>2012-06-23T18:20:02Z</time>
      </trkpt>
      <trkpt lat="41.648685000" lon="2.488878100">
        <ele>300.10</ele>
        <time>2012-06-23T18:20:09Z</time>
      </trkpt>
      <trkpt lat="41.648552000" lon="2.489115100">
        <ele>301.00</ele>
        <time>2012-06-23T18:20:16Z</time>
      </trkpt>
      <trkpt lat="41.648537000" lon="2.489144100">
        <ele>301.50</ele>
        <time>2012-06-23T18:20:16Z</time>
      </trkpt>
      <trkpt lat="41.648399000" lon="2.489360100">
        <ele>302.00</ele>
        <time>2012-06-23T18:20:23Z</time>
      </trkpt>
      <trkpt lat="41.648224000" lon="2.489624100">
        <ele>302.00</ele>
        <time>2012-06-23T18:20:28Z</time>
      </trkpt>
      <trkpt lat="41.648159000" lon="2.490031100">
        <ele>302.00</ele>
        <time>2012-06-23T18:20:33Z</time>
      </trkpt>
      <trkpt lat="41.648006000" lon="2.490362100">
        <ele>300.50</ele>
        <time>2012-06-23T18:20:37Z</time>
      </trkpt>
      <trkpt lat="41.647934000" lon="2.490427100">
        <ele>297.20</ele>
        <time>2012-06-23T18:20:40Z</time>
      </trkpt>
      <trkpt lat="41.647923000" lon="2.490590100">
        <ele>293.30</ele>
        <time>2012-06-23T18:20:42Z</time>
      </trkpt>
      <trkpt lat="41.647923000" lon="2.490854100">
        <ele>289.50</ele>
        <time>2012-06-23T18:20:46Z</time>
      </trkpt>
      <trkpt lat="41.647942000" lon="2.491037100">
        <ele>287.60</ele>
        <time>2012-06-23T18:20:47Z</time>
      </trkpt>
      <trkpt lat="41.647987000" lon="2.491199100">
        <ele>287.10</ele>
        <time>2012-06-23T18:20:49Z</time>
      </trkpt>
      <trkpt lat="41.648014000" lon="2.491290100">
        <ele>288.00</ele>
        <time>2012-06-23T18:20:51Z</time>
      </trkpt>
      <trkpt lat="41.647991000" lon="2.491633100">
        <ele>288.00</ele>
        <time>2012-06-23T18:20:56Z</time>
      </trkpt>
      <trkpt lat="41.647800000" lon="2.491914100">
        <ele>286.10</ele>
        <time>2012-06-23T18:21:00Z</time>
      </trkpt>
      <trkpt lat="41.647614000" lon="2.492229100">
        <ele>282.30</ele>
        <time>2012-06-23T18:21:05Z</time>
      </trkpt>
      <trkpt lat="41.647518000" lon="2.492340100">
        <ele>281.80</ele>
        <time>2012-06-23T18:21:08Z</time>
      </trkpt>
      <trkpt lat="41.647381000" lon="2.492376100">
        <ele>281.80</ele>
        <time>2012-06-23T18:21:10Z</time>
      </trkpt>
      <trkpt lat="41.647198000" lon="2.492337100">
        <ele>281.80</ele>
        <time>2012-06-23T18:21:13Z</time>
      </trkpt>
      <trkpt lat="41.646885000" lon="2.492299100">
        <ele>281.80</ele>
        <time>2012-06-23T18:21:19Z</time>
      </trkpt>
      <trkpt lat="41.646744000" lon="2.492481100">
        <ele>281.30</ele>
        <time>2012-06-23T18:21:22Z</time>
      </trkpt>
      <trkpt lat="41.646736000" lon="2.492529100">
        <ele>281.30</ele>
        <time>2012-06-23T18:21:24Z</time>
      </trkpt>
      <trkpt lat="41.646736000" lon="2.492839100">
        <ele>280.80</ele>
        <time>2012-06-23T18:21:31Z</time>
      </trkpt>
      <trkpt lat="41.646740000" lon="2.493153100">
        <ele>281.80</ele>
        <time>2012-06-23T18:21:41Z</time>
      </trkpt>
      <trkpt lat="41.646770000" lon="2.493243100">
        <ele>282.80</ele>
        <time>2012-06-23T18:21:43Z</time>
      </trkpt>
      <trkpt lat="41.646801000" lon="2.493359100">
        <ele>282.30</ele>
        <time>2012-06-23T18:21:45Z</time>
      </trkpt>
      <trkpt lat="41.646957000" lon="2.493734100">
        <ele>282.30</ele>
        <time>2012-06-23T18:21:50Z</time>
      </trkpt>
      <trkpt lat="41.647091000" lon="2.494079100">
        <ele>276.50</ele>
        <time>2012-06-23T18:21:54Z</time>
      </trkpt>
      <trkpt lat="41.647224000" lon="2.494406100">
        <ele>272.70</ele>
        <time>2012-06-23T18:21:57Z</time>
      </trkpt>
      <trkpt lat="41.647438000" lon="2.494669100">
        <ele>271.20</ele>
        <time>2012-06-23T18:22:02Z</time>
      </trkpt>
      <trkpt lat="41.647655000" lon="2.494755100">
        <ele>271.20</ele>
        <time>2012-06-23T18:22:06Z</time>
      </trkpt>
      <trkpt lat="41.647972000" lon="2.494843100">
        <ele>270.80</ele>
        <time>2012-06-23T18:22:13Z</time>
      </trkpt>
      <trkpt lat="41.648113000" lon="2.494917100">
        <ele>266.90</ele>
        <time>2012-06-23T18:22:16Z</time>
      </trkpt>
      <trkpt lat="41.648190000" lon="2.494915100">
        <ele>263.50</ele>
        <time>2012-06-23T18:22:18Z</time>
      </trkpt>
      <trkpt lat="41.648258000" lon="2.494972100">
        <ele>260.20</ele>
        <time>2012-06-23T18:22:21Z</time>
      </trkpt>
      <trkpt lat="41.648338000" lon="2.495126100">
        <ele>256.30</ele>
        <time>2012-06-23T18:22:23Z</time>
      </trkpt>
      <trkpt lat="41.648327000" lon="2.495457100">
        <ele>253.90</ele>
        <time>2012-06-23T18:22:30Z</time>
      </trkpt>
      <trkpt lat="41.648319000" lon="2.495518100">
        <ele>253.90</ele>
        <time>2012-06-23T18:22:32Z</time>
      </trkpt>
      <trkpt lat="41.648319000" lon="2.495794100">
        <ele>251.00</ele>
        <time>2012-06-23T18:22:35Z</time>
      </trkpt>
      <trkpt lat="41.648296000" lon="2.496052100">
        <ele>247.20</ele>
        <time>2012-06-23T18:22:39Z</time>
      </trkpt>
      <trkpt lat="41.648335000" lon="2.496298100">
        <ele>242.40</ele>
        <time>2012-06-23T18:22:44Z</time>
      </trkpt>
      <trkpt lat="41.648464000" lon="2.496438100">
        <ele>238.10</ele>
        <time>2012-06-23T18:22:48Z</time>
      </trkpt>
      <trkpt lat="41.648560000" lon="2.496457100">
        <ele>235.70</ele>
        <time>2012-06-23T18:22:49Z</time>
      </trkpt>
      <trkpt lat="41.648777000" lon="2.496514100">
        <ele>230.90</ele>
        <time>2012-06-23T18:22:54Z</time>
      </trkpt>
      <trkpt lat="41.648808000" lon="2.496652100">
        <ele>228.40</ele>
        <time>2012-06-23T18:22:58Z</time>
      </trkpt>
      <trkpt lat="41.648689000" lon="2.496830100">
        <ele>226.50</ele>
        <time>2012-06-23T18:23:01Z</time>
      </trkpt>
      <trkpt lat="41.648579000" lon="2.497065100">
        <ele>223.20</ele>
        <time>2012-06-23T18:23:07Z</time>
      </trkpt>
      <trkpt lat="41.648582000" lon="2.497233100">
        <ele>219.80</ele>
        <time>2012-06-23T18:23:10Z</time>
      </trkpt>
      <trkpt lat="41.648605000" lon="2.497347100">
        <ele>217.40</ele>
        <time>2012-06-23T18:23:12Z</time>
      </trkpt>
      <trkpt lat="41.648663000" lon="2.497509100">
        <ele>213.60</ele>
        <time>2012-06-23T18:23:14Z</time>
      </trkpt>
      <trkpt lat="41.648693000" lon="2.497797100">
        <ele>211.10</ele>
        <time>2012-06-23T18:23:21Z</time>
      </trkpt>
      <trkpt lat="41.648682000" lon="2.497829100">
        <ele>210.20</ele>
        <time>2012-06-23T18:23:22Z</time>
      </trkpt>
      <trkpt lat="41.648548000" lon="2.498057100">
        <ele>210.70</ele>
        <time>2012-06-23T18:23:29Z</time>
      </trkpt>
      <trkpt lat="41.648369000" lon="2.498110100">
        <ele>211.60</ele>
        <time>2012-06-23T18:23:36Z</time>
      </trkpt>
      <trkpt lat="41.648262000" lon="2.498264100">
        <ele>212.10</ele>
        <time>2012-06-23T18:23:45Z</time>
      </trkpt>
      <trkpt lat="41.648106000" lon="2.498442100">
        <ele>212.10</ele>
        <time>2012-06-23T18:23:52Z</time>
      </trkpt>
      <trkpt lat="41.647919000" lon="2.498716100">
        <ele>212.10</ele>
        <time>2012-06-23T18:24:01Z</time>
      </trkpt>
      <trkpt lat="41.647755000" lon="2.498873100">
        <ele>212.10</ele>
        <time>2012-06-23T18:24:06Z</time>
      </trkpt>
      <trkpt lat="41.647591000" lon="2.499039100">
        <ele>212.60</ele>
        <time>2012-06-23T18:24:13Z</time>
      </trkpt>
      <trkpt lat="41.647518000" lon="2.499118100">
        <ele>212.60</ele>
        <time>2012-06-23T18:24:16Z</time>
      </trkpt>
      <trkpt lat="41.647415000" lon="2.499366100">
        <ele>213.10</ele>
        <time>2012-06-23T18:24:25Z</time>
      </trkpt>
      <trkpt lat="41.647362000" lon="2.499466100">
        <ele>213.10</ele>
        <time>2012-06-23T18:24:32Z</time>
      </trkpt>
      <trkpt lat="41.647362000" lon="2.499472100">
        <ele>213.10</ele>
        <time>2012-06-23T18:25:24Z</time>
      </trkpt>
      <trkpt lat="41.647305000" lon="2.499721100">
        <ele>213.10</ele>
        <time>2012-06-23T18:25:47Z</time>
      </trkpt>
      <trkpt lat="41.647266000" lon="2.499959100">
        <ele>213.10</ele>
        <time>2012-06-23T18:25:54Z</time>
      </trkpt>
      <trkpt lat="41.647255000" lon="2.500140100">
        <ele>213.10</ele>
        <time>2012-06-23T18:25:59Z</time>
      </trkpt>
      <trkpt lat="41.647289000" lon="2.500346100">
        <ele>213.10</ele>
        <time>2012-06-23T18:26:06Z</time>
      </trkpt>
      <trkpt lat="41.647339000" lon="2.500605100">
        <ele>213.10</ele>
        <time>2012-06-23T18:26:13Z</time>
      </trkpt>
      <trkpt lat="41.647392000" lon="2.500870100">
        <ele>213.60</ele>
        <time>2012-06-23T18:26:18Z</time>
      </trkpt>
      <trkpt lat="41.647457000" lon="2.501245100">
        <ele>213.60</ele>
        <time>2012-06-23T18:26:27Z</time>
      </trkpt>
      <trkpt lat="41.647511000" lon="2.501646100">
        <ele>214.00</ele>
        <time>2012-06-23T18:26:36Z</time>
      </trkpt>
      <trkpt lat="41.647633000" lon="2.502025100">
        <ele>214.50</ele>
        <time>2012-06-23T18:26:43Z</time>
      </trkpt>
      <trkpt lat="41.647820000" lon="2.502375100">
        <ele>214.50</ele>
        <time>2012-06-23T18:26:51Z</time>
      </trkpt>
      <trkpt lat="41.648022000" lon="2.502599100">
        <ele>215.50</ele>
        <time>2012-06-23T18:26:58Z</time>
      </trkpt>
      <trkpt lat="41.648243000" lon="2.502820100">
        <ele>215.50</ele>
        <time>2012-06-23T18:27:07Z</time>
      </trkpt>
      <trkpt lat="41.648399000" lon="2.502988100">
        <ele>215.50</ele>
        <time>2012-06-23T18:27:12Z</time>
      </trkpt>
      <trkpt lat="41.648529000" lon="2.503200100">
        <ele>215.50</ele>
        <time>2012-06-23T18:27:19Z</time>
      </trkpt>
      <trkpt lat="41.648705000" lon="2.503453100">
        <ele>215.90</ele>
        <time>2012-06-23T18:27:28Z</time>
      </trkpt>
      <trkpt lat="41.648872000" lon="2.503689100">
        <ele>216.40</ele>
        <time>2012-06-23T18:27:35Z</time>
      </trkpt>
      <trkpt lat="41.649048000" lon="2.503937100">
        <ele>216.40</ele>
        <time>2012-06-23T18:27:42Z</time>
      </trkpt>
      <trkpt lat="41.649155000" lon="2.504192100">
        <ele>217.40</ele>
        <time>2012-06-23T18:27:47Z</time>
      </trkpt>
      <trkpt lat="41.649220000" lon="2.504529100">
        <ele>217.90</ele>
        <time>2012-06-23T18:27:56Z</time>
      </trkpt>
      <trkpt lat="41.649223000" lon="2.504911100">
        <ele>218.40</ele>
        <time>2012-06-23T18:28:05Z</time>
      </trkpt>
      <trkpt lat="41.649204000" lon="2.505213100">
        <ele>218.80</ele>
        <time>2012-06-23T18:28:12Z</time>
      </trkpt>
      <trkpt lat="41.649155000" lon="2.505448100">
        <ele>219.30</ele>
        <time>2012-06-23T18:28:17Z</time>
      </trkpt>
      <trkpt lat="41.649109000" lon="2.505677100">
        <ele>219.30</ele>
        <time>2012-06-23T18:28:24Z</time>
      </trkpt>
      <trkpt lat="41.649067000" lon="2.505952100">
        <ele>219.80</ele>
        <time>2012-06-23T18:28:29Z</time>
      </trkpt>
      <trkpt lat="41.648972000" lon="2.506241100">
        <ele>220.30</ele>
        <time>2012-06-23T18:28:36Z</time>
      </trkpt>
      <trkpt lat="41.648792000" lon="2.506414100">
        <ele>220.30</ele>
        <time>2012-06-23T18:28:43Z</time>
      </trkpt>
      <trkpt lat="41.648724000" lon="2.506549100">
        <ele>221.20</ele>
        <time>2012-06-23T18:28:48Z</time>
      </trkpt>
      <trkpt lat="41.648716000" lon="2.506652100">
        <ele>221.70</ele>
        <time>2012-06-23T18:28:50Z</time>
      </trkpt>
      <trkpt lat="41.648617000" lon="2.506852100">
        <ele>221.70</ele>
        <time>2012-06-23T18:28:55Z</time>
      </trkpt>
      <trkpt lat="41.648472000" lon="2.507254100">
        <ele>222.20</ele>
        <time>2012-06-23T18:29:02Z</time>
      </trkpt>
      <trkpt lat="41.648403000" lon="2.507539100">
        <ele>222.20</ele>
        <time>2012-06-23T18:29:09Z</time>
      </trkpt>
      <trkpt lat="41.648258000" lon="2.507693100">
        <ele>222.70</ele>
        <time>2012-06-23T18:29:14Z</time>
      </trkpt>
      <trkpt lat="41.648151000" lon="2.507968100">
        <ele>222.70</ele>
        <time>2012-06-23T18:29:21Z</time>
      </trkpt>
      <trkpt lat="41.647999000" lon="2.508389100">
        <ele>223.20</ele>
        <time>2012-06-23T18:29:32Z</time>
      </trkpt>
      <trkpt lat="41.647842000" lon="2.508638100">
        <ele>223.60</ele>
        <time>2012-06-23T18:29:39Z</time>
      </trkpt>
      <trkpt lat="41.647774000" lon="2.508888100">
        <ele>224.10</ele>
        <time>2012-06-23T18:29:44Z</time>
      </trkpt>
      <trkpt lat="41.647644000" lon="2.509181100">
        <ele>224.60</ele>
        <time>2012-06-23T18:29:53Z</time>
      </trkpt>
      <trkpt lat="41.647499000" lon="2.509489100">
        <ele>225.60</ele>
        <time>2012-06-23T18:30:01Z</time>
      </trkpt>
      <trkpt lat="41.647362000" lon="2.509755100">
        <ele>226.10</ele>
        <time>2012-06-23T18:30:10Z</time>
      </trkpt>
      <trkpt lat="41.647232000" lon="2.510002100">
        <ele>226.50</ele>
        <time>2012-06-23T18:30:17Z</time>
      </trkpt>
      <trkpt lat="41.647141000" lon="2.510219100">
        <ele>227.00</ele>
        <time>2012-06-23T18:30:22Z</time>
      </trkpt>
      <trkpt lat="41.647060000" lon="2.510396100">
        <ele>227.00</ele>
        <time>2012-06-23T18:30:26Z</time>
      </trkpt>
      <trkpt lat="41.646969000" lon="2.510733100">
        <ele>227.00</ele>
        <time>2012-06-23T18:30:34Z</time>
      </trkpt>
      <trkpt lat="41.646927000" lon="2.511061100">
        <ele>227.00</ele>
        <time>2012-06-23T18:30:41Z</time>
      </trkpt>
      <trkpt lat="41.646877000" lon="2.511350100">
        <ele>227.50</ele>
        <time>2012-06-23T18:30:47Z</time>
      </trkpt>
      <trkpt lat="41.646835000" lon="2.511754100">
        <ele>227.50</ele>
        <time>2012-06-23T18:30:55Z</time>
      </trkpt>
      <trkpt lat="41.646809000" lon="2.512223100">
        <ele>228.00</ele>
        <time>2012-06-23T18:31:04Z</time>
      </trkpt>
      <trkpt lat="41.646862000" lon="2.512544100">
        <ele>228.40</ele>
        <time>2012-06-23T18:31:13Z</time>
      </trkpt>
      <trkpt lat="41.646873000" lon="2.512888100">
        <ele>229.40</ele>
        <time>2012-06-23T18:31:21Z</time>
      </trkpt>
      <trkpt lat="41.646759000" lon="2.513014100">
        <ele>229.90</ele>
        <time>2012-06-23T18:31:27Z</time>
      </trkpt>
      <trkpt lat="41.646637000" lon="2.513180100">
        <ele>229.90</ele>
        <time>2012-06-23T18:31:32Z</time>
      </trkpt>
      <trkpt lat="41.646515000" lon="2.513409100">
        <ele>229.90</ele>
        <time>2012-06-23T18:31:39Z</time>
      </trkpt>
      <trkpt lat="41.646439000" lon="2.513783100">
        <ele>230.40</ele>
        <time>2012-06-23T18:31:46Z</time>
      </trkpt>
      <trkpt lat="41.646351000" lon="2.514055100">
        <ele>230.90</ele>
        <time>2012-06-23T18:31:53Z</time>
      </trkpt>
      <trkpt lat="41.646233000" lon="2.514300100">
        <ele>231.30</ele>
        <time>2012-06-23T18:32:00Z</time>
      </trkpt>
      <trkpt lat="41.646072000" lon="2.514527100">
        <ele>231.80</ele>
        <time>2012-06-23T18:32:07Z</time>
      </trkpt>
      <trkpt lat="41.645924000" lon="2.514848100">
        <ele>232.30</ele>
        <time>2012-06-23T18:32:14Z</time>
      </trkpt>
      <trkpt lat="41.645775000" lon="2.515125100">
        <ele>232.30</ele>
        <time>2012-06-23T18:32:22Z</time>
      </trkpt>
      <trkpt lat="41.645535000" lon="2.515433100">
        <ele>233.30</ele>
        <time>2012-06-23T18:32:31Z</time>
      </trkpt>
      <trkpt lat="41.645386000" lon="2.515416100">
        <ele>232.80</ele>
        <time>2012-06-23T18:32:36Z</time>
      </trkpt>
      <trkpt lat="41.645267000" lon="2.515266100">
        <ele>234.20</ele>
        <time>2012-06-23T18:32:43Z</time>
      </trkpt>
      <trkpt lat="41.645138000" lon="2.515017100">
        <ele>235.70</ele>
        <time>2012-06-23T18:32:52Z</time>
      </trkpt>
      <trkpt lat="41.644939000" lon="2.514790100">
        <ele>238.10</ele>
        <time>2012-06-23T18:33:04Z</time>
      </trkpt>
      <trkpt lat="41.644859000" lon="2.514725100">
        <ele>241.40</ele>
        <time>2012-06-23T18:33:09Z</time>
      </trkpt>
      <trkpt lat="41.644806000" lon="2.514682100">
        <ele>244.30</ele>
        <time>2012-06-23T18:33:13Z</time>
      </trkpt>
      <trkpt lat="41.644688000" lon="2.514611100">
        <ele>245.30</ele>
        <time>2012-06-23T18:33:20Z</time>
      </trkpt>
      <trkpt lat="41.644558000" lon="2.514579100">
        <ele>245.30</ele>
        <time>2012-06-23T18:33:27Z</time>
      </trkpt>
      <trkpt lat="41.644344000" lon="2.514589100">
        <ele>245.30</ele>
        <time>2012-06-23T18:33:36Z</time>
      </trkpt>
      <trkpt lat="41.644127000" lon="2.514577100">
        <ele>246.20</ele>
        <time>2012-06-23T18:33:46Z</time>
      </trkpt>
      <trkpt lat="41.644062000" lon="2.514570100">
        <ele>247.20</ele>
        <time>2012-06-23T18:33:51Z</time>
      </trkpt>
      <trkpt lat="41.643986000" lon="2.514544100">
        <ele>248.60</ele>
        <time>2012-06-23T18:33:58Z</time>
      </trkpt>
      <trkpt lat="41.643879000" lon="2.514504100">
        <ele>252.00</ele>
        <time>2012-06-23T18:34:05Z</time>
      </trkpt>
      <trkpt lat="41.643810000" lon="2.514503100">
        <ele>254.90</ele>
        <time>2012-06-23T18:34:10Z</time>
      </trkpt>
      <trkpt lat="41.643669000" lon="2.514476100">
        <ele>255.40</ele>
        <time>2012-06-23T18:34:17Z</time>
      </trkpt>
      <trkpt lat="41.643566000" lon="2.514436100">
        <ele>255.40</ele>
        <time>2012-06-23T18:34:24Z</time>
      </trkpt>
      <trkpt lat="41.643524000" lon="2.514417100">
        <ele>255.40</ele>
        <time>2012-06-23T18:34:26Z</time>
      </trkpt>
      <trkpt lat="41.643356000" lon="2.514337100">
        <ele>256.30</ele>
        <time>2012-06-23T18:34:36Z</time>
      </trkpt>
      <trkpt lat="41.643196000" lon="2.514292100">
        <ele>256.80</ele>
        <time>2012-06-23T18:34:45Z</time>
      </trkpt>
      <trkpt lat="41.643166000" lon="2.514284100">
        <ele>257.80</ele>
        <time>2012-06-23T18:34:47Z</time>
      </trkpt>
      <trkpt lat="41.643028000" lon="2.514230100">
        <ele>259.20</ele>
        <time>2012-06-23T18:34:57Z</time>
      </trkpt>
      <trkpt lat="41.642937000" lon="2.514183100">
        <ele>259.20</ele>
        <time>2012-06-23T18:35:01Z</time>
      </trkpt>
      <trkpt lat="41.642803000" lon="2.514128100">
        <ele>260.60</ele>
        <time>2012-06-23T18:35:08Z</time>
      </trkpt>
      <trkpt lat="41.642693000" lon="2.514024100">
        <ele>262.10</ele>
        <time>2012-06-23T18:35:17Z</time>
      </trkpt>
      <trkpt lat="41.642574000" lon="2.513914100">
        <ele>265.50</ele>
        <time>2012-06-23T18:35:25Z</time>
      </trkpt>
      <trkpt lat="41.642403000" lon="2.513957100">
        <ele>267.40</ele>
        <time>2012-06-23T18:35:32Z</time>
      </trkpt>
      <trkpt lat="41.642345000" lon="2.514010100">
        <ele>267.40</ele>
        <time>2012-06-23T18:35:36Z</time>
      </trkpt>
      <trkpt lat="41.642315000" lon="2.514183100">
        <ele>267.40</ele>
        <time>2012-06-23T18:35:41Z</time>
      </trkpt>
      <trkpt lat="41.642330000" lon="2.514332100">
        <ele>267.40</ele>
        <time>2012-06-23T18:35:48Z</time>
      </trkpt>
      <trkpt lat="41.642391000" lon="2.514467100">
        <ele>267.90</ele>
        <time>2012-06-23T18:35:58Z</time>
      </trkpt>
      <trkpt lat="41.642464000" lon="2.514636100">
        <ele>269.30</ele>
        <time>2012-06-23T18:36:07Z</time>
      </trkpt>
      <trkpt lat="41.642567000" lon="2.514785100">
        <ele>270.80</ele>
        <time>2012-06-23T18:36:16Z</time>
      </trkpt>
      <trkpt lat="41.642670000" lon="2.514962100">
        <ele>271.70</ele>
        <time>2012-06-23T18:36:24Z</time>
      </trkpt>
      <trkpt lat="41.642662000" lon="2.515111100">
        <ele>272.20</ele>
        <time>2012-06-23T18:36:31Z</time>
      </trkpt>
      <trkpt lat="41.642643000" lon="2.515148100">
        <ele>273.10</ele>
        <time>2012-06-23T18:36:33Z</time>
      </trkpt>
      <trkpt lat="41.642502000" lon="2.515216100">
        <ele>274.10</ele>
        <time>2012-06-23T18:36:42Z</time>
      </trkpt>
      <trkpt lat="41.642361000" lon="2.515233100">
        <ele>276.00</ele>
        <time>2012-06-23T18:36:52Z</time>
      </trkpt>
      <trkpt lat="41.642262000" lon="2.515209100">
        <ele>278.00</ele>
        <time>2012-06-23T18:36:59Z</time>
      </trkpt>
      <trkpt lat="41.642162000" lon="2.515184100">
        <ele>279.90</ele>
        <time>2012-06-23T18:37:06Z</time>
      </trkpt>
      <trkpt lat="41.642071000" lon="2.515110100">
        <ele>280.80</ele>
        <time>2012-06-23T18:37:15Z</time>
      </trkpt>
      <trkpt lat="41.641987000" lon="2.515056100">
        <ele>282.30</ele>
        <time>2012-06-23T18:37:22Z</time>
      </trkpt>
      <trkpt lat="41.641926000" lon="2.515024100">
        <ele>283.20</ele>
        <time>2012-06-23T18:37:27Z</time>
      </trkpt>
      <trkpt lat="41.641861000" lon="2.514991100">
        <ele>284.20</ele>
        <time>2012-06-23T18:37:32Z</time>
      </trkpt>
      <trkpt lat="41.641762000" lon="2.514946100">
        <ele>285.60</ele>
        <time>2012-06-23T18:37:39Z</time>
      </trkpt>
      <trkpt lat="41.641640000" lon="2.514886100">
        <ele>287.60</ele>
        <time>2012-06-23T18:37:48Z</time>
      </trkpt>
      <trkpt lat="41.641556000" lon="2.514861100">
        <ele>288.50</ele>
        <time>2012-06-23T18:37:55Z</time>
      </trkpt>
      <trkpt lat="41.641422000" lon="2.514805100">
        <ele>291.90</ele>
        <time>2012-06-23T18:38:04Z</time>
      </trkpt>
      <trkpt lat="41.641357000" lon="2.514776100">
        <ele>295.70</ele>
        <time>2012-06-23T18:38:09Z</time>
      </trkpt>
      <trkpt lat="41.641205000" lon="2.514776100">
        <ele>296.20</ele>
        <time>2012-06-23T18:38:19Z</time>
      </trkpt>
      <trkpt lat="41.641174000" lon="2.514795100">
        <ele>296.20</ele>
        <time>2012-06-23T18:38:21Z</time>
      </trkpt>
      <trkpt lat="41.641125000" lon="2.514849100">
        <ele>296.20</ele>
        <time>2012-06-23T18:38:25Z</time>
      </trkpt>
      <trkpt lat="41.641094000" lon="2.514939100">
        <ele>296.70</ele>
        <time>2012-06-23T18:38:30Z</time>
      </trkpt>
      <trkpt lat="41.641052000" lon="2.515081100">
        <ele>297.70</ele>
        <time>2012-06-23T18:38:40Z</time>
      </trkpt>
      <trkpt lat="41.640987000" lon="2.515193100">
        <ele>298.60</ele>
        <time>2012-06-23T18:38:47Z</time>
      </trkpt>
      <trkpt lat="41.640873000" lon="2.515301100">
        <ele>299.60</ele>
        <time>2012-06-23T18:38:56Z</time>
      </trkpt>
      <trkpt lat="41.640739000" lon="2.515338100">
        <ele>301.00</ele>
        <time>2012-06-23T18:39:05Z</time>
      </trkpt>
      <trkpt lat="41.640724000" lon="2.515337100">
        <ele>301.50</ele>
        <time>2012-06-23T18:39:06Z</time>
      </trkpt>
      <trkpt lat="41.640636000" lon="2.515163100">
        <ele>303.40</ele>
        <time>2012-06-23T18:39:17Z</time>
      </trkpt>
      <trkpt lat="41.640553000" lon="2.515000100">
        <ele>305.40</ele>
        <time>2012-06-23T18:39:29Z</time>
      </trkpt>
      <trkpt lat="41.640472000" lon="2.514835100">
        <ele>307.80</ele>
        <time>2012-06-23T18:39:38Z</time>
      </trkpt>
      <trkpt lat="41.640408000" lon="2.514717100">
        <ele>308.20</ele>
        <time>2012-06-23T18:39:45Z</time>
      </trkpt>
      <trkpt lat="41.640339000" lon="2.514572100">
        <ele>309.20</ele>
        <time>2012-06-23T18:39:54Z</time>
      </trkpt>
      <trkpt lat="41.640251000" lon="2.514393100">
        <ele>310.20</ele>
        <time>2012-06-23T18:40:04Z</time>
      </trkpt>
      <trkpt lat="41.640160000" lon="2.514303100">
        <ele>311.10</ele>
        <time>2012-06-23T18:40:11Z</time>
      </trkpt>
      <trkpt lat="41.640038000" lon="2.514288100">
        <ele>312.10</ele>
        <time>2012-06-23T18:40:18Z</time>
      </trkpt>
      <trkpt lat="41.639923000" lon="2.514329100">
        <ele>313.50</ele>
        <time>2012-06-23T18:40:25Z</time>
      </trkpt>
      <trkpt lat="41.639820000" lon="2.514442100">
        <ele>315.50</ele>
        <time>2012-06-23T18:40:35Z</time>
      </trkpt>
      <trkpt lat="41.639721000" lon="2.514574100">
        <ele>316.90</ele>
        <time>2012-06-23T18:40:42Z</time>
      </trkpt>
      <trkpt lat="41.639641000" lon="2.514734100">
        <ele>317.90</ele>
        <time>2012-06-23T18:40:51Z</time>
      </trkpt>
      <trkpt lat="41.639557000" lon="2.514864100">
        <ele>319.30</ele>
        <time>2012-06-23T18:40:58Z</time>
      </trkpt>
      <trkpt lat="41.639542000" lon="2.514902100">
        <ele>319.30</ele>
        <time>2012-06-23T18:41:00Z</time>
      </trkpt>
      <trkpt lat="41.639481000" lon="2.514962100">
        <ele>319.80</ele>
        <time>2012-06-23T18:41:05Z</time>
      </trkpt>
      <trkpt lat="41.639332000" lon="2.514965100">
        <ele>320.70</ele>
        <time>2012-06-23T18:41:14Z</time>
      </trkpt>
      <trkpt lat="41.639210000" lon="2.514915100">
        <ele>321.20</ele>
        <time>2012-06-23T18:41:19Z</time>
      </trkpt>
      <trkpt lat="41.639057000" lon="2.514959100">
        <ele>322.20</ele>
        <time>2012-06-23T18:41:29Z</time>
      </trkpt>
      <trkpt lat="41.638947000" lon="2.515085100">
        <ele>323.60</ele>
        <time>2012-06-23T18:41:38Z</time>
      </trkpt>
      <trkpt lat="41.638844000" lon="2.515218100">
        <ele>324.60</ele>
        <time>2012-06-23T18:41:45Z</time>
      </trkpt>
      <trkpt lat="41.638763000" lon="2.515376100">
        <ele>325.10</ele>
        <time>2012-06-23T18:41:54Z</time>
      </trkpt>
      <trkpt lat="41.638638000" lon="2.515550100">
        <ele>326.00</ele>
        <time>2012-06-23T18:42:04Z</time>
      </trkpt>
      <trkpt lat="41.638535000" lon="2.515556100">
        <ele>326.50</ele>
        <time>2012-06-23T18:42:09Z</time>
      </trkpt>
      <trkpt lat="41.638393000" lon="2.515421100">
        <ele>327.50</ele>
        <time>2012-06-23T18:42:18Z</time>
      </trkpt>
      <trkpt lat="41.638252000" lon="2.515320100">
        <ele>327.50</ele>
        <time>2012-06-23T18:42:25Z</time>
      </trkpt>
      <trkpt lat="41.638176000" lon="2.515230100">
        <ele>328.00</ele>
        <time>2012-06-23T18:42:32Z</time>
      </trkpt>
      <trkpt lat="41.638161000" lon="2.515086100">
        <ele>328.00</ele>
        <time>2012-06-23T18:42:49Z</time>
      </trkpt>
      <trkpt lat="41.638161000" lon="2.515088100">
        <ele>328.00</ele>
        <time>2012-06-23T18:43:10Z</time>
      </trkpt>
      <trkpt lat="41.638165000" lon="2.515089100">
        <ele>328.00</ele>
        <time>2012-06-23T18:43:30Z</time>
      </trkpt>
      <trkpt lat="41.638161000" lon="2.515090100">
        <ele>328.00</ele>
        <time>2012-06-23T18:43:49Z</time>
      </trkpt>
      <trkpt lat="41.638165000" lon="2.515087100">
        <ele>328.00</ele>
        <time>2012-06-23T18:44:08Z</time>
      </trkpt>
      <trkpt lat="41.638165000" lon="2.515090100">
        <ele>328.00</ele>
        <time>2012-06-23T18:44:25Z</time>
      </trkpt>
      <trkpt lat="41.638165000" lon="2.515087100">
        <ele>328.00</ele>
        <time>2012-06-23T18:44:25Z</time>
      </trkpt>
      <trkpt lat="41.638119000" lon="2.515141100">
        <ele>328.00</ele>
        <time>2012-06-23T18:44:30Z</time>
      </trkpt>
      <trkpt lat="41.637993000" lon="2.515145100">
        <ele>328.00</ele>
        <time>2012-06-23T18:44:39Z</time>
      </trkpt>
      <trkpt lat="41.637917000" lon="2.515129100">
        <ele>328.00</ele>
        <time>2012-06-23T18:44:43Z</time>
      </trkpt>
      <trkpt lat="41.637718000" lon="2.515122100">
        <ele>328.40</ele>
        <time>2012-06-23T18:44:53Z</time>
      </trkpt>
      <trkpt lat="41.637554000" lon="2.515120100">
        <ele>329.90</ele>
        <time>2012-06-23T18:45:00Z</time>
      </trkpt>
      <trkpt lat="41.637501000" lon="2.515146100">
        <ele>329.90</ele>
        <time>2012-06-23T18:45:02Z</time>
      </trkpt>
      <trkpt lat="41.637287000" lon="2.515314100">
        <ele>329.90</ele>
        <time>2012-06-23T18:45:07Z</time>
      </trkpt>
      <trkpt lat="41.637085000" lon="2.515397100">
        <ele>329.90</ele>
        <time>2012-06-23T18:45:12Z</time>
      </trkpt>
      <trkpt lat="41.636810000" lon="2.515426100">
        <ele>329.90</ele>
        <time>2012-06-23T18:45:19Z</time>
      </trkpt>
      <trkpt lat="41.636597000" lon="2.515399100">
        <ele>329.90</ele>
        <time>2012-06-23T18:45:26Z</time>
      </trkpt>
      <trkpt lat="41.636425000" lon="2.515344100">
        <ele>329.90</ele>
        <time>2012-06-23T18:45:35Z</time>
      </trkpt>
      <trkpt lat="41.636372000" lon="2.515309100">
        <ele>330.40</ele>
        <time>2012-06-23T18:45:40Z</time>
      </trkpt>
      <trkpt lat="41.636280000" lon="2.515221100">
        <ele>331.80</ele>
        <time>2012-06-23T18:45:47Z</time>
      </trkpt>
      <trkpt lat="41.636166000" lon="2.515074100">
        <ele>333.70</ele>
        <time>2012-06-23T18:45:56Z</time>
      </trkpt>
      <trkpt lat="41.636040000" lon="2.515028100">
        <ele>334.70</ele>
        <time>2012-06-23T18:46:03Z</time>
      </trkpt>
      <trkpt lat="41.635906000" lon="2.514998100">
        <ele>336.10</ele>
        <time>2012-06-23T18:46:13Z</time>
      </trkpt>
      <trkpt lat="41.635784000" lon="2.514986100">
        <ele>337.60</ele>
        <time>2012-06-23T18:46:20Z</time>
      </trkpt>
      <trkpt lat="41.635639000" lon="2.514999100">
        <ele>339.00</ele>
        <time>2012-06-23T18:46:29Z</time>
      </trkpt>
      <trkpt lat="41.635532000" lon="2.515064100">
        <ele>340.00</ele>
        <time>2012-06-23T18:46:36Z</time>
      </trkpt>
      <trkpt lat="41.635460000" lon="2.515182100">
        <ele>343.80</ele>
        <time>2012-06-23T18:46:46Z</time>
      </trkpt>
      <trkpt lat="41.635429000" lon="2.515266100">
        <ele>346.70</ele>
        <time>2012-06-23T18:46:50Z</time>
      </trkpt>
      <trkpt lat="41.635323000" lon="2.515358100">
        <ele>347.60</ele>
        <time>2012-06-23T18:47:00Z</time>
      </trkpt>
      <trkpt lat="41.635281000" lon="2.515332100">
        <ele>347.60</ele>
        <time>2012-06-23T18:47:04Z</time>
      </trkpt>
      <trkpt lat="41.635254000" lon="2.515237100">
        <ele>348.10</ele>
        <time>2012-06-23T18:47:09Z</time>
      </trkpt>
      <trkpt lat="41.635262000" lon="2.515090100">
        <ele>350.10</ele>
        <time>2012-06-23T18:47:19Z</time>
      </trkpt>
      <trkpt lat="41.635258000" lon="2.514980100">
        <ele>352.90</ele>
        <time>2012-06-23T18:47:28Z</time>
      </trkpt>
      <trkpt lat="41.635239000" lon="2.514921100">
        <ele>356.30</ele>
        <time>2012-06-23T18:47:32Z</time>
      </trkpt>
      <trkpt lat="41.635166000" lon="2.514807100">
        <ele>357.80</ele>
        <time>2012-06-23T18:47:42Z</time>
      </trkpt>
      <trkpt lat="41.635090000" lon="2.514727100">
        <ele>357.80</ele>
        <time>2012-06-23T18:47:51Z</time>
      </trkpt>
      <trkpt lat="41.635071000" lon="2.514720100">
        <ele>358.20</ele>
        <time>2012-06-23T18:47:54Z</time>
      </trkpt>
      <trkpt lat="41.634956000" lon="2.514715100">
        <ele>359.20</ele>
        <time>2012-06-23T18:48:03Z</time>
      </trkpt>
      <trkpt lat="41.634838000" lon="2.514672100">
        <ele>360.60</ele>
        <time>2012-06-23T18:48:12Z</time>
      </trkpt>
      <trkpt lat="41.634716000" lon="2.514652100">
        <ele>362.50</ele>
        <time>2012-06-23T18:48:24Z</time>
      </trkpt>
      <trkpt lat="41.634583000" lon="2.514669100">
        <ele>364.00</ele>
        <time>2012-06-23T18:48:33Z</time>
      </trkpt>
      <trkpt lat="41.634563000" lon="2.514680100">
        <ele>364.50</ele>
        <time>2012-06-23T18:48:34Z</time>
      </trkpt>
      <trkpt lat="41.634445000" lon="2.514777100">
        <ele>365.40</ele>
        <time>2012-06-23T18:48:45Z</time>
      </trkpt>
      <trkpt lat="41.634338000" lon="2.514823100">
        <ele>366.90</ele>
        <time>2012-06-23T18:48:52Z</time>
      </trkpt>
      <trkpt lat="41.634209000" lon="2.514838100">
        <ele>367.80</ele>
        <time>2012-06-23T18:49:02Z</time>
      </trkpt>
      <trkpt lat="41.634056000" lon="2.514811100">
        <ele>368.80</ele>
        <time>2012-06-23T18:49:11Z</time>
      </trkpt>
      <trkpt lat="41.633934000" lon="2.514783100">
        <ele>370.20</ele>
        <time>2012-06-23T18:49:20Z</time>
      </trkpt>
      <trkpt lat="41.633804000" lon="2.514788100">
        <ele>371.20</ele>
        <time>2012-06-23T18:49:28Z</time>
      </trkpt>
      <trkpt lat="41.633701000" lon="2.514869100">
        <ele>372.20</ele>
        <time>2012-06-23T18:49:37Z</time>
      </trkpt>
      <trkpt lat="41.633671000" lon="2.514904100">
        <ele>373.10</ele>
        <time>2012-06-23T18:49:41Z</time>
      </trkpt>
      <trkpt lat="41.633564000" lon="2.515029100">
        <ele>374.10</ele>
        <time>2012-06-23T18:49:49Z</time>
      </trkpt>
      <trkpt lat="41.633450000" lon="2.515072100">
        <ele>374.60</ele>
        <time>2012-06-23T18:49:58Z</time>
      </trkpt>
      <trkpt lat="41.633312000" lon="2.515072100">
        <ele>375.00</ele>
        <time>2012-06-23T18:50:07Z</time>
      </trkpt>
      <trkpt lat="41.633186000" lon="2.515063100">
        <ele>376.00</ele>
        <time>2012-06-23T18:50:14Z</time>
      </trkpt>
      <trkpt lat="41.633045000" lon="2.515041100">
        <ele>376.50</ele>
        <time>2012-06-23T18:50:22Z</time>
      </trkpt>
      <trkpt lat="41.632896000" lon="2.514994100">
        <ele>377.90</ele>
        <time>2012-06-23T18:50:31Z</time>
      </trkpt>
      <trkpt lat="41.632748000" lon="2.514911100">
        <ele>378.90</ele>
        <time>2012-06-23T18:50:42Z</time>
      </trkpt>
      <trkpt lat="41.632603000" lon="2.514796100">
        <ele>379.90</ele>
        <time>2012-06-23T18:50:52Z</time>
      </trkpt>
      <trkpt lat="41.632500000" lon="2.514719100">
        <ele>381.30</ele>
        <time>2012-06-23T18:50:59Z</time>
      </trkpt>
      <trkpt lat="41.632366000" lon="2.514648100">
        <ele>382.30</ele>
        <time>2012-06-23T18:51:08Z</time>
      </trkpt>
      <trkpt lat="41.632236000" lon="2.514609100">
        <ele>383.70</ele>
        <time>2012-06-23T18:51:16Z</time>
      </trkpt>
      <trkpt lat="41.632122000" lon="2.514611100">
        <ele>385.10</ele>
        <time>2012-06-23T18:51:25Z</time>
      </trkpt>
      <trkpt lat="41.632069000" lon="2.514616100">
        <ele>385.60</ele>
        <time>2012-06-23T18:51:29Z</time>
      </trkpt>
      <trkpt lat="41.631947000" lon="2.514634100">
        <ele>386.60</ele>
        <time>2012-06-23T18:51:37Z</time>
      </trkpt>
      <trkpt lat="41.631828000" lon="2.514668100">
        <ele>387.50</ele>
        <time>2012-06-23T18:51:44Z</time>
      </trkpt>
      <trkpt lat="41.631706000" lon="2.514730100">
        <ele>389.00</ele>
        <time>2012-06-23T18:51:53Z</time>
      </trkpt>
      <trkpt lat="41.631569000" lon="2.514771100">
        <ele>390.40</ele>
        <time>2012-06-23T18:52:03Z</time>
      </trkpt>
      <trkpt lat="41.631481000" lon="2.514833100">
        <ele>391.90</ele>
        <time>2012-06-23T18:52:12Z</time>
      </trkpt>
      <trkpt lat="41.631386000" lon="2.514888100">
        <ele>393.80</ele>
        <time>2012-06-23T18:52:21Z</time>
      </trkpt>
      <trkpt lat="41.631378000" lon="2.514894100">
        <ele>393.80</ele>
        <time>2012-06-23T18:52:21Z</time>
      </trkpt>
      <trkpt lat="41.631294000" lon="2.514961100">
        <ele>396.20</ele>
        <time>2012-06-23T18:52:31Z</time>
      </trkpt>
      <trkpt lat="41.631241000" lon="2.515028100">
        <ele>398.60</ele>
        <time>2012-06-23T18:52:38Z</time>
      </trkpt>
      <trkpt lat="41.631237000" lon="2.515040100">
        <ele>399.60</ele>
        <time>2012-06-23T18:52:38Z</time>
      </trkpt>
      <trkpt lat="41.631168000" lon="2.515153100">
        <ele>402.50</ele>
        <time>2012-06-23T18:52:45Z</time>
      </trkpt>
      <trkpt lat="41.631073000" lon="2.515430100">
        <ele>402.50</ele>
        <time>2012-06-23T18:53:01Z</time>
      </trkpt>
      <trkpt lat="41.631058000" lon="2.515487100">
        <ele>402.50</ele>
        <time>2012-06-23T18:53:06Z</time>
      </trkpt>
      <trkpt lat="41.631054000" lon="2.515496100">
        <ele>402.50</ele>
        <time>2012-06-23T18:53:15Z</time>
      </trkpt>
      <trkpt lat="41.631031000" lon="2.515534100">
        <ele>403.40</ele>
        <time>2012-06-23T18:53:24Z</time>
      </trkpt>
      <trkpt lat="41.630974000" lon="2.515634100">
        <ele>404.90</ele>
        <time>2012-06-23T18:53:32Z</time>
      </trkpt>
      <trkpt lat="41.630901000" lon="2.515736100">
        <ele>405.80</ele>
        <time>2012-06-23T18:53:39Z</time>
      </trkpt>
      <trkpt lat="41.630810000" lon="2.515820100">
        <ele>407.70</ele>
        <time>2012-06-23T18:53:48Z</time>
      </trkpt>
      <trkpt lat="41.630703000" lon="2.515887100">
        <ele>409.20</ele>
        <time>2012-06-23T18:53:55Z</time>
      </trkpt>
      <trkpt lat="41.630585000" lon="2.515918100">
        <ele>410.10</ele>
        <time>2012-06-23T18:54:04Z</time>
      </trkpt>
      <trkpt lat="41.630482000" lon="2.515952100">
        <ele>411.60</ele>
        <time>2012-06-23T18:54:12Z</time>
      </trkpt>
      <trkpt lat="41.630470000" lon="2.515955100">
        <ele>412.10</ele>
        <time>2012-06-23T18:54:14Z</time>
      </trkpt>
      <trkpt lat="41.630424000" lon="2.515949100">
        <ele>413.00</ele>
        <time>2012-06-23T18:54:18Z</time>
      </trkpt>
      <trkpt lat="41.630325000" lon="2.515849100">
        <ele>415.00</ele>
        <time>2012-06-23T18:54:28Z</time>
      </trkpt>
      <trkpt lat="41.630264000" lon="2.515764100">
        <ele>416.90</ele>
        <time>2012-06-23T18:54:37Z</time>
      </trkpt>
      <trkpt lat="41.630203000" lon="2.515634100">
        <ele>418.80</ele>
        <time>2012-06-23T18:54:47Z</time>
      </trkpt>
      <trkpt lat="41.630173000" lon="2.515595100">
        <ele>419.80</ele>
        <time>2012-06-23T18:54:51Z</time>
      </trkpt>
      <trkpt lat="41.630112000" lon="2.515568100">
        <ele>420.20</ele>
        <time>2012-06-23T18:54:56Z</time>
      </trkpt>
      <trkpt lat="41.629993000" lon="2.515554100">
        <ele>421.20</ele>
        <time>2012-06-23T18:55:05Z</time>
      </trkpt>
      <trkpt lat="41.629948000" lon="2.515562100">
        <ele>421.70</ele>
        <time>2012-06-23T18:55:08Z</time>
      </trkpt>
      <trkpt lat="41.629879000" lon="2.515616100">
        <ele>422.20</ele>
        <time>2012-06-23T18:55:15Z</time>
      </trkpt>
      <trkpt lat="41.629814000" lon="2.515626100">
        <ele>423.10</ele>
        <time>2012-06-23T18:55:20Z</time>
      </trkpt>
      <trkpt lat="41.629715000" lon="2.515636100">
        <ele>424.10</ele>
        <time>2012-06-23T18:55:27Z</time>
      </trkpt>
      <trkpt lat="41.629570000" lon="2.515611100">
        <ele>425.00</ele>
        <time>2012-06-23T18:55:38Z</time>
      </trkpt>
      <trkpt lat="41.629452000" lon="2.515638100">
        <ele>427.00</ele>
        <time>2012-06-23T18:55:48Z</time>
      </trkpt>
      <trkpt lat="41.629341000" lon="2.515593100">
        <ele>427.90</ele>
        <time>2012-06-23T18:55:57Z</time>
      </trkpt>
      <trkpt lat="41.629253000" lon="2.515572100">
        <ele>429.90</ele>
        <time>2012-06-23T18:56:04Z</time>
      </trkpt>
      <trkpt lat="41.629185000" lon="2.515535100">
        <ele>430.80</ele>
        <time>2012-06-23T18:56:11Z</time>
      </trkpt>
      <trkpt lat="41.629097000" lon="2.515506100">
        <ele>433.20</ele>
        <time>2012-06-23T18:56:19Z</time>
      </trkpt>
      <trkpt lat="41.629017000" lon="2.515479100">
        <ele>434.20</ele>
        <time>2012-06-23T18:56:26Z</time>
      </trkpt>
      <trkpt lat="41.628925000" lon="2.515434100">
        <ele>436.10</ele>
        <time>2012-06-23T18:56:35Z</time>
      </trkpt>
      <trkpt lat="41.628914000" lon="2.515427100">
        <ele>436.60</ele>
        <time>2012-06-23T18:56:37Z</time>
      </trkpt>
      <trkpt lat="41.628796000" lon="2.515313100">
        <ele>439.00</ele>
        <time>2012-06-23T18:56:47Z</time>
      </trkpt>
      <trkpt lat="41.628750000" lon="2.515270100">
        <ele>439.50</ele>
        <time>2012-06-23T18:56:53Z</time>
      </trkpt>
      <trkpt lat="41.628658000" lon="2.515213100">
        <ele>441.40</ele>
        <time>2012-06-23T18:57:01Z</time>
      </trkpt>
      <trkpt lat="41.628647000" lon="2.515208100">
        <ele>441.40</ele>
        <time>2012-06-23T18:57:03Z</time>
      </trkpt>
      <trkpt lat="41.628597000" lon="2.515181100">
        <ele>442.30</ele>
        <time>2012-06-23T18:57:06Z</time>
      </trkpt>
      <trkpt lat="41.628506000" lon="2.515090100">
        <ele>444.30</ele>
        <time>2012-06-23T18:57:15Z</time>
      </trkpt>
      <trkpt lat="41.628490000" lon="2.515068100">
        <ele>444.30</ele>
        <time>2012-06-23T18:57:17Z</time>
      </trkpt>
      <trkpt lat="41.628403000" lon="2.515000100">
        <ele>445.20</ele>
        <time>2012-06-23T18:57:24Z</time>
      </trkpt>
      <trkpt lat="41.628269000" lon="2.514952100">
        <ele>446.20</ele>
        <time>2012-06-23T18:57:34Z</time>
      </trkpt>
      <trkpt lat="41.628155000" lon="2.514943100">
        <ele>446.70</ele>
        <time>2012-06-23T18:57:41Z</time>
      </trkpt>
      <trkpt lat="41.628040000" lon="2.514940100">
        <ele>447.60</ele>
        <time>2012-06-23T18:57:50Z</time>
      </trkpt>
      <trkpt lat="41.627975000" lon="2.514948100">
        <ele>447.60</ele>
        <time>2012-06-23T18:57:54Z</time>
      </trkpt>
      <trkpt lat="41.627834000" lon="2.514974100">
        <ele>448.10</ele>
        <time>2012-06-23T18:58:00Z</time>
      </trkpt>
      <trkpt lat="41.627758000" lon="2.515009100">
        <ele>448.10</ele>
        <time>2012-06-23T18:58:02Z</time>
      </trkpt>
      <trkpt lat="41.627453000" lon="2.515244100">
        <ele>445.20</ele>
        <time>2012-06-23T18:58:09Z</time>
      </trkpt>
      <trkpt lat="41.627407000" lon="2.515283100">
        <ele>444.30</ele>
        <time>2012-06-23T18:58:11Z</time>
      </trkpt>
      <trkpt lat="41.627270000" lon="2.515369100">
        <ele>439.00</ele>
        <time>2012-06-23T18:58:13Z</time>
      </trkpt>
      <trkpt lat="41.627201000" lon="2.515393100">
        <ele>435.10</ele>
        <time>2012-06-23T18:58:16Z</time>
      </trkpt>
      <trkpt lat="41.627132000" lon="2.515457100">
        <ele>432.20</ele>
        <time>2012-06-23T18:58:18Z</time>
      </trkpt>
      <trkpt lat="41.626919000" lon="2.515687100">
        <ele>431.80</ele>
        <time>2012-06-23T18:58:23Z</time>
      </trkpt>
      <trkpt lat="41.626770000" lon="2.516093100">
        <ele>433.70</ele>
        <time>2012-06-23T18:58:28Z</time>
      </trkpt>
      <trkpt lat="41.626663000" lon="2.516829100">
        <ele>430.30</ele>
        <time>2012-06-23T18:58:35Z</time>
      </trkpt>
      <trkpt lat="41.626591000" lon="2.517272100">
        <ele>427.00</ele>
        <time>2012-06-23T18:58:39Z</time>
      </trkpt>
      <trkpt lat="41.626572000" lon="2.517364100">
        <ele>426.00</ele>
        <time>2012-06-23T18:58:39Z</time>
      </trkpt>
      <trkpt lat="41.626560000" lon="2.518056100">
        <ele>422.20</ele>
        <time>2012-06-23T18:58:46Z</time>
      </trkpt>
      <trkpt lat="41.626553000" lon="2.518600100">
        <ele>422.20</ele>
        <time>2012-06-23T18:58:53Z</time>
      </trkpt>
      <trkpt lat="41.626637000" lon="2.518864100">
        <ele>422.20</ele>
        <time>2012-06-23T18:58:58Z</time>
      </trkpt>
      <trkpt lat="41.626698000" lon="2.519089100">
        <ele>422.20</ele>
        <time>2012-06-23T18:59:03Z</time>
      </trkpt>
      <trkpt lat="41.626736000" lon="2.519361100">
        <ele>422.20</ele>
        <time>2012-06-23T18:59:07Z</time>
      </trkpt>
      <trkpt lat="41.626743000" lon="2.519872100">
        <ele>422.20</ele>
        <time>2012-06-23T18:59:14Z</time>
      </trkpt>
      <trkpt lat="41.626671000" lon="2.520067100">
        <ele>421.70</ele>
        <time>2012-06-23T18:59:17Z</time>
      </trkpt>
      <trkpt lat="41.626637000" lon="2.520153100">
        <ele>421.70</ele>
        <time>2012-06-23T18:59:19Z</time>
      </trkpt>
      <trkpt lat="41.626591000" lon="2.520118100">
        <ele>421.20</ele>
        <time>2012-06-23T18:59:24Z</time>
      </trkpt>
      <trkpt lat="41.626644000" lon="2.519991100">
        <ele>419.80</ele>
        <time>2012-06-23T18:59:28Z</time>
      </trkpt>
      <trkpt lat="41.626633000" lon="2.519755100">
        <ele>415.90</ele>
        <time>2012-06-23T18:59:33Z</time>
      </trkpt>
      <trkpt lat="41.626587000" lon="2.519596100">
        <ele>412.50</ele>
        <time>2012-06-23T18:59:36Z</time>
      </trkpt>
      <trkpt lat="41.626537000" lon="2.519462100">
        <ele>409.20</ele>
        <time>2012-06-23T18:59:38Z</time>
      </trkpt>
      <trkpt lat="41.626457000" lon="2.519300100">
        <ele>405.80</ele>
        <time>2012-06-23T18:59:43Z</time>
      </trkpt>
      <trkpt lat="41.626282000" lon="2.518993100">
        <ele>403.90</ele>
        <time>2012-06-23T18:59:48Z</time>
      </trkpt>
      <trkpt lat="41.626171000" lon="2.518781100">
        <ele>400.00</ele>
        <time>2012-06-23T18:59:54Z</time>
      </trkpt>
      <trkpt lat="41.626060000" lon="2.518548100">
        <ele>395.70</ele>
        <time>2012-06-23T18:59:59Z</time>
      </trkpt>
      <trkpt lat="41.625935000" lon="2.518192100">
        <ele>391.40</ele>
        <time>2012-06-23T19:00:04Z</time>
      </trkpt>
      <trkpt lat="41.625877000" lon="2.517905100">
        <ele>388.00</ele>
        <time>2012-06-23T19:00:09Z</time>
      </trkpt>
      <trkpt lat="41.625870000" lon="2.517863100">
        <ele>387.10</ele>
        <time>2012-06-23T19:00:09Z</time>
      </trkpt>
      <trkpt lat="41.625786000" lon="2.517694100">
        <ele>385.10</ele>
        <time>2012-06-23T19:00:16Z</time>
      </trkpt>
      <trkpt lat="41.625687000" lon="2.517515100">
        <ele>384.70</ele>
        <time>2012-06-23T19:00:20Z</time>
      </trkpt>
      <trkpt lat="41.625515000" lon="2.517356100">
        <ele>382.70</ele>
        <time>2012-06-23T19:00:25Z</time>
      </trkpt>
      <trkpt lat="41.625401000" lon="2.517299100">
        <ele>378.90</ele>
        <time>2012-06-23T19:00:29Z</time>
      </trkpt>
      <trkpt lat="41.625317000" lon="2.517246100">
        <ele>376.50</ele>
        <time>2012-06-23T19:00:30Z</time>
      </trkpt>
      <trkpt lat="41.625084000" lon="2.517120100">
        <ele>372.20</ele>
        <time>2012-06-23T19:00:35Z</time>
      </trkpt>
      <trkpt lat="41.625019000" lon="2.517086100">
        <ele>372.60</ele>
        <time>2012-06-23T19:00:37Z</time>
      </trkpt>
      <trkpt lat="41.624828000" lon="2.517029100">
        <ele>372.20</ele>
        <time>2012-06-23T19:00:41Z</time>
      </trkpt>
      <trkpt lat="41.624592000" lon="2.517078100">
        <ele>371.70</ele>
        <time>2012-06-23T19:00:46Z</time>
      </trkpt>
      <trkpt lat="41.624432000" lon="2.517117100">
        <ele>370.20</ele>
        <time>2012-06-23T19:00:51Z</time>
      </trkpt>
      <trkpt lat="41.624393000" lon="2.517125100">
        <ele>370.20</ele>
        <time>2012-06-23T19:00:51Z</time>
      </trkpt>
      <trkpt lat="41.624229000" lon="2.517197100">
        <ele>365.40</ele>
        <time>2012-06-23T19:00:55Z</time>
      </trkpt>
      <trkpt lat="41.624165000" lon="2.517232100">
        <ele>362.50</ele>
        <time>2012-06-23T19:00:58Z</time>
      </trkpt>
      <trkpt lat="41.624176000" lon="2.517298100">
        <ele>357.80</ele>
        <time>2012-06-23T19:01:02Z</time>
      </trkpt>
      <trkpt lat="41.624195000" lon="2.517292100">
        <ele>361.10</ele>
        <time>2012-06-23T19:01:10Z</time>
      </trkpt>
      <trkpt lat="41.624195000" lon="2.517292100">
        <ele>361.10</ele>
        <time>2012-06-23T19:01:12Z</time>
      </trkpt>
      <trkpt lat="41.624290000" lon="2.517265100">
        <ele>362.50</ele>
        <time>2012-06-23T19:01:17Z</time>
      </trkpt>
      <trkpt lat="41.624546000" lon="2.517286100">
        <ele>361.10</ele>
        <time>2012-06-23T19:01:24Z</time>
      </trkpt>
      <trkpt lat="41.624657000" lon="2.517297100">
        <ele>361.10</ele>
        <time>2012-06-23T19:01:28Z</time>
      </trkpt>
      <trkpt lat="41.624928000" lon="2.517413100">
        <ele>360.10</ele>
        <time>2012-06-23T19:01:35Z</time>
      </trkpt>
      <trkpt lat="41.625057000" lon="2.517483100">
        <ele>359.70</ele>
        <time>2012-06-23T19:01:40Z</time>
      </trkpt>
      <trkpt lat="41.625065000" lon="2.517481100">
        <ele>359.20</ele>
        <time>2012-06-23T19:01:49Z</time>
      </trkpt>
      <trkpt lat="41.625065000" lon="2.517481100">
        <ele>359.20</ele>
        <time>2012-06-23T19:02:22Z</time>
      </trkpt>
      <trkpt lat="41.625088000" lon="2.517488100">
        <ele>358.70</ele>
        <time>2012-06-23T19:02:34Z</time>
      </trkpt>
      <trkpt lat="41.625141000" lon="2.517514100">
        <ele>358.70</ele>
        <time>2012-06-23T19:02:39Z</time>
      </trkpt>
      <trkpt lat="41.625271000" lon="2.517556100">
        <ele>358.70</ele>
        <time>2012-06-23T19:02:48Z</time>
      </trkpt>
      <trkpt lat="41.625324000" lon="2.517599100">
        <ele>359.70</ele>
        <time>2012-06-23T19:02:51Z</time>
      </trkpt>
      <trkpt lat="41.625397000" lon="2.517766100">
        <ele>361.10</ele>
        <time>2012-06-23T19:03:00Z</time>
      </trkpt>
      <trkpt lat="41.625439000" lon="2.517914100">
        <ele>362.10</ele>
        <time>2012-06-23T19:03:07Z</time>
      </trkpt>
      <trkpt lat="41.625465000" lon="2.518096100">
        <ele>363.50</ele>
        <time>2012-06-23T19:03:16Z</time>
      </trkpt>
      <trkpt lat="41.625561000" lon="2.518252100">
        <ele>365.00</ele>
        <time>2012-06-23T19:03:24Z</time>
      </trkpt>
      <trkpt lat="41.625595000" lon="2.518304100">
        <ele>365.40</ele>
        <time>2012-06-23T19:03:28Z</time>
      </trkpt>
      <trkpt lat="41.625618000" lon="2.518394100">
        <ele>366.40</ele>
        <time>2012-06-23T19:03:31Z</time>
      </trkpt>
      <trkpt lat="41.625648000" lon="2.518607100">
        <ele>367.80</ele>
        <time>2012-06-23T19:03:42Z</time>
      </trkpt>
      <trkpt lat="41.625694000" lon="2.518801100">
        <ele>369.30</ele>
        <time>2012-06-23T19:03:51Z</time>
      </trkpt>
      <trkpt lat="41.625771000" lon="2.518957100">
        <ele>370.70</ele>
        <time>2012-06-23T19:03:59Z</time>
      </trkpt>
      <trkpt lat="41.625851000" lon="2.519101100">
        <ele>371.70</ele>
        <time>2012-06-23T19:04:06Z</time>
      </trkpt>
      <trkpt lat="41.625889000" lon="2.519268100">
        <ele>372.20</ele>
        <time>2012-06-23T19:04:13Z</time>
      </trkpt>
      <trkpt lat="41.625839000" lon="2.519440100">
        <ele>373.10</ele>
        <time>2012-06-23T19:04:20Z</time>
      </trkpt>
      <trkpt lat="41.625675000" lon="2.519656100">
        <ele>373.60</ele>
        <time>2012-06-23T19:04:29Z</time>
      </trkpt>
      <trkpt lat="41.625431000" lon="2.519818100">
        <ele>373.60</ele>
        <time>2012-06-23T19:04:36Z</time>
      </trkpt>
      <trkpt lat="41.625401000" lon="2.519847100">
        <ele>373.60</ele>
        <time>2012-06-23T19:04:38Z</time>
      </trkpt>
      <trkpt lat="41.625370000" lon="2.520044100">
        <ele>374.10</ele>
        <time>2012-06-23T19:04:43Z</time>
      </trkpt>
      <trkpt lat="41.625427000" lon="2.520280100">
        <ele>374.10</ele>
        <time>2012-06-23T19:04:48Z</time>
      </trkpt>
      <trkpt lat="41.625450000" lon="2.520508100">
        <ele>374.10</ele>
        <time>2012-06-23T19:04:52Z</time>
      </trkpt>
      <trkpt lat="41.625568000" lon="2.520837100">
        <ele>370.70</ele>
        <time>2012-06-23T19:04:59Z</time>
      </trkpt>
      <trkpt lat="41.625546000" lon="2.521018100">
        <ele>366.40</ele>
        <time>2012-06-23T19:05:04Z</time>
      </trkpt>
      <trkpt lat="41.625366000" lon="2.521173100">
        <ele>366.40</ele>
        <time>2012-06-23T19:05:11Z</time>
      </trkpt>
      <trkpt lat="41.625305000" lon="2.521233100">
        <ele>366.40</ele>
        <time>2012-06-23T19:05:12Z</time>
      </trkpt>
      <trkpt lat="41.625092000" lon="2.521295100">
        <ele>365.40</ele>
        <time>2012-06-23T19:05:18Z</time>
      </trkpt>
      <trkpt lat="41.625015000" lon="2.521313100">
        <ele>365.00</ele>
        <time>2012-06-23T19:05:21Z</time>
      </trkpt>
      <trkpt lat="41.624931000" lon="2.521340100">
        <ele>364.00</ele>
        <time>2012-06-23T19:05:23Z</time>
      </trkpt>
      <trkpt lat="41.624763000" lon="2.521355100">
        <ele>358.70</ele>
        <time>2012-06-23T19:05:26Z</time>
      </trkpt>
      <trkpt lat="41.624702000" lon="2.521340100">
        <ele>355.80</ele>
        <time>2012-06-23T19:05:28Z</time>
      </trkpt>
      <trkpt lat="41.624496000" lon="2.521231100">
        <ele>351.00</ele>
        <time>2012-06-23T19:05:33Z</time>
      </trkpt>
      <trkpt lat="41.624279000" lon="2.521243100">
        <ele>349.10</ele>
        <time>2012-06-23T19:05:37Z</time>
      </trkpt>
      <trkpt lat="41.624054000" lon="2.521372100">
        <ele>348.10</ele>
        <time>2012-06-23T19:05:40Z</time>
      </trkpt>
      <trkpt lat="41.623898000" lon="2.521690100">
        <ele>342.90</ele>
        <time>2012-06-23T19:05:46Z</time>
      </trkpt>
      <trkpt lat="41.623871000" lon="2.521760100">
        <ele>342.40</ele>
        <time>2012-06-23T19:05:47Z</time>
      </trkpt>
      <trkpt lat="41.623753000" lon="2.521940100">
        <ele>338.00</ele>
        <time>2012-06-23T19:05:51Z</time>
      </trkpt>
      <trkpt lat="41.623631000" lon="2.522050100">
        <ele>335.20</ele>
        <time>2012-06-23T19:05:54Z</time>
      </trkpt>
      <trkpt lat="41.623554000" lon="2.522076100">
        <ele>334.20</ele>
        <time>2012-06-23T19:05:58Z</time>
      </trkpt>
      <trkpt lat="41.623489000" lon="2.522162100">
        <ele>334.20</ele>
        <time>2012-06-23T19:06:05Z</time>
      </trkpt>
      <trkpt lat="41.623539000" lon="2.522202100">
        <ele>334.20</ele>
        <time>2012-06-23T19:06:08Z</time>
      </trkpt>
      <trkpt lat="41.623524000" lon="2.522295100">
        <ele>333.70</ele>
        <time>2012-06-23T19:06:15Z</time>
      </trkpt>
      <trkpt lat="41.623497000" lon="2.522312100">
        <ele>333.70</ele>
        <time>2012-06-23T19:06:15Z</time>
      </trkpt>
      <trkpt lat="41.623322000" lon="2.522443100">
        <ele>330.80</ele>
        <time>2012-06-23T19:06:20Z</time>
      </trkpt>
      <trkpt lat="41.623158000" lon="2.522482100">
        <ele>325.10</ele>
        <time>2012-06-23T19:06:24Z</time>
      </trkpt>
      <trkpt lat="41.622669000" lon="2.522396100">
        <ele>322.70</ele>
        <time>2012-06-23T19:06:34Z</time>
      </trkpt>
      <trkpt lat="41.622482000" lon="2.522373100">
        <ele>325.50</ele>
        <time>2012-06-23T19:06:38Z</time>
      </trkpt>
      <trkpt lat="41.622387000" lon="2.522372100">
        <ele>326.50</ele>
        <time>2012-06-23T19:06:40Z</time>
      </trkpt>
      <trkpt lat="41.622173000" lon="2.522422100">
        <ele>321.70</ele>
        <time>2012-06-23T19:06:45Z</time>
      </trkpt>
      <trkpt lat="41.622074000" lon="2.522409100">
        <ele>318.30</ele>
        <time>2012-06-23T19:06:48Z</time>
      </trkpt>
      <trkpt lat="41.621929000" lon="2.522234100">
        <ele>313.00</ele>
        <time>2012-06-23T19:06:52Z</time>
      </trkpt>
      <trkpt lat="41.621788000" lon="2.521904100">
        <ele>309.20</ele>
        <time>2012-06-23T19:06:57Z</time>
      </trkpt>
      <trkpt lat="41.621742000" lon="2.521796100">
        <ele>309.20</ele>
        <time>2012-06-23T19:06:59Z</time>
      </trkpt>
      <trkpt lat="41.621521000" lon="2.521420100">
        <ele>306.30</ele>
        <time>2012-06-23T19:07:06Z</time>
      </trkpt>
      <trkpt lat="41.621300000" lon="2.521155100">
        <ele>303.00</ele>
        <time>2012-06-23T19:07:11Z</time>
      </trkpt>
      <trkpt lat="41.621136000" lon="2.521153100">
        <ele>299.60</ele>
        <time>2012-06-23T19:07:13Z</time>
      </trkpt>
      <trkpt lat="41.621025000" lon="2.521113100">
        <ele>296.20</ele>
        <time>2012-06-23T19:07:16Z</time>
      </trkpt>
      <trkpt lat="41.620956000" lon="2.521101100">
        <ele>294.80</ele>
        <time>2012-06-23T19:07:18Z</time>
      </trkpt>
      <trkpt lat="41.620823000" lon="2.521092100">
        <ele>293.30</ele>
        <time>2012-06-23T19:07:23Z</time>
      </trkpt>
      <trkpt lat="41.620800000" lon="2.521120100">
        <ele>292.40</ele>
        <time>2012-06-23T19:07:27Z</time>
      </trkpt>
      <trkpt lat="41.620869000" lon="2.521263100">
        <ele>292.40</ele>
        <time>2012-06-23T19:07:32Z</time>
      </trkpt>
      <trkpt lat="41.620941000" lon="2.521343100">
        <ele>292.40</ele>
        <time>2012-06-23T19:07:35Z</time>
      </trkpt>
      <trkpt lat="41.620949000" lon="2.521396100">
        <ele>291.40</ele>
        <time>2012-06-23T19:07:41Z</time>
      </trkpt>
      <trkpt lat="41.620815000" lon="2.521348100">
        <ele>290.50</ele>
        <time>2012-06-23T19:07:46Z</time>
      </trkpt>
      <trkpt lat="41.620735000" lon="2.521307100">
        <ele>288.00</ele>
        <time>2012-06-23T19:07:51Z</time>
      </trkpt>
      <trkpt lat="41.620735000" lon="2.521307100">
        <ele>288.00</ele>
        <time>2012-06-23T19:07:53Z</time>
      </trkpt>
      <trkpt lat="41.620586000" lon="2.521244100">
        <ele>283.70</ele>
        <time>2012-06-23T19:08:00Z</time>
      </trkpt>
      <trkpt lat="41.620514000" lon="2.521210100">
        <ele>283.20</ele>
        <time>2012-06-23T19:08:01Z</time>
      </trkpt>
      <trkpt lat="41.620289000" lon="2.521066100">
        <ele>281.80</ele>
        <time>2012-06-23T19:08:08Z</time>
      </trkpt>
      <trkpt lat="41.620232000" lon="2.520925100">
        <ele>281.30</ele>
        <time>2012-06-23T19:08:14Z</time>
      </trkpt>
      <trkpt lat="41.620220000" lon="2.520923100">
        <ele>281.30</ele>
        <time>2012-06-23T19:08:17Z</time>
      </trkpt>
      <trkpt lat="41.620205000" lon="2.521060100">
        <ele>279.90</ele>
        <time>2012-06-23T19:08:22Z</time>
      </trkpt>
      <trkpt lat="41.620216000" lon="2.521113100">
        <ele>278.90</ele>
        <time>2012-06-23T19:08:29Z</time>
      </trkpt>
      <trkpt lat="41.620220000" lon="2.521113100">
        <ele>278.00</ele>
        <time>2012-06-23T19:08:38Z</time>
      </trkpt>
      <trkpt lat="41.620216000" lon="2.521113100">
        <ele>277.50</ele>
        <time>2012-06-23T19:08:43Z</time>
      </trkpt>
      <trkpt lat="41.620361000" lon="2.521281100">
        <ele>276.50</ele>
        <time>2012-06-23T19:08:52Z</time>
      </trkpt>
      <trkpt lat="41.620407000" lon="2.521343100">
        <ele>274.10</ele>
        <time>2012-06-23T19:08:54Z</time>
      </trkpt>
      <trkpt lat="41.620419000" lon="2.521386100">
        <ele>272.20</ele>
        <time>2012-06-23T19:08:57Z</time>
      </trkpt>
      <trkpt lat="41.620327000" lon="2.521374100">
        <ele>268.80</ele>
        <time>2012-06-23T19:09:02Z</time>
      </trkpt>
      <trkpt lat="41.620148000" lon="2.521336100">
        <ele>267.90</ele>
        <time>2012-06-23T19:09:08Z</time>
      </trkpt>
      <trkpt lat="41.619949000" lon="2.521353100">
        <ele>267.90</ele>
        <time>2012-06-23T19:09:13Z</time>
      </trkpt>
      <trkpt lat="41.619698000" lon="2.521296100">
        <ele>263.50</ele>
        <time>2012-06-23T19:09:18Z</time>
      </trkpt>
      <trkpt lat="41.619617000" lon="2.521250100">
        <ele>258.70</ele>
        <time>2012-06-23T19:09:22Z</time>
      </trkpt>
      <trkpt lat="41.619606000" lon="2.521250100">
        <ele>257.80</ele>
        <time>2012-06-23T19:09:23Z</time>
      </trkpt>
      <trkpt lat="41.619499000" lon="2.521252100">
        <ele>252.50</ele>
        <time>2012-06-23T19:09:27Z</time>
      </trkpt>
      <trkpt lat="41.619404000" lon="2.521247100">
        <ele>252.00</ele>
        <time>2012-06-23T19:09:30Z</time>
      </trkpt>
      <trkpt lat="41.619324000" lon="2.521162100">
        <ele>251.50</ele>
        <time>2012-06-23T19:09:37Z</time>
      </trkpt>
      <trkpt lat="41.619270000" lon="2.520908100">
        <ele>251.00</ele>
        <time>2012-06-23T19:09:44Z</time>
      </trkpt>
      <trkpt lat="41.619293000" lon="2.520682100">
        <ele>249.60</ele>
        <time>2012-06-23T19:09:49Z</time>
      </trkpt>
      <trkpt lat="41.619434000" lon="2.520503100">
        <ele>247.20</ele>
        <time>2012-06-23T19:09:55Z</time>
      </trkpt>
      <trkpt lat="41.619495000" lon="2.520486100">
        <ele>245.30</ele>
        <time>2012-06-23T19:09:56Z</time>
      </trkpt>
      <trkpt lat="41.619530000" lon="2.520399100">
        <ele>240.90</ele>
        <time>2012-06-23T19:10:00Z</time>
      </trkpt>
      <trkpt lat="41.619511000" lon="2.520391100">
        <ele>240.50</ele>
        <time>2012-06-23T19:10:02Z</time>
      </trkpt>
      <trkpt lat="41.619419000" lon="2.520361100">
        <ele>240.00</ele>
        <time>2012-06-23T19:10:05Z</time>
      </trkpt>
      <trkpt lat="41.619179000" lon="2.520385100">
        <ele>240.50</ele>
        <time>2012-06-23T19:10:10Z</time>
      </trkpt>
      <trkpt lat="41.619030000" lon="2.520447100">
        <ele>239.00</ele>
        <time>2012-06-23T19:10:12Z</time>
      </trkpt>
      <trkpt lat="41.618881000" lon="2.520551100">
        <ele>235.20</ele>
        <time>2012-06-23T19:10:17Z</time>
      </trkpt>
      <trkpt lat="41.618793000" lon="2.520574100">
        <ele>232.80</ele>
        <time>2012-06-23T19:10:19Z</time>
      </trkpt>
      <trkpt lat="41.618645000" lon="2.520579100">
        <ele>228.00</ele>
        <time>2012-06-23T19:10:24Z</time>
      </trkpt>
      <trkpt lat="41.618557000" lon="2.520590100">
        <ele>228.00</ele>
        <time>2012-06-23T19:10:26Z</time>
      </trkpt>
      <trkpt lat="41.618366000" lon="2.520729100">
        <ele>228.00</ele>
        <time>2012-06-23T19:10:31Z</time>
      </trkpt>
      <trkpt lat="41.618317000" lon="2.520883100">
        <ele>228.00</ele>
        <time>2012-06-23T19:10:33Z</time>
      </trkpt>
      <trkpt lat="41.618233000" lon="2.521131100">
        <ele>224.60</ele>
        <time>2012-06-23T19:10:40Z</time>
      </trkpt>
      <trkpt lat="41.618191000" lon="2.521205100">
        <ele>221.70</ele>
        <time>2012-06-23T19:10:42Z</time>
      </trkpt>
      <trkpt lat="41.618145000" lon="2.521268100">
        <ele>218.80</ele>
        <time>2012-06-23T19:10:49Z</time>
      </trkpt>
      <trkpt lat="41.618149000" lon="2.521269100">
        <ele>220.30</ele>
        <time>2012-06-23T19:11:06Z</time>
      </trkpt>
      <trkpt lat="41.618149000" lon="2.521269100">
        <ele>220.30</ele>
        <time>2012-06-23T19:11:22Z</time>
      </trkpt>
      <trkpt lat="41.618069000" lon="2.521434100">
        <ele>220.80</ele>
        <time>2012-06-23T19:12:07Z</time>
      </trkpt>
      <trkpt lat="41.617996000" lon="2.521641100">
        <ele>219.30</ele>
        <time>2012-06-23T19:12:14Z</time>
      </trkpt>
      <trkpt lat="41.617996000" lon="2.521664100">
        <ele>219.30</ele>
        <time>2012-06-23T19:12:14Z</time>
      </trkpt>
      <trkpt lat="41.618004000" lon="2.521707100">
        <ele>218.40</ele>
        <time>2012-06-23T19:12:21Z</time>
      </trkpt>
      <trkpt lat="41.618004000" lon="2.521707100">
        <ele>218.40</ele>
        <time>2012-06-23T19:12:42Z</time>
      </trkpt>
      <trkpt lat="41.618004000" lon="2.521703100">
        <ele>216.90</ele>
        <time>2012-06-23T19:12:59Z</time>
      </trkpt>
      <trkpt lat="41.617981000" lon="2.521677100">
        <ele>216.90</ele>
        <time>2012-06-23T19:13:05Z</time>
      </trkpt>
      <trkpt lat="41.617958000" lon="2.521694100">
        <ele>216.90</ele>
        <time>2012-06-23T19:13:13Z</time>
      </trkpt>
      <trkpt lat="41.617958000" lon="2.521696100">
        <ele>216.90</ele>
        <time>2012-06-23T19:14:04Z</time>
      </trkpt>
      <trkpt lat="41.617916000" lon="2.521620100">
        <ele>216.90</ele>
        <time>2012-06-23T19:14:21Z</time>
      </trkpt>
      <trkpt lat="41.617844000" lon="2.521367100">
        <ele>215.90</ele>
        <time>2012-06-23T19:14:26Z</time>
      </trkpt>
      <trkpt lat="41.617748000" lon="2.521005100">
        <ele>215.00</ele>
        <time>2012-06-23T19:14:33Z</time>
      </trkpt>
      <trkpt lat="41.617687000" lon="2.520782100">
        <ele>213.60</ele>
        <time>2012-06-23T19:14:37Z</time>
      </trkpt>
      <trkpt lat="41.617596000" lon="2.520643100">
        <ele>212.60</ele>
        <time>2012-06-23T19:14:42Z</time>
      </trkpt>
      <trkpt lat="41.617462000" lon="2.520774100">
        <ele>210.70</ele>
        <time>2012-06-23T19:14:47Z</time>
      </trkpt>
      <trkpt lat="41.617455000" lon="2.520966100">
        <ele>208.30</ele>
        <time>2012-06-23T19:14:49Z</time>
      </trkpt>
      <trkpt lat="41.617516000" lon="2.521165100">
        <ele>205.40</ele>
        <time>2012-06-23T19:14:53Z</time>
      </trkpt>
      <trkpt lat="41.617592000" lon="2.521362100">
        <ele>203.00</ele>
        <time>2012-06-23T19:14:56Z</time>
      </trkpt>
      <trkpt lat="41.617607000" lon="2.521645100">
        <ele>200.60</ele>
        <time>2012-06-23T19:15:03Z</time>
      </trkpt>
      <trkpt lat="41.617554000" lon="2.521886100">
        <ele>196.70</ele>
        <time>2012-06-23T19:15:10Z</time>
      </trkpt>
      <trkpt lat="41.617550000" lon="2.521907100">
        <ele>196.20</ele>
        <time>2012-06-23T19:15:10Z</time>
      </trkpt>
      <trkpt lat="41.617554000" lon="2.522008100">
        <ele>194.80</ele>
        <time>2012-06-23T19:15:17Z</time>
      </trkpt>
      <trkpt lat="41.617554000" lon="2.522009100">
        <ele>195.80</ele>
        <time>2012-06-23T19:15:57Z</time>
      </trkpt>
      <trkpt lat="41.617558000" lon="2.522026100">
        <ele>195.80</ele>
        <time>2012-06-23T19:16:11Z</time>
      </trkpt>
      <trkpt lat="41.617619000" lon="2.522159100">
        <ele>195.80</ele>
        <time>2012-06-23T19:16:16Z</time>
      </trkpt>
      <trkpt lat="41.617626000" lon="2.522256100">
        <ele>195.80</ele>
        <time>2012-06-23T19:16:21Z</time>
      </trkpt>
      <trkpt lat="41.617523000" lon="2.522326100">
        <ele>195.80</ele>
        <time>2012-06-23T19:16:27Z</time>
      </trkpt>
      <trkpt lat="41.617409000" lon="2.522360100">
        <ele>194.30</ele>
        <time>2012-06-23T19:16:30Z</time>
      </trkpt>
      <trkpt lat="41.617077000" lon="2.522509100">
        <ele>192.90</ele>
        <time>2012-06-23T19:16:37Z</time>
      </trkpt>
      <trkpt lat="41.616825000" lon="2.522690100">
        <ele>191.40</ele>
        <time>2012-06-23T19:16:46Z</time>
      </trkpt>
      <trkpt lat="41.616688000" lon="2.522779100">
        <ele>190.00</ele>
        <time>2012-06-23T19:16:51Z</time>
      </trkpt>
      <trkpt lat="41.616497000" lon="2.522882100">
        <ele>189.00</ele>
        <time>2012-06-23T19:17:00Z</time>
      </trkpt>
      <trkpt lat="41.616264000" lon="2.523063100">
        <ele>188.10</ele>
        <time>2012-06-23T19:17:07Z</time>
      </trkpt>
      <trkpt lat="41.616188000" lon="2.523198100">
        <ele>188.10</ele>
        <time>2012-06-23T19:17:10Z</time>
      </trkpt>
      <trkpt lat="41.616104000" lon="2.523329100">
        <ele>187.10</ele>
        <time>2012-06-23T19:17:12Z</time>
      </trkpt>
      <trkpt lat="41.615913000" lon="2.523642100">
        <ele>186.10</ele>
        <time>2012-06-23T19:17:21Z</time>
      </trkpt>
      <trkpt lat="41.615784000" lon="2.523884100">
        <ele>185.20</ele>
        <time>2012-06-23T19:17:26Z</time>
      </trkpt>
      <trkpt lat="41.615692000" lon="2.524101100">
        <ele>184.70</ele>
        <time>2012-06-23T19:17:31Z</time>
      </trkpt>
      <trkpt lat="41.615688000" lon="2.524133100">
        <ele>184.70</ele>
        <time>2012-06-23T19:17:31Z</time>
      </trkpt>
      <trkpt lat="41.615654000" lon="2.524372100">
        <ele>184.20</ele>
        <time>2012-06-23T19:17:38Z</time>
      </trkpt>
      <trkpt lat="41.615604000" lon="2.524934100">
        <ele>183.30</ele>
        <time>2012-06-23T19:17:45Z</time>
      </trkpt>
      <trkpt lat="41.615540000" lon="2.525226100">
        <ele>182.80</ele>
        <time>2012-06-23T19:17:50Z</time>
      </trkpt>
      <trkpt lat="41.615498000" lon="2.525470100">
        <ele>182.30</ele>
        <time>2012-06-23T19:17:52Z</time>
      </trkpt>
      <trkpt lat="41.615532000" lon="2.526304100">
        <ele>180.40</ele>
        <time>2012-06-23T19:18:01Z</time>
      </trkpt>
      <trkpt lat="41.615562000" lon="2.526819100">
        <ele>179.40</ele>
        <time>2012-06-23T19:18:06Z</time>
      </trkpt>
      <trkpt lat="41.615486000" lon="2.527377100">
        <ele>175.60</ele>
        <time>2012-06-23T19:18:11Z</time>
      </trkpt>
      <trkpt lat="41.615402000" lon="2.527823100">
        <ele>171.70</ele>
        <time>2012-06-23T19:18:16Z</time>
      </trkpt>
      <trkpt lat="41.615196000" lon="2.528935100">
        <ele>170.30</ele>
        <time>2012-06-23T19:18:25Z</time>
      </trkpt>
      <trkpt lat="41.615185000" lon="2.529047100">
        <ele>170.30</ele>
        <time>2012-06-23T19:18:27Z</time>
      </trkpt>
      <trkpt lat="41.615162000" lon="2.529860100">
        <ele>169.80</ele>
        <time>2012-06-23T19:18:34Z</time>
      </trkpt>
      <trkpt lat="41.615128000" lon="2.530856100">
        <ele>166.40</ele>
        <time>2012-06-23T19:18:42Z</time>
      </trkpt>
      <trkpt lat="41.615108000" lon="2.531176100">
        <ele>163.60</ele>
        <time>2012-06-23T19:18:46Z</time>
      </trkpt>
      <trkpt lat="41.615074000" lon="2.531587100">
        <ele>159.70</ele>
        <time>2012-06-23T19:18:49Z</time>
      </trkpt>
      <trkpt lat="41.615067000" lon="2.531688100">
        <ele>159.70</ele>
        <time>2012-06-23T19:18:51Z</time>
      </trkpt>
      <trkpt lat="41.615028000" lon="2.532114100">
        <ele>159.70</ele>
        <time>2012-06-23T19:18:55Z</time>
      </trkpt>
      <trkpt lat="41.614868000" lon="2.532749100">
        <ele>159.70</ele>
        <time>2012-06-23T19:19:02Z</time>
      </trkpt>
      <trkpt lat="41.614655000" lon="2.533448100">
        <ele>158.80</ele>
        <time>2012-06-23T19:19:10Z</time>
      </trkpt>
      <trkpt lat="41.614475000" lon="2.534060100">
        <ele>157.30</ele>
        <time>2012-06-23T19:19:17Z</time>
      </trkpt>
      <trkpt lat="41.614235000" lon="2.534796100">
        <ele>154.40</ele>
        <time>2012-06-23T19:19:24Z</time>
      </trkpt>
      <trkpt lat="41.614101000" lon="2.535189100">
        <ele>151.10</ele>
        <time>2012-06-23T19:19:28Z</time>
      </trkpt>
      <trkpt lat="41.614010000" lon="2.535520100">
        <ele>147.70</ele>
        <time>2012-06-23T19:19:33Z</time>
      </trkpt>
      <trkpt lat="41.614029000" lon="2.535753100">
        <ele>146.30</ele>
        <time>2012-06-23T19:19:36Z</time>
      </trkpt>
      <trkpt lat="41.614021000" lon="2.536007100">
        <ele>146.30</ele>
        <time>2012-06-23T19:19:40Z</time>
      </trkpt>
      <trkpt lat="41.613945000" lon="2.536209100">
        <ele>146.30</ele>
        <time>2012-06-23T19:19:43Z</time>
      </trkpt>
      <trkpt lat="41.613754000" lon="2.536592100">
        <ele>146.30</ele>
        <time>2012-06-23T19:19:50Z</time>
      </trkpt>
      <trkpt lat="41.613644000" lon="2.536671100">
        <ele>145.80</ele>
        <time>2012-06-23T19:19:54Z</time>
      </trkpt>
      <trkpt lat="41.613552000" lon="2.536805100">
        <ele>145.80</ele>
        <time>2012-06-23T19:19:57Z</time>
      </trkpt>
      <trkpt lat="41.613514000" lon="2.536906100">
        <ele>145.30</ele>
        <time>2012-06-23T19:19:59Z</time>
      </trkpt>
      <trkpt lat="41.613461000" lon="2.537020100">
        <ele>145.30</ele>
        <time>2012-06-23T19:20:01Z</time>
      </trkpt>
      <trkpt lat="41.613396000" lon="2.537134100">
        <ele>144.80</ele>
        <time>2012-06-23T19:20:04Z</time>
      </trkpt>
      <trkpt lat="41.613235000" lon="2.537321100">
        <ele>143.90</ele>
        <time>2012-06-23T19:20:08Z</time>
      </trkpt>
      <trkpt lat="41.612995000" lon="2.537579100">
        <ele>142.90</ele>
        <time>2012-06-23T19:20:15Z</time>
      </trkpt>
      <trkpt lat="41.612911000" lon="2.537657100">
        <ele>141.90</ele>
        <time>2012-06-23T19:20:20Z</time>
      </trkpt>
      <trkpt lat="41.612827000" lon="2.537814100">
        <ele>141.40</ele>
        <time>2012-06-23T19:20:27Z</time>
      </trkpt>
      <trkpt lat="41.612686000" lon="2.537979100">
        <ele>141.00</ele>
        <time>2012-06-23T19:20:32Z</time>
      </trkpt>
      <trkpt lat="41.612625000" lon="2.538065100">
        <ele>141.00</ele>
        <time>2012-06-23T19:20:34Z</time>
      </trkpt>
      <trkpt lat="41.612484000" lon="2.538251100">
        <ele>140.00</ele>
        <time>2012-06-23T19:20:37Z</time>
      </trkpt>
      <trkpt lat="41.612320000" lon="2.538413100">
        <ele>140.00</ele>
        <time>2012-06-23T19:20:41Z</time>
      </trkpt>
      <trkpt lat="41.612164000" lon="2.538723100">
        <ele>139.10</ele>
        <time>2012-06-23T19:20:48Z</time>
      </trkpt>
      <trkpt lat="41.612144000" lon="2.538768100">
        <ele>138.60</ele>
        <time>2012-06-23T19:20:48Z</time>
      </trkpt>
      <trkpt lat="41.611992000" lon="2.539027100">
        <ele>138.10</ele>
        <time>2012-06-23T19:20:55Z</time>
      </trkpt>
      <trkpt lat="41.611893000" lon="2.539018100">
        <ele>136.60</ele>
        <time>2012-06-23T19:20:58Z</time>
      </trkpt>
      <trkpt lat="41.611870000" lon="2.538942100">
        <ele>137.10</ele>
        <time>2012-06-23T19:21:00Z</time>
      </trkpt>
      <trkpt lat="41.611816000" lon="2.538777100">
        <ele>137.10</ele>
        <time>2012-06-23T19:21:05Z</time>
      </trkpt>
      <trkpt lat="41.611691000" lon="2.538752100">
        <ele>137.10</ele>
        <time>2012-06-23T19:21:11Z</time>
      </trkpt>
      <trkpt lat="41.611649000" lon="2.538751100">
        <ele>136.60</ele>
        <time>2012-06-23T19:21:12Z</time>
      </trkpt>
      <trkpt lat="41.611267000" lon="2.538784100">
        <ele>136.60</ele>
        <time>2012-06-23T19:21:19Z</time>
      </trkpt>
      <trkpt lat="41.611206000" lon="2.538791100">
        <ele>136.60</ele>
        <time>2012-06-23T19:21:19Z</time>
      </trkpt>
      <trkpt lat="41.610977000" lon="2.538898100">
        <ele>136.60</ele>
        <time>2012-06-23T19:21:23Z</time>
      </trkpt>
      <trkpt lat="41.610687000" lon="2.539039100">
        <ele>135.70</ele>
        <time>2012-06-23T19:21:28Z</time>
      </trkpt>
      <trkpt lat="41.610336000" lon="2.539212100">
        <ele>131.80</ele>
        <time>2012-06-23T19:21:35Z</time>
      </trkpt>
      <trkpt lat="41.610264000" lon="2.539249100">
        <ele>129.90</ele>
        <time>2012-06-23T19:21:37Z</time>
      </trkpt>
      <trkpt lat="41.609921000" lon="2.539453100">
        <ele>128.00</ele>
        <time>2012-06-23T19:21:45Z</time>
      </trkpt>
      <trkpt lat="41.609692000" lon="2.539606100">
        <ele>128.00</ele>
        <time>2012-06-23T19:21:49Z</time>
      </trkpt>
      <trkpt lat="41.609325000" lon="2.539836100">
        <ele>128.00</ele>
        <time>2012-06-23T19:21:56Z</time>
      </trkpt>
      <trkpt lat="41.609165000" lon="2.540045100">
        <ele>127.00</ele>
        <time>2012-06-23T19:22:01Z</time>
      </trkpt>
      <trkpt lat="41.609150000" lon="2.540142100">
        <ele>126.10</ele>
        <time>2012-06-23T19:22:06Z</time>
      </trkpt>
      <trkpt lat="41.609142000" lon="2.540148100">
        <ele>126.10</ele>
        <time>2012-06-23T19:22:06Z</time>
      </trkpt>
      <trkpt lat="41.609074000" lon="2.540261100">
        <ele>125.60</ele>
        <time>2012-06-23T19:22:13Z</time>
      </trkpt>
      <trkpt lat="41.608952000" lon="2.540385100">
        <ele>125.10</ele>
        <time>2012-06-23T19:22:17Z</time>
      </trkpt>
      <trkpt lat="41.608906000" lon="2.540432100">
        <ele>125.10</ele>
        <time>2012-06-23T19:22:18Z</time>
      </trkpt>
      <trkpt lat="41.608856000" lon="2.540464100">
        <ele>124.60</ele>
        <time>2012-06-23T19:22:22Z</time>
      </trkpt>
      <trkpt lat="41.608826000" lon="2.540363100">
        <ele>124.60</ele>
        <time>2012-06-23T19:22:25Z</time>
      </trkpt>
      <trkpt lat="41.608669000" lon="2.540321100">
        <ele>123.20</ele>
        <time>2012-06-23T19:22:31Z</time>
      </trkpt>
      <trkpt lat="41.608528000" lon="2.540345100">
        <ele>122.70</ele>
        <time>2012-06-23T19:22:38Z</time>
      </trkpt>
      <trkpt lat="41.608376000" lon="2.540382100">
        <ele>122.70</ele>
        <time>2012-06-23T19:22:41Z</time>
      </trkpt>
      <trkpt lat="41.608192000" lon="2.540428100">
        <ele>122.20</ele>
        <time>2012-06-23T19:22:46Z</time>
      </trkpt>
      <trkpt lat="41.608055000" lon="2.540463100">
        <ele>122.20</ele>
        <time>2012-06-23T19:22:48Z</time>
      </trkpt>
      <trkpt lat="41.607723000" lon="2.540532100">
        <ele>121.70</ele>
        <time>2012-06-23T19:22:57Z</time>
      </trkpt>
      <trkpt lat="41.607533000" lon="2.540780100">
        <ele>120.80</ele>
        <time>2012-06-23T19:23:04Z</time>
      </trkpt>
      <trkpt lat="41.607304000" lon="2.540805100">
        <ele>120.80</ele>
        <time>2012-06-23T19:23:09Z</time>
      </trkpt>
      <trkpt lat="41.606926000" lon="2.540700100">
        <ele>119.80</ele>
        <time>2012-06-23T19:23:18Z</time>
      </trkpt>
      <trkpt lat="41.606529000" lon="2.540540100">
        <ele>118.40</ele>
        <time>2012-06-23T19:23:25Z</time>
      </trkpt>
      <trkpt lat="41.606213000" lon="2.540391100">
        <ele>118.40</ele>
        <time>2012-06-23T19:23:32Z</time>
      </trkpt>
      <trkpt lat="41.605957000" lon="2.540374100">
        <ele>117.90</ele>
        <time>2012-06-23T19:23:37Z</time>
      </trkpt>
      <trkpt lat="41.605972000" lon="2.540449100">
        <ele>116.90</ele>
        <time>2012-06-23T19:23:42Z</time>
      </trkpt>
      <trkpt lat="41.606022000" lon="2.540478100">
        <ele>116.90</ele>
        <time>2012-06-23T19:23:47Z</time>
      </trkpt>
      <trkpt lat="41.606129000" lon="2.540524100">
        <ele>116.90</ele>
        <time>2012-06-23T19:23:56Z</time>
      </trkpt>
      <trkpt lat="41.606236000" lon="2.540565100">
        <ele>116.90</ele>
        <time>2012-06-23T19:24:05Z</time>
      </trkpt>
      <trkpt lat="41.606297000" lon="2.540646100">
        <ele>116.90</ele>
        <time>2012-06-23T19:24:08Z</time>
      </trkpt>
      <trkpt lat="41.606548000" lon="2.540793100">
        <ele>116.90</ele>
        <time>2012-06-23T19:24:17Z</time>
      </trkpt>
      <trkpt lat="41.606632000" lon="2.541094100">
        <ele>118.40</ele>
        <time>2012-06-23T19:24:26Z</time>
      </trkpt>
      <trkpt lat="41.606720000" lon="2.541423100">
        <ele>119.80</ele>
        <time>2012-06-23T19:24:34Z</time>
      </trkpt>
      <trkpt lat="41.606812000" lon="2.541705100">
        <ele>121.30</ele>
        <time>2012-06-23T19:24:41Z</time>
      </trkpt>
      <trkpt lat="41.606869000" lon="2.541943100">
        <ele>122.70</ele>
        <time>2012-06-23T19:24:48Z</time>
      </trkpt>
      <trkpt lat="41.606968000" lon="2.542135100">
        <ele>124.20</ele>
        <time>2012-06-23T19:24:55Z</time>
      </trkpt>
      <trkpt lat="41.606987000" lon="2.542175100">
        <ele>124.60</ele>
        <time>2012-06-23T19:25:00Z</time>
      </trkpt>
      <trkpt lat="41.606983000" lon="2.542177100">
        <ele>126.10</ele>
        <time>2012-06-23T19:25:16Z</time>
      </trkpt>
      <trkpt lat="41.606983000" lon="2.542177100">
        <ele>126.10</ele>
        <time>2012-06-23T19:25:30Z</time>
      </trkpt>
      <trkpt lat="41.606987000" lon="2.542178100">
        <ele>126.60</ele>
        <time>2012-06-23T19:25:44Z</time>
      </trkpt>
      <trkpt lat="41.606983000" lon="2.542176100">
        <ele>126.60</ele>
        <time>2012-06-23T19:25:58Z</time>
      </trkpt>
      <trkpt lat="41.607029000" lon="2.542336100">
        <ele>126.60</ele>
        <time>2012-06-23T19:26:10Z</time>
      </trkpt>
      <trkpt lat="41.607059000" lon="2.542365100">
        <ele>127.00</ele>
        <time>2012-06-23T19:26:14Z</time>
      </trkpt>
      <trkpt lat="41.607059000" lon="2.542365100">
        <ele>127.00</ele>
        <time>2012-06-23T19:26:22Z</time>
      </trkpt>
      <trkpt lat="41.607056000" lon="2.542362100">
        <ele>128.00</ele>
        <time>2012-06-23T19:26:36Z</time>
      </trkpt>
    </trkseg>
  </trk>
</gpx>
